<?xml version="1.0" encoding="UTF-8" standalone="no" ?>
<gpx xmlns="http://www.topografix.com/GPX/1/1" xmlns:xsi="http://www.w3.org/2001/XMLSchema-instance" xsi:schemaLocation="http://www.topografix.com/GPX/1/1 http://www.topografix.com/GPX/1/1/gpx.xsd" version="1.1" creator="VisuGPX - https://www.visugpx.com">
  <metadata>
    <name>la foye monjault verte</name>
  </metadata>
  <trk>
    <name><![CDATA[la foye monjault verte_1]]></name>
    <trkseg>
      <trkpt lat="46.18812" lon="-0.53979">
        <ele>57.2</ele>
        <time>2021-03-22T13:17:16Z</time>
      </trkpt>
      <trkpt lat="46.18815" lon="-0.53982">
        <ele>57.2</ele>
        <time>2021-03-22T13:17:17Z</time>
      </trkpt>
      <trkpt lat="46.18816" lon="-0.53989">
        <ele>57.2</ele>
        <time>2021-03-22T13:17:19Z</time>
      </trkpt>
      <trkpt lat="46.18808" lon="-0.54001">
        <ele>57.2</ele>
        <time>2021-03-22T13:17:22Z</time>
      </trkpt>
      <trkpt lat="46.18798" lon="-0.54001">
        <ele>57.2</ele>
        <time>2021-03-22T13:17:24Z</time>
      </trkpt>
      <trkpt lat="46.18792" lon="-0.53998">
        <ele>57</ele>
        <time>2021-03-22T13:17:25Z</time>
      </trkpt>
      <trkpt lat="46.18781" lon="-0.53996">
        <ele>57</ele>
        <time>2021-03-22T13:17:27Z</time>
      </trkpt>
      <trkpt lat="46.18776" lon="-0.53997">
        <ele>57</ele>
        <time>2021-03-22T13:17:28Z</time>
      </trkpt>
      <trkpt lat="46.18771" lon="-0.54">
        <ele>57</ele>
        <time>2021-03-22T13:17:29Z</time>
      </trkpt>
      <trkpt lat="46.1877" lon="-0.54004">
        <ele>57</ele>
        <time>2021-03-22T13:17:30Z</time>
      </trkpt>
      <trkpt lat="46.18771" lon="-0.54014">
        <ele>56.8</ele>
        <time>2021-03-22T13:17:31Z</time>
      </trkpt>
      <trkpt lat="46.18771" lon="-0.54026">
        <ele>56.8</ele>
        <time>2021-03-22T13:17:32Z</time>
      </trkpt>
      <trkpt lat="46.18771" lon="-0.54046">
        <ele>56.6</ele>
        <time>2021-03-22T13:17:34Z</time>
      </trkpt>
      <trkpt lat="46.18772" lon="-0.54064">
        <ele>56.4</ele>
        <time>2021-03-22T13:17:36Z</time>
      </trkpt>
      <trkpt lat="46.18771" lon="-0.54072">
        <ele>56.2</ele>
        <time>2021-03-22T13:17:37Z</time>
      </trkpt>
      <trkpt lat="46.18768" lon="-0.54077">
        <ele>56.2</ele>
        <time>2021-03-22T13:17:38Z</time>
      </trkpt>
      <trkpt lat="46.18764" lon="-0.5408">
        <ele>56</ele>
        <time>2021-03-22T13:17:39Z</time>
      </trkpt>
      <trkpt lat="46.18759" lon="-0.54084">
        <ele>55.8</ele>
        <time>2021-03-22T13:17:40Z</time>
      </trkpt>
      <trkpt lat="46.18748" lon="-0.54093">
        <ele>55.4</ele>
        <time>2021-03-22T13:17:42Z</time>
      </trkpt>
      <trkpt lat="46.18739" lon="-0.54101">
        <ele>55.4</ele>
        <time>2021-03-22T13:17:43Z</time>
      </trkpt>
      <trkpt lat="46.18731" lon="-0.54106">
        <ele>55</ele>
        <time>2021-03-22T13:17:44Z</time>
      </trkpt>
      <trkpt lat="46.18708" lon="-0.54121">
        <ele>54.6</ele>
        <time>2021-03-22T13:17:47Z</time>
      </trkpt>
      <trkpt lat="46.18695" lon="-0.5413">
        <ele>54.2</ele>
        <time>2021-03-22T13:17:49Z</time>
      </trkpt>
      <trkpt lat="46.1869" lon="-0.54133">
        <ele>54</ele>
        <time>2021-03-22T13:17:50Z</time>
      </trkpt>
      <trkpt lat="46.18686" lon="-0.54135">
        <ele>53.8</ele>
        <time>2021-03-22T13:17:51Z</time>
      </trkpt>
      <trkpt lat="46.18681" lon="-0.54138">
        <ele>53.6</ele>
        <time>2021-03-22T13:17:52Z</time>
      </trkpt>
      <trkpt lat="46.18676" lon="-0.54141">
        <ele>53.6</ele>
        <time>2021-03-22T13:17:53Z</time>
      </trkpt>
      <trkpt lat="46.18674" lon="-0.54146">
        <ele>53.6</ele>
        <time>2021-03-22T13:17:54Z</time>
      </trkpt>
      <trkpt lat="46.18674" lon="-0.54153">
        <ele>53.6</ele>
        <time>2021-03-22T13:17:55Z</time>
      </trkpt>
      <trkpt lat="46.18675" lon="-0.54161">
        <ele>53.4</ele>
        <time>2021-03-22T13:17:56Z</time>
      </trkpt>
      <trkpt lat="46.18678" lon="-0.54167">
        <ele>53.4</ele>
        <time>2021-03-22T13:17:57Z</time>
      </trkpt>
      <trkpt lat="46.18686" lon="-0.54185">
        <ele>53</ele>
        <time>2021-03-22T13:17:59Z</time>
      </trkpt>
      <trkpt lat="46.18689" lon="-0.54192">
        <ele>52.6</ele>
        <time>2021-03-22T13:18:00Z</time>
      </trkpt>
      <trkpt lat="46.18692" lon="-0.54199">
        <ele>52.4</ele>
        <time>2021-03-22T13:18:01Z</time>
      </trkpt>
      <trkpt lat="46.18693" lon="-0.54202">
        <ele>52.4</ele>
        <time>2021-03-22T13:18:02Z</time>
      </trkpt>
      <trkpt lat="46.18694" lon="-0.54203">
        <ele>52.8</ele>
        <time>2021-03-22T13:18:03Z</time>
      </trkpt>
      <trkpt lat="46.18694" lon="-0.54203">
        <ele>53</ele>
        <time>2021-03-22T13:18:04Z</time>
      </trkpt>
      <trkpt lat="46.18699" lon="-0.54213">
        <ele>53.4</ele>
        <time>2021-03-22T13:18:08Z</time>
      </trkpt>
      <trkpt lat="46.18702" lon="-0.54219">
        <ele>53.4</ele>
        <time>2021-03-22T13:18:09Z</time>
      </trkpt>
      <trkpt lat="46.18719" lon="-0.54252">
        <ele>53</ele>
        <time>2021-03-22T13:18:13Z</time>
      </trkpt>
      <trkpt lat="46.18749" lon="-0.54306">
        <ele>51.6</ele>
        <time>2021-03-22T13:18:19Z</time>
      </trkpt>
      <trkpt lat="46.18775" lon="-0.54366">
        <ele>50.6</ele>
        <time>2021-03-22T13:18:25Z</time>
      </trkpt>
      <trkpt lat="46.18778" lon="-0.54377">
        <ele>50.6</ele>
        <time>2021-03-22T13:18:26Z</time>
      </trkpt>
      <trkpt lat="46.18804" lon="-0.54455">
        <ele>49.8</ele>
        <time>2021-03-22T13:18:33Z</time>
      </trkpt>
      <trkpt lat="46.18812" lon="-0.54491">
        <ele>49.6</ele>
        <time>2021-03-22T13:18:36Z</time>
      </trkpt>
      <trkpt lat="46.18819" lon="-0.54528">
        <ele>49.8</ele>
        <time>2021-03-22T13:18:39Z</time>
      </trkpt>
      <trkpt lat="46.18821" lon="-0.54591">
        <ele>49.6</ele>
        <time>2021-03-22T13:18:44Z</time>
      </trkpt>
      <trkpt lat="46.18821" lon="-0.54653">
        <ele>49.6</ele>
        <time>2021-03-22T13:18:49Z</time>
      </trkpt>
      <trkpt lat="46.1882" lon="-0.54703">
        <ele>49.8</ele>
        <time>2021-03-22T13:18:53Z</time>
      </trkpt>
      <trkpt lat="46.18811" lon="-0.54788">
        <ele>50.2</ele>
        <time>2021-03-22T13:19:00Z</time>
      </trkpt>
      <trkpt lat="46.18807" lon="-0.54811">
        <ele>50.2</ele>
        <time>2021-03-22T13:19:02Z</time>
      </trkpt>
      <trkpt lat="46.18806" lon="-0.54822">
        <ele>50.4</ele>
        <time>2021-03-22T13:19:03Z</time>
      </trkpt>
      <trkpt lat="46.18805" lon="-0.54833">
        <ele>50.6</ele>
        <time>2021-03-22T13:19:04Z</time>
      </trkpt>
      <trkpt lat="46.18804" lon="-0.54843">
        <ele>50.6</ele>
        <time>2021-03-22T13:19:05Z</time>
      </trkpt>
      <trkpt lat="46.18803" lon="-0.54855">
        <ele>50.8</ele>
        <time>2021-03-22T13:19:06Z</time>
      </trkpt>
      <trkpt lat="46.18801" lon="-0.54878">
        <ele>50.8</ele>
        <time>2021-03-22T13:19:08Z</time>
      </trkpt>
      <trkpt lat="46.188" lon="-0.5489">
        <ele>51</ele>
        <time>2021-03-22T13:19:09Z</time>
      </trkpt>
      <trkpt lat="46.18799" lon="-0.54901">
        <ele>51</ele>
        <time>2021-03-22T13:19:10Z</time>
      </trkpt>
      <trkpt lat="46.18799" lon="-0.54913">
        <ele>51.2</ele>
        <time>2021-03-22T13:19:11Z</time>
      </trkpt>
      <trkpt lat="46.18807" lon="-0.54982">
        <ele>51.6</ele>
        <time>2021-03-22T13:19:17Z</time>
      </trkpt>
      <trkpt lat="46.18819" lon="-0.55025">
        <ele>51.6</ele>
        <time>2021-03-22T13:19:21Z</time>
      </trkpt>
      <trkpt lat="46.18823" lon="-0.55034">
        <ele>51.6</ele>
        <time>2021-03-22T13:19:22Z</time>
      </trkpt>
      <trkpt lat="46.18828" lon="-0.55042">
        <ele>51.6</ele>
        <time>2021-03-22T13:19:23Z</time>
      </trkpt>
      <trkpt lat="46.18845" lon="-0.55065">
        <ele>51.8</ele>
        <time>2021-03-22T13:19:26Z</time>
      </trkpt>
      <trkpt lat="46.18851" lon="-0.55072">
        <ele>52</ele>
        <time>2021-03-22T13:19:27Z</time>
      </trkpt>
      <trkpt lat="46.18856" lon="-0.5508">
        <ele>52.4</ele>
        <time>2021-03-22T13:19:28Z</time>
      </trkpt>
      <trkpt lat="46.1886" lon="-0.55089">
        <ele>52.6</ele>
        <time>2021-03-22T13:19:29Z</time>
      </trkpt>
      <trkpt lat="46.18864" lon="-0.55098">
        <ele>52.8</ele>
        <time>2021-03-22T13:19:30Z</time>
      </trkpt>
      <trkpt lat="46.18868" lon="-0.55107">
        <ele>52.8</ele>
        <time>2021-03-22T13:19:31Z</time>
      </trkpt>
      <trkpt lat="46.18871" lon="-0.55117">
        <ele>53</ele>
        <time>2021-03-22T13:19:32Z</time>
      </trkpt>
      <trkpt lat="46.18879" lon="-0.5515">
        <ele>53.8</ele>
        <time>2021-03-22T13:19:35Z</time>
      </trkpt>
      <trkpt lat="46.18882" lon="-0.55161">
        <ele>54</ele>
        <time>2021-03-22T13:19:36Z</time>
      </trkpt>
      <trkpt lat="46.18887" lon="-0.55181">
        <ele>55.4</ele>
        <time>2021-03-22T13:19:38Z</time>
      </trkpt>
      <trkpt lat="46.18889" lon="-0.55192">
        <ele>55.8</ele>
        <time>2021-03-22T13:19:39Z</time>
      </trkpt>
      <trkpt lat="46.18892" lon="-0.55203">
        <ele>55.8</ele>
        <time>2021-03-22T13:19:40Z</time>
      </trkpt>
      <trkpt lat="46.18894" lon="-0.55214">
        <ele>56</ele>
        <time>2021-03-22T13:19:41Z</time>
      </trkpt>
      <trkpt lat="46.18896" lon="-0.55226">
        <ele>56.2</ele>
        <time>2021-03-22T13:19:42Z</time>
      </trkpt>
      <trkpt lat="46.18899" lon="-0.55237">
        <ele>56.4</ele>
        <time>2021-03-22T13:19:43Z</time>
      </trkpt>
      <trkpt lat="46.18901" lon="-0.55248">
        <ele>56.6</ele>
        <time>2021-03-22T13:19:44Z</time>
      </trkpt>
      <trkpt lat="46.18903" lon="-0.5526">
        <ele>56.8</ele>
        <time>2021-03-22T13:19:45Z</time>
      </trkpt>
      <trkpt lat="46.18904" lon="-0.55272">
        <ele>56.8</ele>
        <time>2021-03-22T13:19:46Z</time>
      </trkpt>
      <trkpt lat="46.18906" lon="-0.55283">
        <ele>57</ele>
        <time>2021-03-22T13:19:47Z</time>
      </trkpt>
      <trkpt lat="46.18906" lon="-0.55296">
        <ele>57</ele>
        <time>2021-03-22T13:19:48Z</time>
      </trkpt>
      <trkpt lat="46.18906" lon="-0.55307">
        <ele>57.2</ele>
        <time>2021-03-22T13:19:49Z</time>
      </trkpt>
      <trkpt lat="46.18906" lon="-0.55319">
        <ele>57.4</ele>
        <time>2021-03-22T13:19:50Z</time>
      </trkpt>
      <trkpt lat="46.18905" lon="-0.55331">
        <ele>57.4</ele>
        <time>2021-03-22T13:19:51Z</time>
      </trkpt>
      <trkpt lat="46.18905" lon="-0.55342">
        <ele>57.6</ele>
        <time>2021-03-22T13:19:52Z</time>
      </trkpt>
      <trkpt lat="46.18904" lon="-0.55353">
        <ele>57.6</ele>
        <time>2021-03-22T13:19:53Z</time>
      </trkpt>
      <trkpt lat="46.18904" lon="-0.55364">
        <ele>57.8</ele>
        <time>2021-03-22T13:19:54Z</time>
      </trkpt>
      <trkpt lat="46.18903" lon="-0.55374">
        <ele>57.8</ele>
        <time>2021-03-22T13:19:55Z</time>
      </trkpt>
      <trkpt lat="46.18902" lon="-0.55384">
        <ele>57.8</ele>
        <time>2021-03-22T13:19:56Z</time>
      </trkpt>
      <trkpt lat="46.18901" lon="-0.55394">
        <ele>57.8</ele>
        <time>2021-03-22T13:19:57Z</time>
      </trkpt>
      <trkpt lat="46.18901" lon="-0.55403">
        <ele>57.8</ele>
        <time>2021-03-22T13:19:58Z</time>
      </trkpt>
      <trkpt lat="46.18902" lon="-0.55413">
        <ele>57.8</ele>
        <time>2021-03-22T13:19:59Z</time>
      </trkpt>
      <trkpt lat="46.18904" lon="-0.55425">
        <ele>57.8</ele>
        <time>2021-03-22T13:20:00Z</time>
      </trkpt>
      <trkpt lat="46.18906" lon="-0.55435">
        <ele>57.8</ele>
        <time>2021-03-22T13:20:01Z</time>
      </trkpt>
      <trkpt lat="46.18909" lon="-0.55446">
        <ele>57.8</ele>
        <time>2021-03-22T13:20:02Z</time>
      </trkpt>
      <trkpt lat="46.18911" lon="-0.55455">
        <ele>57.8</ele>
        <time>2021-03-22T13:20:03Z</time>
      </trkpt>
      <trkpt lat="46.18914" lon="-0.55465">
        <ele>57.8</ele>
        <time>2021-03-22T13:20:04Z</time>
      </trkpt>
      <trkpt lat="46.18919" lon="-0.55478">
        <ele>57.8</ele>
        <time>2021-03-22T13:20:05Z</time>
      </trkpt>
      <trkpt lat="46.18923" lon="-0.55488">
        <ele>57.8</ele>
        <time>2021-03-22T13:20:06Z</time>
      </trkpt>
      <trkpt lat="46.18928" lon="-0.55498">
        <ele>57.8</ele>
        <time>2021-03-22T13:20:07Z</time>
      </trkpt>
      <trkpt lat="46.18932" lon="-0.55506">
        <ele>57.8</ele>
        <time>2021-03-22T13:20:08Z</time>
      </trkpt>
      <trkpt lat="46.18938" lon="-0.55518">
        <ele>57.8</ele>
        <time>2021-03-22T13:20:09Z</time>
      </trkpt>
      <trkpt lat="46.18948" lon="-0.55538">
        <ele>56.6</ele>
        <time>2021-03-22T13:20:11Z</time>
      </trkpt>
      <trkpt lat="46.18975" lon="-0.55594">
        <ele>55.6</ele>
        <time>2021-03-22T13:20:17Z</time>
      </trkpt>
      <trkpt lat="46.1898" lon="-0.55604">
        <ele>55.6</ele>
        <time>2021-03-22T13:20:18Z</time>
      </trkpt>
      <trkpt lat="46.18984" lon="-0.55613">
        <ele>55.8</ele>
        <time>2021-03-22T13:20:19Z</time>
      </trkpt>
      <trkpt lat="46.1899" lon="-0.55625">
        <ele>55.6</ele>
        <time>2021-03-22T13:20:20Z</time>
      </trkpt>
      <trkpt lat="46.18998" lon="-0.55642">
        <ele>55.6</ele>
        <time>2021-03-22T13:20:22Z</time>
      </trkpt>
      <trkpt lat="46.19006" lon="-0.55664">
        <ele>56</ele>
        <time>2021-03-22T13:20:24Z</time>
      </trkpt>
      <trkpt lat="46.19017" lon="-0.55692">
        <ele>56.6</ele>
        <time>2021-03-22T13:20:27Z</time>
      </trkpt>
      <trkpt lat="46.19022" lon="-0.55704">
        <ele>56.6</ele>
        <time>2021-03-22T13:20:28Z</time>
      </trkpt>
      <trkpt lat="46.19025" lon="-0.55714">
        <ele>56.8</ele>
        <time>2021-03-22T13:20:29Z</time>
      </trkpt>
      <trkpt lat="46.19034" lon="-0.5574">
        <ele>57.6</ele>
        <time>2021-03-22T13:20:32Z</time>
      </trkpt>
      <trkpt lat="46.19037" lon="-0.5575">
        <ele>57.8</ele>
        <time>2021-03-22T13:20:33Z</time>
      </trkpt>
      <trkpt lat="46.19039" lon="-0.55759">
        <ele>57.8</ele>
        <time>2021-03-22T13:20:34Z</time>
      </trkpt>
      <trkpt lat="46.19041" lon="-0.55769">
        <ele>58</ele>
        <time>2021-03-22T13:20:35Z</time>
      </trkpt>
      <trkpt lat="46.19045" lon="-0.55786">
        <ele>58.6</ele>
        <time>2021-03-22T13:20:37Z</time>
      </trkpt>
      <trkpt lat="46.19054" lon="-0.5583">
        <ele>59.6</ele>
        <time>2021-03-22T13:20:41Z</time>
      </trkpt>
      <trkpt lat="46.19056" lon="-0.55843">
        <ele>59.6</ele>
        <time>2021-03-22T13:20:42Z</time>
      </trkpt>
      <trkpt lat="46.19059" lon="-0.55855">
        <ele>59.6</ele>
        <time>2021-03-22T13:20:43Z</time>
      </trkpt>
      <trkpt lat="46.19062" lon="-0.55866">
        <ele>59.8</ele>
        <time>2021-03-22T13:20:44Z</time>
      </trkpt>
      <trkpt lat="46.19064" lon="-0.55874">
        <ele>59.8</ele>
        <time>2021-03-22T13:20:45Z</time>
      </trkpt>
      <trkpt lat="46.19067" lon="-0.55885">
        <ele>59.8</ele>
        <time>2021-03-22T13:20:46Z</time>
      </trkpt>
      <trkpt lat="46.19071" lon="-0.55898">
        <ele>60</ele>
        <time>2021-03-22T13:20:47Z</time>
      </trkpt>
      <trkpt lat="46.19074" lon="-0.55908">
        <ele>60</ele>
        <time>2021-03-22T13:20:48Z</time>
      </trkpt>
      <trkpt lat="46.19077" lon="-0.55919">
        <ele>60</ele>
        <time>2021-03-22T13:20:49Z</time>
      </trkpt>
      <trkpt lat="46.19079" lon="-0.55928">
        <ele>60</ele>
        <time>2021-03-22T13:20:50Z</time>
      </trkpt>
      <trkpt lat="46.19083" lon="-0.55941">
        <ele>60</ele>
        <time>2021-03-22T13:20:51Z</time>
      </trkpt>
      <trkpt lat="46.19086" lon="-0.5595">
        <ele>60</ele>
        <time>2021-03-22T13:20:52Z</time>
      </trkpt>
      <trkpt lat="46.1909" lon="-0.55964">
        <ele>60</ele>
        <time>2021-03-22T13:20:53Z</time>
      </trkpt>
      <trkpt lat="46.19092" lon="-0.55973">
        <ele>60</ele>
        <time>2021-03-22T13:20:54Z</time>
      </trkpt>
      <trkpt lat="46.19096" lon="-0.55985">
        <ele>59.8</ele>
        <time>2021-03-22T13:20:55Z</time>
      </trkpt>
      <trkpt lat="46.19099" lon="-0.55999">
        <ele>59.8</ele>
        <time>2021-03-22T13:20:56Z</time>
      </trkpt>
      <trkpt lat="46.19103" lon="-0.56011">
        <ele>59.8</ele>
        <time>2021-03-22T13:20:57Z</time>
      </trkpt>
      <trkpt lat="46.19106" lon="-0.56023">
        <ele>59.8</ele>
        <time>2021-03-22T13:20:58Z</time>
      </trkpt>
      <trkpt lat="46.19109" lon="-0.56032">
        <ele>59.8</ele>
        <time>2021-03-22T13:20:59Z</time>
      </trkpt>
      <trkpt lat="46.19112" lon="-0.56043">
        <ele>59.8</ele>
        <time>2021-03-22T13:21:00Z</time>
      </trkpt>
      <trkpt lat="46.19136" lon="-0.56107">
        <ele>59.6</ele>
        <time>2021-03-22T13:21:06Z</time>
      </trkpt>
      <trkpt lat="46.19141" lon="-0.56116">
        <ele>59.6</ele>
        <time>2021-03-22T13:21:07Z</time>
      </trkpt>
      <trkpt lat="46.19144" lon="-0.56123">
        <ele>59.6</ele>
        <time>2021-03-22T13:21:08Z</time>
      </trkpt>
      <trkpt lat="46.19169" lon="-0.5616">
        <ele>59.2</ele>
        <time>2021-03-22T13:21:12Z</time>
      </trkpt>
      <trkpt lat="46.19188" lon="-0.56186">
        <ele>59</ele>
        <time>2021-03-22T13:21:15Z</time>
      </trkpt>
      <trkpt lat="46.19196" lon="-0.56205">
        <ele>58.8</ele>
        <time>2021-03-22T13:21:17Z</time>
      </trkpt>
      <trkpt lat="46.19197" lon="-0.56212">
        <ele>58.8</ele>
        <time>2021-03-22T13:21:18Z</time>
      </trkpt>
      <trkpt lat="46.19198" lon="-0.56222">
        <ele>58.8</ele>
        <time>2021-03-22T13:21:19Z</time>
      </trkpt>
      <trkpt lat="46.192" lon="-0.56228">
        <ele>58.8</ele>
        <time>2021-03-22T13:21:20Z</time>
      </trkpt>
      <trkpt lat="46.19202" lon="-0.56232">
        <ele>58.8</ele>
        <time>2021-03-22T13:21:21Z</time>
      </trkpt>
      <trkpt lat="46.19205" lon="-0.56231">
        <ele>58.8</ele>
        <time>2021-03-22T13:21:22Z</time>
      </trkpt>
      <trkpt lat="46.19211" lon="-0.56228">
        <ele>59</ele>
        <time>2021-03-22T13:21:23Z</time>
      </trkpt>
      <trkpt lat="46.19223" lon="-0.56221">
        <ele>58.6</ele>
        <time>2021-03-22T13:21:25Z</time>
      </trkpt>
      <trkpt lat="46.19229" lon="-0.56218">
        <ele>58.4</ele>
        <time>2021-03-22T13:21:26Z</time>
      </trkpt>
      <trkpt lat="46.19234" lon="-0.56215">
        <ele>58</ele>
        <time>2021-03-22T13:21:27Z</time>
      </trkpt>
      <trkpt lat="46.19249" lon="-0.56206">
        <ele>57.6</ele>
        <time>2021-03-22T13:21:29Z</time>
      </trkpt>
      <trkpt lat="46.19264" lon="-0.56199">
        <ele>57.4</ele>
        <time>2021-03-22T13:21:31Z</time>
      </trkpt>
      <trkpt lat="46.19294" lon="-0.5618">
        <ele>57.2</ele>
        <time>2021-03-22T13:21:35Z</time>
      </trkpt>
      <trkpt lat="46.19301" lon="-0.56177">
        <ele>57.2</ele>
        <time>2021-03-22T13:21:36Z</time>
      </trkpt>
      <trkpt lat="46.19327" lon="-0.56164">
        <ele>56.8</ele>
        <time>2021-03-22T13:21:39Z</time>
      </trkpt>
      <trkpt lat="46.1935" lon="-0.56151">
        <ele>56.4</ele>
        <time>2021-03-22T13:21:42Z</time>
      </trkpt>
      <trkpt lat="46.19366" lon="-0.56142">
        <ele>56.4</ele>
        <time>2021-03-22T13:21:44Z</time>
      </trkpt>
      <trkpt lat="46.19401" lon="-0.56124">
        <ele>55.4</ele>
        <time>2021-03-22T13:21:48Z</time>
      </trkpt>
      <trkpt lat="46.19449" lon="-0.56097">
        <ele>54.8</ele>
        <time>2021-03-22T13:21:54Z</time>
      </trkpt>
      <trkpt lat="46.19481" lon="-0.56081">
        <ele>54.4</ele>
        <time>2021-03-22T13:21:58Z</time>
      </trkpt>
      <trkpt lat="46.19496" lon="-0.56072">
        <ele>54.2</ele>
        <time>2021-03-22T13:22:00Z</time>
      </trkpt>
      <trkpt lat="46.19501" lon="-0.56069">
        <ele>54.2</ele>
        <time>2021-03-22T13:22:01Z</time>
      </trkpt>
      <trkpt lat="46.1951" lon="-0.56065">
        <ele>54</ele>
        <time>2021-03-22T13:22:02Z</time>
      </trkpt>
      <trkpt lat="46.19517" lon="-0.56061">
        <ele>54</ele>
        <time>2021-03-22T13:22:03Z</time>
      </trkpt>
      <trkpt lat="46.19522" lon="-0.56059">
        <ele>54</ele>
        <time>2021-03-22T13:22:04Z</time>
      </trkpt>
      <trkpt lat="46.19528" lon="-0.56055">
        <ele>54</ele>
        <time>2021-03-22T13:22:05Z</time>
      </trkpt>
      <trkpt lat="46.19535" lon="-0.5605">
        <ele>53.8</ele>
        <time>2021-03-22T13:22:06Z</time>
      </trkpt>
      <trkpt lat="46.19538" lon="-0.56044">
        <ele>53.8</ele>
        <time>2021-03-22T13:22:07Z</time>
      </trkpt>
      <trkpt lat="46.19538" lon="-0.56037">
        <ele>53.8</ele>
        <time>2021-03-22T13:22:08Z</time>
      </trkpt>
      <trkpt lat="46.19537" lon="-0.5603">
        <ele>53.8</ele>
        <time>2021-03-22T13:22:09Z</time>
      </trkpt>
      <trkpt lat="46.19536" lon="-0.56022">
        <ele>53.8</ele>
        <time>2021-03-22T13:22:10Z</time>
      </trkpt>
      <trkpt lat="46.19534" lon="-0.56011">
        <ele>53.8</ele>
        <time>2021-03-22T13:22:11Z</time>
      </trkpt>
      <trkpt lat="46.19532" lon="-0.56002">
        <ele>53.8</ele>
        <time>2021-03-22T13:22:12Z</time>
      </trkpt>
      <trkpt lat="46.19531" lon="-0.55994">
        <ele>53.8</ele>
        <time>2021-03-22T13:22:13Z</time>
      </trkpt>
      <trkpt lat="46.19529" lon="-0.55981">
        <ele>53.8</ele>
        <time>2021-03-22T13:22:14Z</time>
      </trkpt>
      <trkpt lat="46.1952" lon="-0.55928">
        <ele>53.8</ele>
        <time>2021-03-22T13:22:19Z</time>
      </trkpt>
      <trkpt lat="46.19516" lon="-0.55905">
        <ele>53.8</ele>
        <time>2021-03-22T13:22:21Z</time>
      </trkpt>
      <trkpt lat="46.19514" lon="-0.55896">
        <ele>54</ele>
        <time>2021-03-22T13:22:22Z</time>
      </trkpt>
      <trkpt lat="46.19512" lon="-0.55888">
        <ele>54</ele>
        <time>2021-03-22T13:22:23Z</time>
      </trkpt>
      <trkpt lat="46.1951" lon="-0.55879">
        <ele>54</ele>
        <time>2021-03-22T13:22:24Z</time>
      </trkpt>
      <trkpt lat="46.19511" lon="-0.5587">
        <ele>54</ele>
        <time>2021-03-22T13:22:25Z</time>
      </trkpt>
      <trkpt lat="46.19513" lon="-0.55865">
        <ele>54</ele>
        <time>2021-03-22T13:22:26Z</time>
      </trkpt>
      <trkpt lat="46.19518" lon="-0.55861">
        <ele>54.2</ele>
        <time>2021-03-22T13:22:27Z</time>
      </trkpt>
      <trkpt lat="46.19523" lon="-0.55859">
        <ele>54.2</ele>
        <time>2021-03-22T13:22:28Z</time>
      </trkpt>
      <trkpt lat="46.1953" lon="-0.55859">
        <ele>54.2</ele>
        <time>2021-03-22T13:22:29Z</time>
      </trkpt>
      <trkpt lat="46.19545" lon="-0.55857">
        <ele>54</ele>
        <time>2021-03-22T13:22:31Z</time>
      </trkpt>
      <trkpt lat="46.19551" lon="-0.55856">
        <ele>54</ele>
        <time>2021-03-22T13:22:32Z</time>
      </trkpt>
      <trkpt lat="46.19559" lon="-0.55856">
        <ele>54</ele>
        <time>2021-03-22T13:22:33Z</time>
      </trkpt>
      <trkpt lat="46.19597" lon="-0.55851">
        <ele>53.4</ele>
        <time>2021-03-22T13:22:38Z</time>
      </trkpt>
      <trkpt lat="46.19607" lon="-0.55849">
        <ele>53.2</ele>
        <time>2021-03-22T13:22:39Z</time>
      </trkpt>
      <trkpt lat="46.19655" lon="-0.55843">
        <ele>52.8</ele>
        <time>2021-03-22T13:22:45Z</time>
      </trkpt>
      <trkpt lat="46.19679" lon="-0.5584">
        <ele>52.8</ele>
        <time>2021-03-22T13:22:48Z</time>
      </trkpt>
      <trkpt lat="46.19695" lon="-0.55836">
        <ele>53.2</ele>
        <time>2021-03-22T13:22:50Z</time>
      </trkpt>
      <trkpt lat="46.19709" lon="-0.55829">
        <ele>53.6</ele>
        <time>2021-03-22T13:22:52Z</time>
      </trkpt>
      <trkpt lat="46.19751" lon="-0.55793">
        <ele>54</ele>
        <time>2021-03-22T13:22:58Z</time>
      </trkpt>
      <trkpt lat="46.19766" lon="-0.55774">
        <ele>54.2</ele>
        <time>2021-03-22T13:23:01Z</time>
      </trkpt>
      <trkpt lat="46.19771" lon="-0.55765">
        <ele>54.4</ele>
        <time>2021-03-22T13:23:02Z</time>
      </trkpt>
      <trkpt lat="46.19774" lon="-0.55759">
        <ele>54.4</ele>
        <time>2021-03-22T13:23:03Z</time>
      </trkpt>
      <trkpt lat="46.19777" lon="-0.55755">
        <ele>54.4</ele>
        <time>2021-03-22T13:23:04Z</time>
      </trkpt>
      <trkpt lat="46.1978" lon="-0.55753">
        <ele>54.4</ele>
        <time>2021-03-22T13:23:05Z</time>
      </trkpt>
      <trkpt lat="46.19784" lon="-0.55755">
        <ele>54.4</ele>
        <time>2021-03-22T13:23:06Z</time>
      </trkpt>
      <trkpt lat="46.19787" lon="-0.55759">
        <ele>54.6</ele>
        <time>2021-03-22T13:23:07Z</time>
      </trkpt>
      <trkpt lat="46.19788" lon="-0.55766">
        <ele>54.6</ele>
        <time>2021-03-22T13:23:08Z</time>
      </trkpt>
      <trkpt lat="46.19793" lon="-0.55791">
        <ele>55.2</ele>
        <time>2021-03-22T13:23:11Z</time>
      </trkpt>
      <trkpt lat="46.19795" lon="-0.55799">
        <ele>55.6</ele>
        <time>2021-03-22T13:23:12Z</time>
      </trkpt>
      <trkpt lat="46.198" lon="-0.55822">
        <ele>56.6</ele>
        <time>2021-03-22T13:23:15Z</time>
      </trkpt>
      <trkpt lat="46.19802" lon="-0.55833">
        <ele>56.8</ele>
        <time>2021-03-22T13:23:16Z</time>
      </trkpt>
      <trkpt lat="46.19807" lon="-0.55854">
        <ele>56.8</ele>
        <time>2021-03-22T13:23:18Z</time>
      </trkpt>
      <trkpt lat="46.19808" lon="-0.55863">
        <ele>56.8</ele>
        <time>2021-03-22T13:23:19Z</time>
      </trkpt>
      <trkpt lat="46.19811" lon="-0.55875">
        <ele>56.8</ele>
        <time>2021-03-22T13:23:20Z</time>
      </trkpt>
      <trkpt lat="46.19814" lon="-0.55889">
        <ele>56.8</ele>
        <time>2021-03-22T13:23:21Z</time>
      </trkpt>
      <trkpt lat="46.19816" lon="-0.55901">
        <ele>56.8</ele>
        <time>2021-03-22T13:23:22Z</time>
      </trkpt>
      <trkpt lat="46.19818" lon="-0.55911">
        <ele>56.8</ele>
        <time>2021-03-22T13:23:23Z</time>
      </trkpt>
      <trkpt lat="46.1982" lon="-0.55922">
        <ele>56.8</ele>
        <time>2021-03-22T13:23:24Z</time>
      </trkpt>
      <trkpt lat="46.19823" lon="-0.55936">
        <ele>56.6</ele>
        <time>2021-03-22T13:23:25Z</time>
      </trkpt>
      <trkpt lat="46.19825" lon="-0.55948">
        <ele>56.4</ele>
        <time>2021-03-22T13:23:26Z</time>
      </trkpt>
      <trkpt lat="46.19828" lon="-0.5596">
        <ele>56</ele>
        <time>2021-03-22T13:23:27Z</time>
      </trkpt>
      <trkpt lat="46.1983" lon="-0.55969">
        <ele>55.6</ele>
        <time>2021-03-22T13:23:28Z</time>
      </trkpt>
      <trkpt lat="46.19832" lon="-0.55981">
        <ele>55</ele>
        <time>2021-03-22T13:23:29Z</time>
      </trkpt>
      <trkpt lat="46.19837" lon="-0.56006">
        <ele>54.2</ele>
        <time>2021-03-22T13:23:31Z</time>
      </trkpt>
      <trkpt lat="46.19839" lon="-0.56016">
        <ele>54.2</ele>
        <time>2021-03-22T13:23:32Z</time>
      </trkpt>
      <trkpt lat="46.1984" lon="-0.56024">
        <ele>54</ele>
        <time>2021-03-22T13:23:33Z</time>
      </trkpt>
      <trkpt lat="46.19842" lon="-0.56035">
        <ele>54</ele>
        <time>2021-03-22T13:23:34Z</time>
      </trkpt>
      <trkpt lat="46.19845" lon="-0.56047">
        <ele>53.8</ele>
        <time>2021-03-22T13:23:35Z</time>
      </trkpt>
      <trkpt lat="46.19858" lon="-0.56104">
        <ele>53.2</ele>
        <time>2021-03-22T13:23:40Z</time>
      </trkpt>
      <trkpt lat="46.19864" lon="-0.56138">
        <ele>53</ele>
        <time>2021-03-22T13:23:43Z</time>
      </trkpt>
      <trkpt lat="46.1988" lon="-0.56212">
        <ele>51.8</ele>
        <time>2021-03-22T13:23:49Z</time>
      </trkpt>
      <trkpt lat="46.19887" lon="-0.56245">
        <ele>51</ele>
        <time>2021-03-22T13:23:52Z</time>
      </trkpt>
      <trkpt lat="46.19893" lon="-0.5627">
        <ele>50.6</ele>
        <time>2021-03-22T13:23:54Z</time>
      </trkpt>
      <trkpt lat="46.19895" lon="-0.56281">
        <ele>50.6</ele>
        <time>2021-03-22T13:23:55Z</time>
      </trkpt>
      <trkpt lat="46.19906" lon="-0.56329">
        <ele>50.2</ele>
        <time>2021-03-22T13:23:59Z</time>
      </trkpt>
      <trkpt lat="46.19924" lon="-0.5641">
        <ele>49.2</ele>
        <time>2021-03-22T13:24:06Z</time>
      </trkpt>
      <trkpt lat="46.19939" lon="-0.56479">
        <ele>48.2</ele>
        <time>2021-03-22T13:24:12Z</time>
      </trkpt>
      <trkpt lat="46.19946" lon="-0.56513">
        <ele>47.6</ele>
        <time>2021-03-22T13:24:15Z</time>
      </trkpt>
      <trkpt lat="46.19949" lon="-0.56526">
        <ele>47.6</ele>
        <time>2021-03-22T13:24:16Z</time>
      </trkpt>
      <trkpt lat="46.19951" lon="-0.56536">
        <ele>47.4</ele>
        <time>2021-03-22T13:24:17Z</time>
      </trkpt>
      <trkpt lat="46.19953" lon="-0.56546">
        <ele>47.2</ele>
        <time>2021-03-22T13:24:18Z</time>
      </trkpt>
      <trkpt lat="46.19954" lon="-0.56553">
        <ele>47</ele>
        <time>2021-03-22T13:24:19Z</time>
      </trkpt>
      <trkpt lat="46.19956" lon="-0.56562">
        <ele>46.8</ele>
        <time>2021-03-22T13:24:20Z</time>
      </trkpt>
      <trkpt lat="46.19958" lon="-0.56572">
        <ele>46.8</ele>
        <time>2021-03-22T13:24:21Z</time>
      </trkpt>
      <trkpt lat="46.1996" lon="-0.56582">
        <ele>46.6</ele>
        <time>2021-03-22T13:24:22Z</time>
      </trkpt>
      <trkpt lat="46.19962" lon="-0.56592">
        <ele>46.2</ele>
        <time>2021-03-22T13:24:23Z</time>
      </trkpt>
      <trkpt lat="46.19966" lon="-0.5661">
        <ele>46</ele>
        <time>2021-03-22T13:24:25Z</time>
      </trkpt>
      <trkpt lat="46.19972" lon="-0.56635">
        <ele>45.8</ele>
        <time>2021-03-22T13:24:27Z</time>
      </trkpt>
      <trkpt lat="46.19982" lon="-0.56687">
        <ele>45.2</ele>
        <time>2021-03-22T13:24:32Z</time>
      </trkpt>
      <trkpt lat="46.19984" lon="-0.56696">
        <ele>44.6</ele>
        <time>2021-03-22T13:24:33Z</time>
      </trkpt>
      <trkpt lat="46.19987" lon="-0.56704">
        <ele>44.2</ele>
        <time>2021-03-22T13:24:34Z</time>
      </trkpt>
      <trkpt lat="46.19988" lon="-0.56712">
        <ele>44</ele>
        <time>2021-03-22T13:24:35Z</time>
      </trkpt>
      <trkpt lat="46.1999" lon="-0.56719">
        <ele>44</ele>
        <time>2021-03-22T13:24:36Z</time>
      </trkpt>
      <trkpt lat="46.19991" lon="-0.56726">
        <ele>44</ele>
        <time>2021-03-22T13:24:37Z</time>
      </trkpt>
      <trkpt lat="46.19993" lon="-0.56732">
        <ele>44</ele>
        <time>2021-03-22T13:24:38Z</time>
      </trkpt>
      <trkpt lat="46.19994" lon="-0.56739">
        <ele>44</ele>
        <time>2021-03-22T13:24:39Z</time>
      </trkpt>
      <trkpt lat="46.19995" lon="-0.56745">
        <ele>44</ele>
        <time>2021-03-22T13:24:40Z</time>
      </trkpt>
      <trkpt lat="46.19996" lon="-0.56751">
        <ele>44</ele>
        <time>2021-03-22T13:24:41Z</time>
      </trkpt>
      <trkpt lat="46.19997" lon="-0.56756">
        <ele>44</ele>
        <time>2021-03-22T13:24:42Z</time>
      </trkpt>
      <trkpt lat="46.2" lon="-0.5676">
        <ele>44</ele>
        <time>2021-03-22T13:24:43Z</time>
      </trkpt>
      <trkpt lat="46.20003" lon="-0.56761">
        <ele>44.2</ele>
        <time>2021-03-22T13:24:44Z</time>
      </trkpt>
      <trkpt lat="46.20006" lon="-0.5676">
        <ele>44.4</ele>
        <time>2021-03-22T13:24:45Z</time>
      </trkpt>
      <trkpt lat="46.20009" lon="-0.56757">
        <ele>44.6</ele>
        <time>2021-03-22T13:24:46Z</time>
      </trkpt>
      <trkpt lat="46.20021" lon="-0.56745">
        <ele>45.4</ele>
        <time>2021-03-22T13:24:49Z</time>
      </trkpt>
      <trkpt lat="46.20026" lon="-0.56741">
        <ele>45.4</ele>
        <time>2021-03-22T13:24:50Z</time>
      </trkpt>
      <trkpt lat="46.2006" lon="-0.5671">
        <ele>45.4</ele>
        <time>2021-03-22T13:24:56Z</time>
      </trkpt>
      <trkpt lat="46.20084" lon="-0.56688">
        <ele>45.2</ele>
        <time>2021-03-22T13:25:00Z</time>
      </trkpt>
      <trkpt lat="46.20102" lon="-0.56672">
        <ele>45.2</ele>
        <time>2021-03-22T13:25:03Z</time>
      </trkpt>
      <trkpt lat="46.20147" lon="-0.56633">
        <ele>45.6</ele>
        <time>2021-03-22T13:25:10Z</time>
      </trkpt>
      <trkpt lat="46.20161" lon="-0.56621">
        <ele>46</ele>
        <time>2021-03-22T13:25:12Z</time>
      </trkpt>
      <trkpt lat="46.20168" lon="-0.56615">
        <ele>46.4</ele>
        <time>2021-03-22T13:25:13Z</time>
      </trkpt>
      <trkpt lat="46.20182" lon="-0.56603">
        <ele>46.8</ele>
        <time>2021-03-22T13:25:15Z</time>
      </trkpt>
      <trkpt lat="46.20208" lon="-0.56574">
        <ele>47.4</ele>
        <time>2021-03-22T13:25:19Z</time>
      </trkpt>
      <trkpt lat="46.20247" lon="-0.56523">
        <ele>47.8</ele>
        <time>2021-03-22T13:25:26Z</time>
      </trkpt>
      <trkpt lat="46.20253" lon="-0.56516">
        <ele>48</ele>
        <time>2021-03-22T13:25:27Z</time>
      </trkpt>
      <trkpt lat="46.20258" lon="-0.5651">
        <ele>48</ele>
        <time>2021-03-22T13:25:28Z</time>
      </trkpt>
      <trkpt lat="46.20274" lon="-0.56491">
        <ele>48</ele>
        <time>2021-03-22T13:25:31Z</time>
      </trkpt>
      <trkpt lat="46.2028" lon="-0.56485">
        <ele>48.2</ele>
        <time>2021-03-22T13:25:32Z</time>
      </trkpt>
      <trkpt lat="46.20285" lon="-0.56478">
        <ele>48.2</ele>
        <time>2021-03-22T13:25:33Z</time>
      </trkpt>
      <trkpt lat="46.2029" lon="-0.56472">
        <ele>48.2</ele>
        <time>2021-03-22T13:25:34Z</time>
      </trkpt>
      <trkpt lat="46.20295" lon="-0.56466">
        <ele>48.2</ele>
        <time>2021-03-22T13:25:35Z</time>
      </trkpt>
      <trkpt lat="46.20301" lon="-0.56459">
        <ele>48.6</ele>
        <time>2021-03-22T13:25:36Z</time>
      </trkpt>
      <trkpt lat="46.20306" lon="-0.56452">
        <ele>48.8</ele>
        <time>2021-03-22T13:25:37Z</time>
      </trkpt>
      <trkpt lat="46.20329" lon="-0.56425">
        <ele>49.6</ele>
        <time>2021-03-22T13:25:41Z</time>
      </trkpt>
      <trkpt lat="46.20335" lon="-0.56418">
        <ele>49.6</ele>
        <time>2021-03-22T13:25:42Z</time>
      </trkpt>
      <trkpt lat="46.20341" lon="-0.56411">
        <ele>49.6</ele>
        <time>2021-03-22T13:25:43Z</time>
      </trkpt>
      <trkpt lat="46.20347" lon="-0.56404">
        <ele>49.8</ele>
        <time>2021-03-22T13:25:44Z</time>
      </trkpt>
      <trkpt lat="46.20353" lon="-0.56397">
        <ele>49.8</ele>
        <time>2021-03-22T13:25:45Z</time>
      </trkpt>
      <trkpt lat="46.20359" lon="-0.5639">
        <ele>49.8</ele>
        <time>2021-03-22T13:25:46Z</time>
      </trkpt>
      <trkpt lat="46.20365" lon="-0.56382">
        <ele>49.8</ele>
        <time>2021-03-22T13:25:47Z</time>
      </trkpt>
      <trkpt lat="46.20371" lon="-0.56375">
        <ele>49.8</ele>
        <time>2021-03-22T13:25:48Z</time>
      </trkpt>
      <trkpt lat="46.20377" lon="-0.56367">
        <ele>50</ele>
        <time>2021-03-22T13:25:49Z</time>
      </trkpt>
      <trkpt lat="46.20383" lon="-0.5636">
        <ele>50</ele>
        <time>2021-03-22T13:25:50Z</time>
      </trkpt>
      <trkpt lat="46.20389" lon="-0.56353">
        <ele>50.2</ele>
        <time>2021-03-22T13:25:51Z</time>
      </trkpt>
      <trkpt lat="46.20395" lon="-0.56345">
        <ele>50.2</ele>
        <time>2021-03-22T13:25:52Z</time>
      </trkpt>
      <trkpt lat="46.20401" lon="-0.56338">
        <ele>50.4</ele>
        <time>2021-03-22T13:25:53Z</time>
      </trkpt>
      <trkpt lat="46.20407" lon="-0.56331">
        <ele>50.4</ele>
        <time>2021-03-22T13:25:54Z</time>
      </trkpt>
      <trkpt lat="46.20418" lon="-0.56317">
        <ele>50.6</ele>
        <time>2021-03-22T13:25:56Z</time>
      </trkpt>
      <trkpt lat="46.2044" lon="-0.56289">
        <ele>50.8</ele>
        <time>2021-03-22T13:26:00Z</time>
      </trkpt>
      <trkpt lat="46.20445" lon="-0.56282">
        <ele>51</ele>
        <time>2021-03-22T13:26:01Z</time>
      </trkpt>
      <trkpt lat="46.2045" lon="-0.56275">
        <ele>51.2</ele>
        <time>2021-03-22T13:26:02Z</time>
      </trkpt>
      <trkpt lat="46.20455" lon="-0.56268">
        <ele>51.4</ele>
        <time>2021-03-22T13:26:03Z</time>
      </trkpt>
      <trkpt lat="46.2046" lon="-0.56261">
        <ele>51.8</ele>
        <time>2021-03-22T13:26:04Z</time>
      </trkpt>
      <trkpt lat="46.20466" lon="-0.56254">
        <ele>52.2</ele>
        <time>2021-03-22T13:26:05Z</time>
      </trkpt>
      <trkpt lat="46.20476" lon="-0.56239">
        <ele>52.8</ele>
        <time>2021-03-22T13:26:07Z</time>
      </trkpt>
      <trkpt lat="46.20481" lon="-0.56231">
        <ele>53</ele>
        <time>2021-03-22T13:26:08Z</time>
      </trkpt>
      <trkpt lat="46.20486" lon="-0.56222">
        <ele>53</ele>
        <time>2021-03-22T13:26:09Z</time>
      </trkpt>
      <trkpt lat="46.20491" lon="-0.56213">
        <ele>53.2</ele>
        <time>2021-03-22T13:26:10Z</time>
      </trkpt>
      <trkpt lat="46.20496" lon="-0.56204">
        <ele>53.4</ele>
        <time>2021-03-22T13:26:11Z</time>
      </trkpt>
      <trkpt lat="46.20501" lon="-0.56195">
        <ele>53.4</ele>
        <time>2021-03-22T13:26:12Z</time>
      </trkpt>
      <trkpt lat="46.20506" lon="-0.56185">
        <ele>53.6</ele>
        <time>2021-03-22T13:26:13Z</time>
      </trkpt>
      <trkpt lat="46.20511" lon="-0.56176">
        <ele>53.8</ele>
        <time>2021-03-22T13:26:14Z</time>
      </trkpt>
      <trkpt lat="46.20516" lon="-0.56167">
        <ele>54</ele>
        <time>2021-03-22T13:26:15Z</time>
      </trkpt>
      <trkpt lat="46.20522" lon="-0.56158">
        <ele>54</ele>
        <time>2021-03-22T13:26:16Z</time>
      </trkpt>
      <trkpt lat="46.20527" lon="-0.56149">
        <ele>54</ele>
        <time>2021-03-22T13:26:17Z</time>
      </trkpt>
      <trkpt lat="46.20533" lon="-0.56141">
        <ele>54</ele>
        <time>2021-03-22T13:26:18Z</time>
      </trkpt>
      <trkpt lat="46.20538" lon="-0.56132">
        <ele>54</ele>
        <time>2021-03-22T13:26:19Z</time>
      </trkpt>
      <trkpt lat="46.20544" lon="-0.56124">
        <ele>54</ele>
        <time>2021-03-22T13:26:20Z</time>
      </trkpt>
      <trkpt lat="46.20549" lon="-0.56115">
        <ele>54</ele>
        <time>2021-03-22T13:26:21Z</time>
      </trkpt>
      <trkpt lat="46.20555" lon="-0.56106">
        <ele>54</ele>
        <time>2021-03-22T13:26:22Z</time>
      </trkpt>
      <trkpt lat="46.2056" lon="-0.56097">
        <ele>54</ele>
        <time>2021-03-22T13:26:23Z</time>
      </trkpt>
      <trkpt lat="46.20565" lon="-0.56088">
        <ele>54</ele>
        <time>2021-03-22T13:26:24Z</time>
      </trkpt>
      <trkpt lat="46.20571" lon="-0.56079">
        <ele>53.8</ele>
        <time>2021-03-22T13:26:25Z</time>
      </trkpt>
      <trkpt lat="46.20576" lon="-0.5607">
        <ele>53.8</ele>
        <time>2021-03-22T13:26:26Z</time>
      </trkpt>
      <trkpt lat="46.20581" lon="-0.56061">
        <ele>53.8</ele>
        <time>2021-03-22T13:26:27Z</time>
      </trkpt>
      <trkpt lat="46.20586" lon="-0.56054">
        <ele>53.8</ele>
        <time>2021-03-22T13:26:28Z</time>
      </trkpt>
      <trkpt lat="46.2059" lon="-0.56046">
        <ele>53.8</ele>
        <time>2021-03-22T13:26:29Z</time>
      </trkpt>
      <trkpt lat="46.20595" lon="-0.56039">
        <ele>53.8</ele>
        <time>2021-03-22T13:26:30Z</time>
      </trkpt>
      <trkpt lat="46.20599" lon="-0.56032">
        <ele>53.8</ele>
        <time>2021-03-22T13:26:31Z</time>
      </trkpt>
      <trkpt lat="46.20602" lon="-0.56025">
        <ele>53.8</ele>
        <time>2021-03-22T13:26:32Z</time>
      </trkpt>
      <trkpt lat="46.20606" lon="-0.56019">
        <ele>53.6</ele>
        <time>2021-03-22T13:26:33Z</time>
      </trkpt>
      <trkpt lat="46.20609" lon="-0.56012">
        <ele>53.6</ele>
        <time>2021-03-22T13:26:34Z</time>
      </trkpt>
      <trkpt lat="46.20612" lon="-0.56007">
        <ele>53.6</ele>
        <time>2021-03-22T13:26:35Z</time>
      </trkpt>
      <trkpt lat="46.20614" lon="-0.56001">
        <ele>53.6</ele>
        <time>2021-03-22T13:26:36Z</time>
      </trkpt>
      <trkpt lat="46.20617" lon="-0.55996">
        <ele>53.8</ele>
        <time>2021-03-22T13:26:37Z</time>
      </trkpt>
      <trkpt lat="46.20619" lon="-0.55993">
        <ele>53.8</ele>
        <time>2021-03-22T13:26:38Z</time>
      </trkpt>
      <trkpt lat="46.20622" lon="-0.55993">
        <ele>53.8</ele>
        <time>2021-03-22T13:26:39Z</time>
      </trkpt>
      <trkpt lat="46.20625" lon="-0.55995">
        <ele>53.8</ele>
        <time>2021-03-22T13:26:40Z</time>
      </trkpt>
      <trkpt lat="46.20625" lon="-0.55996">
        <ele>54.2</ele>
        <time>2021-03-22T13:26:41Z</time>
      </trkpt>
      <trkpt lat="46.20625" lon="-0.55996">
        <ele>54.4</ele>
        <time>2021-03-22T13:26:42Z</time>
      </trkpt>
      <trkpt lat="46.20626" lon="-0.56002">
        <ele>56.6</ele>
        <time>2021-03-22T13:26:57Z</time>
      </trkpt>
      <trkpt lat="46.20628" lon="-0.56008">
        <ele>56.6</ele>
        <time>2021-03-22T13:26:58Z</time>
      </trkpt>
      <trkpt lat="46.2063" lon="-0.56015">
        <ele>56.6</ele>
        <time>2021-03-22T13:26:59Z</time>
      </trkpt>
      <trkpt lat="46.20632" lon="-0.56022">
        <ele>56.6</ele>
        <time>2021-03-22T13:27:00Z</time>
      </trkpt>
      <trkpt lat="46.20634" lon="-0.56029">
        <ele>56.6</ele>
        <time>2021-03-22T13:27:01Z</time>
      </trkpt>
      <trkpt lat="46.20635" lon="-0.56036">
        <ele>56.4</ele>
        <time>2021-03-22T13:27:02Z</time>
      </trkpt>
      <trkpt lat="46.20637" lon="-0.56043">
        <ele>56.4</ele>
        <time>2021-03-22T13:27:03Z</time>
      </trkpt>
      <trkpt lat="46.20638" lon="-0.56049">
        <ele>56.2</ele>
        <time>2021-03-22T13:27:04Z</time>
      </trkpt>
      <trkpt lat="46.20639" lon="-0.56055">
        <ele>56</ele>
        <time>2021-03-22T13:27:05Z</time>
      </trkpt>
      <trkpt lat="46.20644" lon="-0.56078">
        <ele>55.8</ele>
        <time>2021-03-22T13:27:08Z</time>
      </trkpt>
      <trkpt lat="46.20648" lon="-0.56095">
        <ele>55.6</ele>
        <time>2021-03-22T13:27:10Z</time>
      </trkpt>
      <trkpt lat="46.20658" lon="-0.56133">
        <ele>55.2</ele>
        <time>2021-03-22T13:27:14Z</time>
      </trkpt>
      <trkpt lat="46.20678" lon="-0.56181">
        <ele>54.8</ele>
        <time>2021-03-22T13:27:19Z</time>
      </trkpt>
      <trkpt lat="46.20695" lon="-0.56207">
        <ele>54.8</ele>
        <time>2021-03-22T13:27:22Z</time>
      </trkpt>
      <trkpt lat="46.20707" lon="-0.56222">
        <ele>54.6</ele>
        <time>2021-03-22T13:27:24Z</time>
      </trkpt>
      <trkpt lat="46.2073" lon="-0.56253">
        <ele>53.4</ele>
        <time>2021-03-22T13:27:28Z</time>
      </trkpt>
      <trkpt lat="46.20747" lon="-0.56276">
        <ele>53.2</ele>
        <time>2021-03-22T13:27:31Z</time>
      </trkpt>
      <trkpt lat="46.20752" lon="-0.56284">
        <ele>53</ele>
        <time>2021-03-22T13:27:32Z</time>
      </trkpt>
      <trkpt lat="46.20757" lon="-0.56291">
        <ele>52.8</ele>
        <time>2021-03-22T13:27:33Z</time>
      </trkpt>
      <trkpt lat="46.20763" lon="-0.56297">
        <ele>52.8</ele>
        <time>2021-03-22T13:27:34Z</time>
      </trkpt>
      <trkpt lat="46.20768" lon="-0.56304">
        <ele>52.6</ele>
        <time>2021-03-22T13:27:35Z</time>
      </trkpt>
      <trkpt lat="46.20779" lon="-0.56317">
        <ele>52.4</ele>
        <time>2021-03-22T13:27:37Z</time>
      </trkpt>
      <trkpt lat="46.20785" lon="-0.56325">
        <ele>52.4</ele>
        <time>2021-03-22T13:27:38Z</time>
      </trkpt>
      <trkpt lat="46.2082" lon="-0.56379">
        <ele>52</ele>
        <time>2021-03-22T13:27:45Z</time>
      </trkpt>
      <trkpt lat="46.20852" lon="-0.56435">
        <ele>52.2</ele>
        <time>2021-03-22T13:27:52Z</time>
      </trkpt>
      <trkpt lat="46.20881" lon="-0.56474">
        <ele>51.6</ele>
        <time>2021-03-22T13:27:57Z</time>
      </trkpt>
      <trkpt lat="46.20893" lon="-0.56487">
        <ele>51.4</ele>
        <time>2021-03-22T13:27:59Z</time>
      </trkpt>
      <trkpt lat="46.20899" lon="-0.56493">
        <ele>51.4</ele>
        <time>2021-03-22T13:28:00Z</time>
      </trkpt>
      <trkpt lat="46.2091" lon="-0.56505">
        <ele>51.4</ele>
        <time>2021-03-22T13:28:02Z</time>
      </trkpt>
      <trkpt lat="46.20914" lon="-0.5651">
        <ele>51.4</ele>
        <time>2021-03-22T13:28:03Z</time>
      </trkpt>
      <trkpt lat="46.20919" lon="-0.56515">
        <ele>51.4</ele>
        <time>2021-03-22T13:28:04Z</time>
      </trkpt>
      <trkpt lat="46.20923" lon="-0.56518">
        <ele>51.4</ele>
        <time>2021-03-22T13:28:05Z</time>
      </trkpt>
      <trkpt lat="46.20928" lon="-0.5652">
        <ele>51.4</ele>
        <time>2021-03-22T13:28:06Z</time>
      </trkpt>
      <trkpt lat="46.20933" lon="-0.5652">
        <ele>51.4</ele>
        <time>2021-03-22T13:28:07Z</time>
      </trkpt>
      <trkpt lat="46.20937" lon="-0.56517">
        <ele>51.4</ele>
        <time>2021-03-22T13:28:08Z</time>
      </trkpt>
      <trkpt lat="46.2094" lon="-0.56511">
        <ele>51.4</ele>
        <time>2021-03-22T13:28:09Z</time>
      </trkpt>
      <trkpt lat="46.20943" lon="-0.56503">
        <ele>51.4</ele>
        <time>2021-03-22T13:28:10Z</time>
      </trkpt>
      <trkpt lat="46.2095" lon="-0.56487">
        <ele>51.4</ele>
        <time>2021-03-22T13:28:12Z</time>
      </trkpt>
      <trkpt lat="46.20953" lon="-0.56479">
        <ele>51.4</ele>
        <time>2021-03-22T13:28:13Z</time>
      </trkpt>
      <trkpt lat="46.20958" lon="-0.5647">
        <ele>51.6</ele>
        <time>2021-03-22T13:28:14Z</time>
      </trkpt>
      <trkpt lat="46.20968" lon="-0.56454">
        <ele>51.6</ele>
        <time>2021-03-22T13:28:16Z</time>
      </trkpt>
      <trkpt lat="46.20981" lon="-0.56443">
        <ele>51.8</ele>
        <time>2021-03-22T13:28:18Z</time>
      </trkpt>
      <trkpt lat="46.20995" lon="-0.56436">
        <ele>51.8</ele>
        <time>2021-03-22T13:28:20Z</time>
      </trkpt>
      <trkpt lat="46.21003" lon="-0.56435">
        <ele>51.8</ele>
        <time>2021-03-22T13:28:21Z</time>
      </trkpt>
      <trkpt lat="46.2101" lon="-0.56434">
        <ele>51.8</ele>
        <time>2021-03-22T13:28:22Z</time>
      </trkpt>
      <trkpt lat="46.21047" lon="-0.56434">
        <ele>50.6</ele>
        <time>2021-03-22T13:28:27Z</time>
      </trkpt>
      <trkpt lat="46.21053" lon="-0.56434">
        <ele>50.6</ele>
        <time>2021-03-22T13:28:28Z</time>
      </trkpt>
      <trkpt lat="46.21059" lon="-0.56433">
        <ele>50.4</ele>
        <time>2021-03-22T13:28:29Z</time>
      </trkpt>
      <trkpt lat="46.21065" lon="-0.56432">
        <ele>50.4</ele>
        <time>2021-03-22T13:28:30Z</time>
      </trkpt>
      <trkpt lat="46.21071" lon="-0.5643">
        <ele>50.4</ele>
        <time>2021-03-22T13:28:31Z</time>
      </trkpt>
      <trkpt lat="46.21077" lon="-0.56429">
        <ele>50.4</ele>
        <time>2021-03-22T13:28:32Z</time>
      </trkpt>
      <trkpt lat="46.21084" lon="-0.56429">
        <ele>50</ele>
        <time>2021-03-22T13:28:33Z</time>
      </trkpt>
      <trkpt lat="46.21101" lon="-0.56428">
        <ele>50.2</ele>
        <time>2021-03-22T13:28:36Z</time>
      </trkpt>
      <trkpt lat="46.21104" lon="-0.56429">
        <ele>50.4</ele>
        <time>2021-03-22T13:28:37Z</time>
      </trkpt>
      <trkpt lat="46.21107" lon="-0.56434">
        <ele>50.4</ele>
        <time>2021-03-22T13:28:38Z</time>
      </trkpt>
      <trkpt lat="46.21109" lon="-0.56441">
        <ele>50.6</ele>
        <time>2021-03-22T13:28:39Z</time>
      </trkpt>
      <trkpt lat="46.2111" lon="-0.56448">
        <ele>50.8</ele>
        <time>2021-03-22T13:28:40Z</time>
      </trkpt>
      <trkpt lat="46.21109" lon="-0.56466">
        <ele>50.8</ele>
        <time>2021-03-22T13:28:42Z</time>
      </trkpt>
      <trkpt lat="46.21109" lon="-0.56484">
        <ele>51</ele>
        <time>2021-03-22T13:28:44Z</time>
      </trkpt>
      <trkpt lat="46.21109" lon="-0.56492">
        <ele>51.2</ele>
        <time>2021-03-22T13:28:45Z</time>
      </trkpt>
      <trkpt lat="46.21109" lon="-0.56499">
        <ele>51.6</ele>
        <time>2021-03-22T13:28:46Z</time>
      </trkpt>
      <trkpt lat="46.21109" lon="-0.56506">
        <ele>51.8</ele>
        <time>2021-03-22T13:28:47Z</time>
      </trkpt>
      <trkpt lat="46.21108" lon="-0.56513">
        <ele>52</ele>
        <time>2021-03-22T13:28:48Z</time>
      </trkpt>
      <trkpt lat="46.21108" lon="-0.56521">
        <ele>52.2</ele>
        <time>2021-03-22T13:28:49Z</time>
      </trkpt>
      <trkpt lat="46.21108" lon="-0.56527">
        <ele>52.4</ele>
        <time>2021-03-22T13:28:50Z</time>
      </trkpt>
      <trkpt lat="46.21108" lon="-0.56535">
        <ele>52.4</ele>
        <time>2021-03-22T13:28:51Z</time>
      </trkpt>
      <trkpt lat="46.2111" lon="-0.56575">
        <ele>52.6</ele>
        <time>2021-03-22T13:28:55Z</time>
      </trkpt>
      <trkpt lat="46.21111" lon="-0.56629">
        <ele>52.2</ele>
        <time>2021-03-22T13:29:00Z</time>
      </trkpt>
      <trkpt lat="46.21111" lon="-0.56639">
        <ele>52.4</ele>
        <time>2021-03-22T13:29:01Z</time>
      </trkpt>
      <trkpt lat="46.21111" lon="-0.56648">
        <ele>52.6</ele>
        <time>2021-03-22T13:29:02Z</time>
      </trkpt>
      <trkpt lat="46.21111" lon="-0.56656">
        <ele>52.6</ele>
        <time>2021-03-22T13:29:03Z</time>
      </trkpt>
      <trkpt lat="46.21111" lon="-0.56664">
        <ele>52.6</ele>
        <time>2021-03-22T13:29:04Z</time>
      </trkpt>
      <trkpt lat="46.21111" lon="-0.56672">
        <ele>52.6</ele>
        <time>2021-03-22T13:29:05Z</time>
      </trkpt>
      <trkpt lat="46.21112" lon="-0.56678">
        <ele>52.6</ele>
        <time>2021-03-22T13:29:06Z</time>
      </trkpt>
      <trkpt lat="46.21115" lon="-0.56683">
        <ele>52.6</ele>
        <time>2021-03-22T13:29:07Z</time>
      </trkpt>
      <trkpt lat="46.21118" lon="-0.56685">
        <ele>52.6</ele>
        <time>2021-03-22T13:29:08Z</time>
      </trkpt>
      <trkpt lat="46.21122" lon="-0.56685">
        <ele>52.6</ele>
        <time>2021-03-22T13:29:09Z</time>
      </trkpt>
      <trkpt lat="46.21127" lon="-0.56684">
        <ele>52.6</ele>
        <time>2021-03-22T13:29:10Z</time>
      </trkpt>
      <trkpt lat="46.21145" lon="-0.56679">
        <ele>52.4</ele>
        <time>2021-03-22T13:29:13Z</time>
      </trkpt>
      <trkpt lat="46.21193" lon="-0.56666">
        <ele>51.6</ele>
        <time>2021-03-22T13:29:20Z</time>
      </trkpt>
      <trkpt lat="46.212" lon="-0.56664">
        <ele>51</ele>
        <time>2021-03-22T13:29:21Z</time>
      </trkpt>
      <trkpt lat="46.21237" lon="-0.56654">
        <ele>49.8</ele>
        <time>2021-03-22T13:29:26Z</time>
      </trkpt>
      <trkpt lat="46.21252" lon="-0.56649">
        <ele>48.8</ele>
        <time>2021-03-22T13:29:28Z</time>
      </trkpt>
      <trkpt lat="46.21267" lon="-0.56645">
        <ele>48</ele>
        <time>2021-03-22T13:29:30Z</time>
      </trkpt>
      <trkpt lat="46.21281" lon="-0.5664">
        <ele>47.6</ele>
        <time>2021-03-22T13:29:32Z</time>
      </trkpt>
      <trkpt lat="46.21318" lon="-0.56628">
        <ele>46.6</ele>
        <time>2021-03-22T13:29:37Z</time>
      </trkpt>
      <trkpt lat="46.21324" lon="-0.56626">
        <ele>46.2</ele>
        <time>2021-03-22T13:29:38Z</time>
      </trkpt>
      <trkpt lat="46.2133" lon="-0.56624">
        <ele>45.8</ele>
        <time>2021-03-22T13:29:39Z</time>
      </trkpt>
      <trkpt lat="46.21337" lon="-0.56622">
        <ele>45.6</ele>
        <time>2021-03-22T13:29:40Z</time>
      </trkpt>
      <trkpt lat="46.21343" lon="-0.56619">
        <ele>45.6</ele>
        <time>2021-03-22T13:29:41Z</time>
      </trkpt>
      <trkpt lat="46.21358" lon="-0.56614">
        <ele>45.4</ele>
        <time>2021-03-22T13:29:43Z</time>
      </trkpt>
      <trkpt lat="46.21373" lon="-0.5661">
        <ele>45</ele>
        <time>2021-03-22T13:29:45Z</time>
      </trkpt>
      <trkpt lat="46.21405" lon="-0.566">
        <ele>44.2</ele>
        <time>2021-03-22T13:29:49Z</time>
      </trkpt>
      <trkpt lat="46.2143" lon="-0.56592">
        <ele>43.2</ele>
        <time>2021-03-22T13:29:52Z</time>
      </trkpt>
      <trkpt lat="46.21438" lon="-0.5659">
        <ele>42.8</ele>
        <time>2021-03-22T13:29:53Z</time>
      </trkpt>
      <trkpt lat="46.21454" lon="-0.56586">
        <ele>41.6</ele>
        <time>2021-03-22T13:29:55Z</time>
      </trkpt>
      <trkpt lat="46.21463" lon="-0.56585">
        <ele>41.2</ele>
        <time>2021-03-22T13:29:56Z</time>
      </trkpt>
      <trkpt lat="46.21471" lon="-0.56584">
        <ele>40.4</ele>
        <time>2021-03-22T13:29:57Z</time>
      </trkpt>
      <trkpt lat="46.21479" lon="-0.56585">
        <ele>39.8</ele>
        <time>2021-03-22T13:29:58Z</time>
      </trkpt>
      <trkpt lat="46.21495" lon="-0.56585">
        <ele>39.2</ele>
        <time>2021-03-22T13:30:00Z</time>
      </trkpt>
      <trkpt lat="46.21519" lon="-0.5659">
        <ele>38.8</ele>
        <time>2021-03-22T13:30:03Z</time>
      </trkpt>
      <trkpt lat="46.21552" lon="-0.56607">
        <ele>38</ele>
        <time>2021-03-22T13:30:07Z</time>
      </trkpt>
      <trkpt lat="46.21568" lon="-0.56613">
        <ele>37.4</ele>
        <time>2021-03-22T13:30:09Z</time>
      </trkpt>
      <trkpt lat="46.21576" lon="-0.56616">
        <ele>37</ele>
        <time>2021-03-22T13:30:10Z</time>
      </trkpt>
      <trkpt lat="46.21585" lon="-0.56617">
        <ele>36.6</ele>
        <time>2021-03-22T13:30:11Z</time>
      </trkpt>
      <trkpt lat="46.21602" lon="-0.56616">
        <ele>35.6</ele>
        <time>2021-03-22T13:30:13Z</time>
      </trkpt>
      <trkpt lat="46.21627" lon="-0.56614">
        <ele>34.8</ele>
        <time>2021-03-22T13:30:16Z</time>
      </trkpt>
      <trkpt lat="46.21634" lon="-0.56613">
        <ele>34.6</ele>
        <time>2021-03-22T13:30:17Z</time>
      </trkpt>
      <trkpt lat="46.21641" lon="-0.56612">
        <ele>34.4</ele>
        <time>2021-03-22T13:30:18Z</time>
      </trkpt>
      <trkpt lat="46.21649" lon="-0.56612">
        <ele>34.2</ele>
        <time>2021-03-22T13:30:19Z</time>
      </trkpt>
      <trkpt lat="46.21656" lon="-0.56611">
        <ele>34</ele>
        <time>2021-03-22T13:30:20Z</time>
      </trkpt>
      <trkpt lat="46.21689" lon="-0.56608">
        <ele>33.6</ele>
        <time>2021-03-22T13:30:24Z</time>
      </trkpt>
      <trkpt lat="46.21715" lon="-0.56605">
        <ele>33</ele>
        <time>2021-03-22T13:30:27Z</time>
      </trkpt>
      <trkpt lat="46.21748" lon="-0.56601">
        <ele>32.2</ele>
        <time>2021-03-22T13:30:31Z</time>
      </trkpt>
      <trkpt lat="46.21773" lon="-0.56597">
        <ele>31.4</ele>
        <time>2021-03-22T13:30:34Z</time>
      </trkpt>
      <trkpt lat="46.2178" lon="-0.56595">
        <ele>30.8</ele>
        <time>2021-03-22T13:30:35Z</time>
      </trkpt>
      <trkpt lat="46.21812" lon="-0.56588">
        <ele>30</ele>
        <time>2021-03-22T13:30:39Z</time>
      </trkpt>
      <trkpt lat="46.2182" lon="-0.56586">
        <ele>29.8</ele>
        <time>2021-03-22T13:30:40Z</time>
      </trkpt>
      <trkpt lat="46.21828" lon="-0.56585">
        <ele>29.6</ele>
        <time>2021-03-22T13:30:41Z</time>
      </trkpt>
      <trkpt lat="46.21852" lon="-0.56579">
        <ele>28.8</ele>
        <time>2021-03-22T13:30:44Z</time>
      </trkpt>
      <trkpt lat="46.2186" lon="-0.56578">
        <ele>28.6</ele>
        <time>2021-03-22T13:30:45Z</time>
      </trkpt>
      <trkpt lat="46.21874" lon="-0.56575">
        <ele>28.4</ele>
        <time>2021-03-22T13:30:47Z</time>
      </trkpt>
      <trkpt lat="46.2188" lon="-0.56573">
        <ele>28.2</ele>
        <time>2021-03-22T13:30:48Z</time>
      </trkpt>
      <trkpt lat="46.21886" lon="-0.56572">
        <ele>28.2</ele>
        <time>2021-03-22T13:30:49Z</time>
      </trkpt>
      <trkpt lat="46.21892" lon="-0.5657">
        <ele>27.8</ele>
        <time>2021-03-22T13:30:50Z</time>
      </trkpt>
      <trkpt lat="46.21897" lon="-0.56569">
        <ele>27.6</ele>
        <time>2021-03-22T13:30:51Z</time>
      </trkpt>
      <trkpt lat="46.21901" lon="-0.56568">
        <ele>27.6</ele>
        <time>2021-03-22T13:30:52Z</time>
      </trkpt>
      <trkpt lat="46.21904" lon="-0.5657">
        <ele>27.6</ele>
        <time>2021-03-22T13:30:53Z</time>
      </trkpt>
      <trkpt lat="46.21907" lon="-0.56573">
        <ele>27.4</ele>
        <time>2021-03-22T13:30:54Z</time>
      </trkpt>
      <trkpt lat="46.21909" lon="-0.56579">
        <ele>27.2</ele>
        <time>2021-03-22T13:30:55Z</time>
      </trkpt>
      <trkpt lat="46.2191" lon="-0.56587">
        <ele>27.2</ele>
        <time>2021-03-22T13:30:56Z</time>
      </trkpt>
      <trkpt lat="46.21911" lon="-0.56615">
        <ele>26.6</ele>
        <time>2021-03-22T13:30:59Z</time>
      </trkpt>
      <trkpt lat="46.21912" lon="-0.56626">
        <ele>26.4</ele>
        <time>2021-03-22T13:31:00Z</time>
      </trkpt>
      <trkpt lat="46.21913" lon="-0.56637">
        <ele>26.4</ele>
        <time>2021-03-22T13:31:01Z</time>
      </trkpt>
      <trkpt lat="46.21914" lon="-0.56647">
        <ele>26.4</ele>
        <time>2021-03-22T13:31:02Z</time>
      </trkpt>
      <trkpt lat="46.21919" lon="-0.56693">
        <ele>26.2</ele>
        <time>2021-03-22T13:31:06Z</time>
      </trkpt>
      <trkpt lat="46.21923" lon="-0.56718">
        <ele>25.4</ele>
        <time>2021-03-22T13:31:08Z</time>
      </trkpt>
      <trkpt lat="46.21926" lon="-0.56729">
        <ele>25</ele>
        <time>2021-03-22T13:31:09Z</time>
      </trkpt>
      <trkpt lat="46.21932" lon="-0.5675">
        <ele>24.4</ele>
        <time>2021-03-22T13:31:11Z</time>
      </trkpt>
      <trkpt lat="46.21935" lon="-0.56759">
        <ele>24.2</ele>
        <time>2021-03-22T13:31:12Z</time>
      </trkpt>
      <trkpt lat="46.21939" lon="-0.56767">
        <ele>24</ele>
        <time>2021-03-22T13:31:13Z</time>
      </trkpt>
      <trkpt lat="46.21943" lon="-0.56776">
        <ele>23.8</ele>
        <time>2021-03-22T13:31:14Z</time>
      </trkpt>
      <trkpt lat="46.21951" lon="-0.56796">
        <ele>23.4</ele>
        <time>2021-03-22T13:31:16Z</time>
      </trkpt>
      <trkpt lat="46.21954" lon="-0.56806">
        <ele>23</ele>
        <time>2021-03-22T13:31:17Z</time>
      </trkpt>
      <trkpt lat="46.21958" lon="-0.56825">
        <ele>23.2</ele>
        <time>2021-03-22T13:31:19Z</time>
      </trkpt>
      <trkpt lat="46.2196" lon="-0.56835">
        <ele>23.2</ele>
        <time>2021-03-22T13:31:20Z</time>
      </trkpt>
      <trkpt lat="46.21962" lon="-0.56843">
        <ele>23.2</ele>
        <time>2021-03-22T13:31:21Z</time>
      </trkpt>
      <trkpt lat="46.21964" lon="-0.56852">
        <ele>23.2</ele>
        <time>2021-03-22T13:31:22Z</time>
      </trkpt>
      <trkpt lat="46.21966" lon="-0.56859">
        <ele>23.2</ele>
        <time>2021-03-22T13:31:23Z</time>
      </trkpt>
      <trkpt lat="46.21969" lon="-0.56864">
        <ele>23.2</ele>
        <time>2021-03-22T13:31:24Z</time>
      </trkpt>
      <trkpt lat="46.21973" lon="-0.56865">
        <ele>23.2</ele>
        <time>2021-03-22T13:31:25Z</time>
      </trkpt>
      <trkpt lat="46.21978" lon="-0.56863">
        <ele>23</ele>
        <time>2021-03-22T13:31:26Z</time>
      </trkpt>
      <trkpt lat="46.21985" lon="-0.5686">
        <ele>23</ele>
        <time>2021-03-22T13:31:27Z</time>
      </trkpt>
      <trkpt lat="46.21999" lon="-0.56854">
        <ele>23</ele>
        <time>2021-03-22T13:31:29Z</time>
      </trkpt>
      <trkpt lat="46.22041" lon="-0.5684">
        <ele>22.6</ele>
        <time>2021-03-22T13:31:34Z</time>
      </trkpt>
      <trkpt lat="46.22058" lon="-0.56835">
        <ele>22.6</ele>
        <time>2021-03-22T13:31:36Z</time>
      </trkpt>
      <trkpt lat="46.22076" lon="-0.5683">
        <ele>22.2</ele>
        <time>2021-03-22T13:31:38Z</time>
      </trkpt>
      <trkpt lat="46.22093" lon="-0.56826">
        <ele>21.2</ele>
        <time>2021-03-22T13:31:40Z</time>
      </trkpt>
      <trkpt lat="46.22102" lon="-0.56823">
        <ele>21</ele>
        <time>2021-03-22T13:31:41Z</time>
      </trkpt>
      <trkpt lat="46.22128" lon="-0.56817">
        <ele>20</ele>
        <time>2021-03-22T13:31:44Z</time>
      </trkpt>
      <trkpt lat="46.22145" lon="-0.56812">
        <ele>19.8</ele>
        <time>2021-03-22T13:31:46Z</time>
      </trkpt>
      <trkpt lat="46.22154" lon="-0.56811">
        <ele>19.8</ele>
        <time>2021-03-22T13:31:47Z</time>
      </trkpt>
      <trkpt lat="46.22212" lon="-0.56797">
        <ele>19.2</ele>
        <time>2021-03-22T13:31:54Z</time>
      </trkpt>
      <trkpt lat="46.22236" lon="-0.56792">
        <ele>19.4</ele>
        <time>2021-03-22T13:31:57Z</time>
      </trkpt>
      <trkpt lat="46.2227" lon="-0.56784">
        <ele>19.4</ele>
        <time>2021-03-22T13:32:01Z</time>
      </trkpt>
      <trkpt lat="46.22329" lon="-0.56765">
        <ele>19</ele>
        <time>2021-03-22T13:32:08Z</time>
      </trkpt>
      <trkpt lat="46.22346" lon="-0.5676">
        <ele>19.2</ele>
        <time>2021-03-22T13:32:10Z</time>
      </trkpt>
      <trkpt lat="46.22379" lon="-0.5675">
        <ele>19.2</ele>
        <time>2021-03-22T13:32:14Z</time>
      </trkpt>
      <trkpt lat="46.22387" lon="-0.56748">
        <ele>19.2</ele>
        <time>2021-03-22T13:32:15Z</time>
      </trkpt>
      <trkpt lat="46.22403" lon="-0.56742">
        <ele>19.2</ele>
        <time>2021-03-22T13:32:17Z</time>
      </trkpt>
      <trkpt lat="46.22412" lon="-0.5674">
        <ele>19.2</ele>
        <time>2021-03-22T13:32:18Z</time>
      </trkpt>
      <trkpt lat="46.22419" lon="-0.56738">
        <ele>19.2</ele>
        <time>2021-03-22T13:32:19Z</time>
      </trkpt>
      <trkpt lat="46.22435" lon="-0.56733">
        <ele>19.2</ele>
        <time>2021-03-22T13:32:21Z</time>
      </trkpt>
      <trkpt lat="46.22443" lon="-0.56731">
        <ele>19.4</ele>
        <time>2021-03-22T13:32:22Z</time>
      </trkpt>
      <trkpt lat="46.2245" lon="-0.56729">
        <ele>19.4</ele>
        <time>2021-03-22T13:32:23Z</time>
      </trkpt>
      <trkpt lat="46.22458" lon="-0.56727">
        <ele>19.6</ele>
        <time>2021-03-22T13:32:24Z</time>
      </trkpt>
      <trkpt lat="46.22465" lon="-0.56725">
        <ele>19.6</ele>
        <time>2021-03-22T13:32:25Z</time>
      </trkpt>
      <trkpt lat="46.22472" lon="-0.56723">
        <ele>19.6</ele>
        <time>2021-03-22T13:32:26Z</time>
      </trkpt>
      <trkpt lat="46.2248" lon="-0.5672">
        <ele>19.6</ele>
        <time>2021-03-22T13:32:27Z</time>
      </trkpt>
      <trkpt lat="46.22487" lon="-0.56718">
        <ele>19.8</ele>
        <time>2021-03-22T13:32:28Z</time>
      </trkpt>
      <trkpt lat="46.22494" lon="-0.56716">
        <ele>19.8</ele>
        <time>2021-03-22T13:32:29Z</time>
      </trkpt>
      <trkpt lat="46.22502" lon="-0.56714">
        <ele>20</ele>
        <time>2021-03-22T13:32:30Z</time>
      </trkpt>
      <trkpt lat="46.22533" lon="-0.56705">
        <ele>20.4</ele>
        <time>2021-03-22T13:32:34Z</time>
      </trkpt>
      <trkpt lat="46.2254" lon="-0.56703">
        <ele>20.4</ele>
        <time>2021-03-22T13:32:35Z</time>
      </trkpt>
      <trkpt lat="46.22547" lon="-0.56701">
        <ele>20.6</ele>
        <time>2021-03-22T13:32:36Z</time>
      </trkpt>
      <trkpt lat="46.22553" lon="-0.56699">
        <ele>20.8</ele>
        <time>2021-03-22T13:32:37Z</time>
      </trkpt>
      <trkpt lat="46.22559" lon="-0.56698">
        <ele>20.8</ele>
        <time>2021-03-22T13:32:38Z</time>
      </trkpt>
      <trkpt lat="46.22565" lon="-0.56696">
        <ele>21</ele>
        <time>2021-03-22T13:32:39Z</time>
      </trkpt>
      <trkpt lat="46.2257" lon="-0.56694">
        <ele>21</ele>
        <time>2021-03-22T13:32:40Z</time>
      </trkpt>
      <trkpt lat="46.22575" lon="-0.56693">
        <ele>21</ele>
        <time>2021-03-22T13:32:41Z</time>
      </trkpt>
      <trkpt lat="46.22579" lon="-0.56692">
        <ele>21.2</ele>
        <time>2021-03-22T13:32:42Z</time>
      </trkpt>
      <trkpt lat="46.22584" lon="-0.56694">
        <ele>21.2</ele>
        <time>2021-03-22T13:32:43Z</time>
      </trkpt>
      <trkpt lat="46.22586" lon="-0.56696">
        <ele>21.2</ele>
        <time>2021-03-22T13:32:44Z</time>
      </trkpt>
      <trkpt lat="46.22588" lon="-0.56702">
        <ele>21.2</ele>
        <time>2021-03-22T13:32:45Z</time>
      </trkpt>
      <trkpt lat="46.2259" lon="-0.5671">
        <ele>21.4</ele>
        <time>2021-03-22T13:32:46Z</time>
      </trkpt>
      <trkpt lat="46.22593" lon="-0.56728">
        <ele>21.4</ele>
        <time>2021-03-22T13:32:48Z</time>
      </trkpt>
      <trkpt lat="46.22599" lon="-0.56777">
        <ele>21.4</ele>
        <time>2021-03-22T13:32:53Z</time>
      </trkpt>
      <trkpt lat="46.22601" lon="-0.56785">
        <ele>21.6</ele>
        <time>2021-03-22T13:32:54Z</time>
      </trkpt>
      <trkpt lat="46.22605" lon="-0.5679">
        <ele>21.6</ele>
        <time>2021-03-22T13:32:55Z</time>
      </trkpt>
      <trkpt lat="46.2261" lon="-0.56792">
        <ele>21.6</ele>
        <time>2021-03-22T13:32:56Z</time>
      </trkpt>
      <trkpt lat="46.22616" lon="-0.56791">
        <ele>21.6</ele>
        <time>2021-03-22T13:32:57Z</time>
      </trkpt>
      <trkpt lat="46.22622" lon="-0.5679">
        <ele>21.6</ele>
        <time>2021-03-22T13:32:58Z</time>
      </trkpt>
      <trkpt lat="46.22637" lon="-0.56786">
        <ele>21.6</ele>
        <time>2021-03-22T13:33:00Z</time>
      </trkpt>
      <trkpt lat="46.22645" lon="-0.56783">
        <ele>21.6</ele>
        <time>2021-03-22T13:33:01Z</time>
      </trkpt>
      <trkpt lat="46.22678" lon="-0.56775">
        <ele>21.4</ele>
        <time>2021-03-22T13:33:05Z</time>
      </trkpt>
      <trkpt lat="46.22694" lon="-0.56771">
        <ele>20.8</ele>
        <time>2021-03-22T13:33:07Z</time>
      </trkpt>
      <trkpt lat="46.22711" lon="-0.56767">
        <ele>19.8</ele>
        <time>2021-03-22T13:33:09Z</time>
      </trkpt>
      <trkpt lat="46.22737" lon="-0.56763">
        <ele>19</ele>
        <time>2021-03-22T13:33:12Z</time>
      </trkpt>
      <trkpt lat="46.22754" lon="-0.56761">
        <ele>18.6</ele>
        <time>2021-03-22T13:33:14Z</time>
      </trkpt>
      <trkpt lat="46.22761" lon="-0.56761">
        <ele>18.4</ele>
        <time>2021-03-22T13:33:15Z</time>
      </trkpt>
      <trkpt lat="46.22768" lon="-0.5676">
        <ele>18.2</ele>
        <time>2021-03-22T13:33:16Z</time>
      </trkpt>
      <trkpt lat="46.22776" lon="-0.5676">
        <ele>18.2</ele>
        <time>2021-03-22T13:33:17Z</time>
      </trkpt>
      <trkpt lat="46.22783" lon="-0.56759">
        <ele>18.2</ele>
        <time>2021-03-22T13:33:18Z</time>
      </trkpt>
      <trkpt lat="46.2279" lon="-0.56759">
        <ele>18</ele>
        <time>2021-03-22T13:33:19Z</time>
      </trkpt>
      <trkpt lat="46.22798" lon="-0.56758">
        <ele>18</ele>
        <time>2021-03-22T13:33:20Z</time>
      </trkpt>
      <trkpt lat="46.22806" lon="-0.56755">
        <ele>18</ele>
        <time>2021-03-22T13:33:21Z</time>
      </trkpt>
      <trkpt lat="46.22814" lon="-0.5675">
        <ele>17.8</ele>
        <time>2021-03-22T13:33:22Z</time>
      </trkpt>
      <trkpt lat="46.22828" lon="-0.5674">
        <ele>17.6</ele>
        <time>2021-03-22T13:33:24Z</time>
      </trkpt>
      <trkpt lat="46.22835" lon="-0.56735">
        <ele>17.4</ele>
        <time>2021-03-22T13:33:25Z</time>
      </trkpt>
      <trkpt lat="46.22841" lon="-0.5673">
        <ele>17.2</ele>
        <time>2021-03-22T13:33:26Z</time>
      </trkpt>
      <trkpt lat="46.22846" lon="-0.56725">
        <ele>17.2</ele>
        <time>2021-03-22T13:33:27Z</time>
      </trkpt>
      <trkpt lat="46.22851" lon="-0.56721">
        <ele>17</ele>
        <time>2021-03-22T13:33:28Z</time>
      </trkpt>
      <trkpt lat="46.22855" lon="-0.56718">
        <ele>17</ele>
        <time>2021-03-22T13:33:29Z</time>
      </trkpt>
      <trkpt lat="46.2286" lon="-0.56717">
        <ele>17</ele>
        <time>2021-03-22T13:33:30Z</time>
      </trkpt>
      <trkpt lat="46.22864" lon="-0.56719">
        <ele>17</ele>
        <time>2021-03-22T13:33:31Z</time>
      </trkpt>
      <trkpt lat="46.22867" lon="-0.56723">
        <ele>17.2</ele>
        <time>2021-03-22T13:33:32Z</time>
      </trkpt>
      <trkpt lat="46.2287" lon="-0.5673">
        <ele>17.2</ele>
        <time>2021-03-22T13:33:33Z</time>
      </trkpt>
      <trkpt lat="46.22878" lon="-0.56756">
        <ele>17</ele>
        <time>2021-03-22T13:33:36Z</time>
      </trkpt>
      <trkpt lat="46.22881" lon="-0.56765">
        <ele>17</ele>
        <time>2021-03-22T13:33:37Z</time>
      </trkpt>
      <trkpt lat="46.22897" lon="-0.56805">
        <ele>16.6</ele>
        <time>2021-03-22T13:33:41Z</time>
      </trkpt>
      <trkpt lat="46.22903" lon="-0.56824">
        <ele>16.6</ele>
        <time>2021-03-22T13:33:43Z</time>
      </trkpt>
      <trkpt lat="46.22907" lon="-0.56834">
        <ele>16.6</ele>
        <time>2021-03-22T13:33:44Z</time>
      </trkpt>
      <trkpt lat="46.22921" lon="-0.5687">
        <ele>16.8</ele>
        <time>2021-03-22T13:33:48Z</time>
      </trkpt>
      <trkpt lat="46.22924" lon="-0.56878">
        <ele>17</ele>
        <time>2021-03-22T13:33:49Z</time>
      </trkpt>
      <trkpt lat="46.22927" lon="-0.56886">
        <ele>17</ele>
        <time>2021-03-22T13:33:50Z</time>
      </trkpt>
      <trkpt lat="46.22931" lon="-0.56894">
        <ele>17</ele>
        <time>2021-03-22T13:33:51Z</time>
      </trkpt>
      <trkpt lat="46.22934" lon="-0.56902">
        <ele>17</ele>
        <time>2021-03-22T13:33:52Z</time>
      </trkpt>
      <trkpt lat="46.22951" lon="-0.56941">
        <ele>16.8</ele>
        <time>2021-03-22T13:33:57Z</time>
      </trkpt>
      <trkpt lat="46.22953" lon="-0.56949">
        <ele>17</ele>
        <time>2021-03-22T13:33:58Z</time>
      </trkpt>
      <trkpt lat="46.22955" lon="-0.56958">
        <ele>17</ele>
        <time>2021-03-22T13:33:59Z</time>
      </trkpt>
      <trkpt lat="46.22958" lon="-0.56967">
        <ele>17</ele>
        <time>2021-03-22T13:34:00Z</time>
      </trkpt>
      <trkpt lat="46.22965" lon="-0.56983">
        <ele>17</ele>
        <time>2021-03-22T13:34:02Z</time>
      </trkpt>
      <trkpt lat="46.22976" lon="-0.57008">
        <ele>17</ele>
        <time>2021-03-22T13:34:05Z</time>
      </trkpt>
      <trkpt lat="46.22979" lon="-0.57026">
        <ele>17</ele>
        <time>2021-03-22T13:34:07Z</time>
      </trkpt>
      <trkpt lat="46.2298" lon="-0.57062">
        <ele>16.8</ele>
        <time>2021-03-22T13:34:11Z</time>
      </trkpt>
      <trkpt lat="46.22981" lon="-0.57071">
        <ele>16.8</ele>
        <time>2021-03-22T13:34:12Z</time>
      </trkpt>
      <trkpt lat="46.22982" lon="-0.57079">
        <ele>16.6</ele>
        <time>2021-03-22T13:34:13Z</time>
      </trkpt>
      <trkpt lat="46.22985" lon="-0.57088">
        <ele>16.6</ele>
        <time>2021-03-22T13:34:14Z</time>
      </trkpt>
      <trkpt lat="46.22988" lon="-0.57095">
        <ele>16.6</ele>
        <time>2021-03-22T13:34:15Z</time>
      </trkpt>
      <trkpt lat="46.22992" lon="-0.57101">
        <ele>16.4</ele>
        <time>2021-03-22T13:34:16Z</time>
      </trkpt>
      <trkpt lat="46.22997" lon="-0.57105">
        <ele>16.4</ele>
        <time>2021-03-22T13:34:17Z</time>
      </trkpt>
      <trkpt lat="46.23003" lon="-0.57107">
        <ele>16.4</ele>
        <time>2021-03-22T13:34:18Z</time>
      </trkpt>
      <trkpt lat="46.23009" lon="-0.57107">
        <ele>16.4</ele>
        <time>2021-03-22T13:34:19Z</time>
      </trkpt>
      <trkpt lat="46.23013" lon="-0.57107">
        <ele>16.4</ele>
        <time>2021-03-22T13:34:20Z</time>
      </trkpt>
      <trkpt lat="46.23018" lon="-0.57107">
        <ele>16.4</ele>
        <time>2021-03-22T13:34:21Z</time>
      </trkpt>
      <trkpt lat="46.23022" lon="-0.57108">
        <ele>16.4</ele>
        <time>2021-03-22T13:34:22Z</time>
      </trkpt>
      <trkpt lat="46.23025" lon="-0.57107">
        <ele>16.4</ele>
        <time>2021-03-22T13:34:23Z</time>
      </trkpt>
      <trkpt lat="46.23028" lon="-0.57105">
        <ele>16.4</ele>
        <time>2021-03-22T13:34:24Z</time>
      </trkpt>
      <trkpt lat="46.23031" lon="-0.57102">
        <ele>16.4</ele>
        <time>2021-03-22T13:34:25Z</time>
      </trkpt>
      <trkpt lat="46.23033" lon="-0.57098">
        <ele>16.4</ele>
        <time>2021-03-22T13:34:26Z</time>
      </trkpt>
      <trkpt lat="46.23035" lon="-0.57095">
        <ele>16.4</ele>
        <time>2021-03-22T13:34:27Z</time>
      </trkpt>
      <trkpt lat="46.23037" lon="-0.5709">
        <ele>16.4</ele>
        <time>2021-03-22T13:34:28Z</time>
      </trkpt>
      <trkpt lat="46.23039" lon="-0.57086">
        <ele>16.8</ele>
        <time>2021-03-22T13:34:29Z</time>
      </trkpt>
      <trkpt lat="46.23054" lon="-0.57063">
        <ele>17.2</ele>
        <time>2021-03-22T13:34:33Z</time>
      </trkpt>
      <trkpt lat="46.23062" lon="-0.57049">
        <ele>17.2</ele>
        <time>2021-03-22T13:34:35Z</time>
      </trkpt>
      <trkpt lat="46.23069" lon="-0.57035">
        <ele>17.2</ele>
        <time>2021-03-22T13:34:37Z</time>
      </trkpt>
      <trkpt lat="46.23074" lon="-0.57028">
        <ele>17.2</ele>
        <time>2021-03-22T13:34:38Z</time>
      </trkpt>
      <trkpt lat="46.23079" lon="-0.57021">
        <ele>17</ele>
        <time>2021-03-22T13:34:39Z</time>
      </trkpt>
      <trkpt lat="46.23096" lon="-0.5699">
        <ele>16.4</ele>
        <time>2021-03-22T13:34:43Z</time>
      </trkpt>
      <trkpt lat="46.23134" lon="-0.56933">
        <ele>16</ele>
        <time>2021-03-22T13:34:51Z</time>
      </trkpt>
      <trkpt lat="46.23142" lon="-0.56921">
        <ele>15.8</ele>
        <time>2021-03-22T13:34:53Z</time>
      </trkpt>
      <trkpt lat="46.23146" lon="-0.56915">
        <ele>15.8</ele>
        <time>2021-03-22T13:34:54Z</time>
      </trkpt>
      <trkpt lat="46.2315" lon="-0.56908">
        <ele>15.8</ele>
        <time>2021-03-22T13:34:55Z</time>
      </trkpt>
      <trkpt lat="46.23153" lon="-0.56903">
        <ele>15.8</ele>
        <time>2021-03-22T13:34:56Z</time>
      </trkpt>
      <trkpt lat="46.23157" lon="-0.56897">
        <ele>15.8</ele>
        <time>2021-03-22T13:34:57Z</time>
      </trkpt>
      <trkpt lat="46.2316" lon="-0.56892">
        <ele>15.8</ele>
        <time>2021-03-22T13:34:58Z</time>
      </trkpt>
      <trkpt lat="46.23163" lon="-0.56887">
        <ele>15.8</ele>
        <time>2021-03-22T13:34:59Z</time>
      </trkpt>
      <trkpt lat="46.23166" lon="-0.56883">
        <ele>15.8</ele>
        <time>2021-03-22T13:35:00Z</time>
      </trkpt>
      <trkpt lat="46.23168" lon="-0.56879">
        <ele>15.8</ele>
        <time>2021-03-22T13:35:01Z</time>
      </trkpt>
      <trkpt lat="46.2317" lon="-0.56876">
        <ele>15.8</ele>
        <time>2021-03-22T13:35:02Z</time>
      </trkpt>
      <trkpt lat="46.23172" lon="-0.56873">
        <ele>16</ele>
        <time>2021-03-22T13:35:03Z</time>
      </trkpt>
      <trkpt lat="46.23173" lon="-0.5687">
        <ele>16.2</ele>
        <time>2021-03-22T13:35:04Z</time>
      </trkpt>
      <trkpt lat="46.23175" lon="-0.56867">
        <ele>16.6</ele>
        <time>2021-03-22T13:35:05Z</time>
      </trkpt>
      <trkpt lat="46.23178" lon="-0.56863">
        <ele>17</ele>
        <time>2021-03-22T13:35:06Z</time>
      </trkpt>
      <trkpt lat="46.23181" lon="-0.56858">
        <ele>17</ele>
        <time>2021-03-22T13:35:07Z</time>
      </trkpt>
      <trkpt lat="46.23185" lon="-0.56853">
        <ele>17.2</ele>
        <time>2021-03-22T13:35:08Z</time>
      </trkpt>
      <trkpt lat="46.23209" lon="-0.56816">
        <ele>17.2</ele>
        <time>2021-03-22T13:35:13Z</time>
      </trkpt>
      <trkpt lat="46.2323" lon="-0.56783">
        <ele>16.4</ele>
        <time>2021-03-22T13:35:17Z</time>
      </trkpt>
      <trkpt lat="46.23236" lon="-0.56775">
        <ele>16.2</ele>
        <time>2021-03-22T13:35:18Z</time>
      </trkpt>
      <trkpt lat="46.23246" lon="-0.56759">
        <ele>16</ele>
        <time>2021-03-22T13:35:20Z</time>
      </trkpt>
      <trkpt lat="46.23265" lon="-0.56728">
        <ele>15.4</ele>
        <time>2021-03-22T13:35:24Z</time>
      </trkpt>
      <trkpt lat="46.23269" lon="-0.56722">
        <ele>15.4</ele>
        <time>2021-03-22T13:35:25Z</time>
      </trkpt>
      <trkpt lat="46.23274" lon="-0.56716">
        <ele>15.4</ele>
        <time>2021-03-22T13:35:26Z</time>
      </trkpt>
      <trkpt lat="46.23279" lon="-0.56709">
        <ele>15.4</ele>
        <time>2021-03-22T13:35:27Z</time>
      </trkpt>
      <trkpt lat="46.23304" lon="-0.56672">
        <ele>15.4</ele>
        <time>2021-03-22T13:35:32Z</time>
      </trkpt>
      <trkpt lat="46.23328" lon="-0.56638">
        <ele>16</ele>
        <time>2021-03-22T13:35:37Z</time>
      </trkpt>
      <trkpt lat="46.23332" lon="-0.56632">
        <ele>16.2</ele>
        <time>2021-03-22T13:35:38Z</time>
      </trkpt>
      <trkpt lat="46.23335" lon="-0.56627">
        <ele>16.6</ele>
        <time>2021-03-22T13:35:39Z</time>
      </trkpt>
      <trkpt lat="46.23338" lon="-0.56622">
        <ele>16.8</ele>
        <time>2021-03-22T13:35:40Z</time>
      </trkpt>
      <trkpt lat="46.2334" lon="-0.56619">
        <ele>17</ele>
        <time>2021-03-22T13:35:41Z</time>
      </trkpt>
      <trkpt lat="46.23342" lon="-0.56616">
        <ele>17.2</ele>
        <time>2021-03-22T13:35:42Z</time>
      </trkpt>
      <trkpt lat="46.23343" lon="-0.56615">
        <ele>17.2</ele>
        <time>2021-03-22T13:35:43Z</time>
      </trkpt>
      <trkpt lat="46.23346" lon="-0.56614">
        <ele>17.2</ele>
        <time>2021-03-22T13:35:44Z</time>
      </trkpt>
      <trkpt lat="46.23348" lon="-0.56613">
        <ele>17.4</ele>
        <time>2021-03-22T13:35:45Z</time>
      </trkpt>
      <trkpt lat="46.23351" lon="-0.56611">
        <ele>17.4</ele>
        <time>2021-03-22T13:35:46Z</time>
      </trkpt>
      <trkpt lat="46.23357" lon="-0.56603">
        <ele>17.4</ele>
        <time>2021-03-22T13:35:48Z</time>
      </trkpt>
      <trkpt lat="46.2336" lon="-0.56596">
        <ele>17.6</ele>
        <time>2021-03-22T13:35:49Z</time>
      </trkpt>
      <trkpt lat="46.23363" lon="-0.5659">
        <ele>17.8</ele>
        <time>2021-03-22T13:35:50Z</time>
      </trkpt>
      <trkpt lat="46.23366" lon="-0.56582">
        <ele>17.8</ele>
        <time>2021-03-22T13:35:51Z</time>
      </trkpt>
      <trkpt lat="46.23372" lon="-0.56567">
        <ele>17.8</ele>
        <time>2021-03-22T13:35:53Z</time>
      </trkpt>
      <trkpt lat="46.23381" lon="-0.56546">
        <ele>18</ele>
        <time>2021-03-22T13:35:56Z</time>
      </trkpt>
      <trkpt lat="46.23384" lon="-0.56538">
        <ele>18</ele>
        <time>2021-03-22T13:35:57Z</time>
      </trkpt>
      <trkpt lat="46.23386" lon="-0.56531">
        <ele>18</ele>
        <time>2021-03-22T13:35:58Z</time>
      </trkpt>
      <trkpt lat="46.23388" lon="-0.56522">
        <ele>18</ele>
        <time>2021-03-22T13:35:59Z</time>
      </trkpt>
      <trkpt lat="46.2339" lon="-0.56505">
        <ele>18</ele>
        <time>2021-03-22T13:36:01Z</time>
      </trkpt>
      <trkpt lat="46.2339" lon="-0.56495">
        <ele>18</ele>
        <time>2021-03-22T13:36:02Z</time>
      </trkpt>
      <trkpt lat="46.23387" lon="-0.56442">
        <ele>17.6</ele>
        <time>2021-03-22T13:36:07Z</time>
      </trkpt>
      <trkpt lat="46.23386" lon="-0.56432">
        <ele>17.6</ele>
        <time>2021-03-22T13:36:08Z</time>
      </trkpt>
      <trkpt lat="46.23386" lon="-0.56423">
        <ele>17.6</ele>
        <time>2021-03-22T13:36:09Z</time>
      </trkpt>
      <trkpt lat="46.23385" lon="-0.56415">
        <ele>17.6</ele>
        <time>2021-03-22T13:36:10Z</time>
      </trkpt>
      <trkpt lat="46.23385" lon="-0.56406">
        <ele>17.6</ele>
        <time>2021-03-22T13:36:11Z</time>
      </trkpt>
      <trkpt lat="46.23384" lon="-0.56399">
        <ele>17.6</ele>
        <time>2021-03-22T13:36:12Z</time>
      </trkpt>
      <trkpt lat="46.23384" lon="-0.56392">
        <ele>17.6</ele>
        <time>2021-03-22T13:36:13Z</time>
      </trkpt>
      <trkpt lat="46.23383" lon="-0.56386">
        <ele>17.6</ele>
        <time>2021-03-22T13:36:14Z</time>
      </trkpt>
      <trkpt lat="46.23381" lon="-0.56382">
        <ele>17.6</ele>
        <time>2021-03-22T13:36:15Z</time>
      </trkpt>
      <trkpt lat="46.23381" lon="-0.56379">
        <ele>17.6</ele>
        <time>2021-03-22T13:36:16Z</time>
      </trkpt>
      <trkpt lat="46.23381" lon="-0.56375">
        <ele>17.8</ele>
        <time>2021-03-22T13:36:17Z</time>
      </trkpt>
      <trkpt lat="46.23383" lon="-0.5637">
        <ele>17.8</ele>
        <time>2021-03-22T13:36:18Z</time>
      </trkpt>
      <trkpt lat="46.23384" lon="-0.56363">
        <ele>17.8</ele>
        <time>2021-03-22T13:36:19Z</time>
      </trkpt>
      <trkpt lat="46.23384" lon="-0.56356">
        <ele>18</ele>
        <time>2021-03-22T13:36:20Z</time>
      </trkpt>
      <trkpt lat="46.23384" lon="-0.56348">
        <ele>18</ele>
        <time>2021-03-22T13:36:21Z</time>
      </trkpt>
      <trkpt lat="46.23383" lon="-0.56338">
        <ele>18.2</ele>
        <time>2021-03-22T13:36:22Z</time>
      </trkpt>
      <trkpt lat="46.23377" lon="-0.56293">
        <ele>18.2</ele>
        <time>2021-03-22T13:36:26Z</time>
      </trkpt>
      <trkpt lat="46.23371" lon="-0.56234">
        <ele>18.2</ele>
        <time>2021-03-22T13:36:31Z</time>
      </trkpt>
      <trkpt lat="46.2337" lon="-0.56223">
        <ele>18.2</ele>
        <time>2021-03-22T13:36:32Z</time>
      </trkpt>
      <trkpt lat="46.23369" lon="-0.56214">
        <ele>18</ele>
        <time>2021-03-22T13:36:33Z</time>
      </trkpt>
      <trkpt lat="46.2337" lon="-0.56206">
        <ele>17.8</ele>
        <time>2021-03-22T13:36:34Z</time>
      </trkpt>
      <trkpt lat="46.23371" lon="-0.56199">
        <ele>17.8</ele>
        <time>2021-03-22T13:36:35Z</time>
      </trkpt>
      <trkpt lat="46.2337" lon="-0.56194">
        <ele>17.8</ele>
        <time>2021-03-22T13:36:36Z</time>
      </trkpt>
      <trkpt lat="46.23368" lon="-0.56189">
        <ele>17.8</ele>
        <time>2021-03-22T13:36:37Z</time>
      </trkpt>
      <trkpt lat="46.23367" lon="-0.56184">
        <ele>17.8</ele>
        <time>2021-03-22T13:36:38Z</time>
      </trkpt>
      <trkpt lat="46.23369" lon="-0.56179">
        <ele>17.8</ele>
        <time>2021-03-22T13:36:39Z</time>
      </trkpt>
      <trkpt lat="46.2337" lon="-0.56174">
        <ele>17.6</ele>
        <time>2021-03-22T13:36:40Z</time>
      </trkpt>
      <trkpt lat="46.2337" lon="-0.56168">
        <ele>17.6</ele>
        <time>2021-03-22T13:36:41Z</time>
      </trkpt>
      <trkpt lat="46.2337" lon="-0.5616">
        <ele>17.6</ele>
        <time>2021-03-22T13:36:42Z</time>
      </trkpt>
      <trkpt lat="46.23369" lon="-0.5615">
        <ele>17.4</ele>
        <time>2021-03-22T13:36:43Z</time>
      </trkpt>
      <trkpt lat="46.23367" lon="-0.561">
        <ele>17.4</ele>
        <time>2021-03-22T13:36:48Z</time>
      </trkpt>
      <trkpt lat="46.23366" lon="-0.56091">
        <ele>17.4</ele>
        <time>2021-03-22T13:36:49Z</time>
      </trkpt>
      <trkpt lat="46.23366" lon="-0.56081">
        <ele>17.4</ele>
        <time>2021-03-22T13:36:50Z</time>
      </trkpt>
      <trkpt lat="46.23364" lon="-0.56039">
        <ele>17.4</ele>
        <time>2021-03-22T13:36:54Z</time>
      </trkpt>
      <trkpt lat="46.23364" lon="-0.55969">
        <ele>17.2</ele>
        <time>2021-03-22T13:37:00Z</time>
      </trkpt>
      <trkpt lat="46.23363" lon="-0.55958">
        <ele>17.2</ele>
        <time>2021-03-22T13:37:01Z</time>
      </trkpt>
      <trkpt lat="46.23363" lon="-0.55946">
        <ele>17</ele>
        <time>2021-03-22T13:37:02Z</time>
      </trkpt>
      <trkpt lat="46.2336" lon="-0.55891">
        <ele>17</ele>
        <time>2021-03-22T13:37:07Z</time>
      </trkpt>
      <trkpt lat="46.2336" lon="-0.5588">
        <ele>16.8</ele>
        <time>2021-03-22T13:37:08Z</time>
      </trkpt>
      <trkpt lat="46.2336" lon="-0.55869">
        <ele>16.8</ele>
        <time>2021-03-22T13:37:09Z</time>
      </trkpt>
      <trkpt lat="46.2336" lon="-0.55834">
        <ele>16.6</ele>
        <time>2021-03-22T13:37:12Z</time>
      </trkpt>
      <trkpt lat="46.23357" lon="-0.55777">
        <ele>16.4</ele>
        <time>2021-03-22T13:37:17Z</time>
      </trkpt>
      <trkpt lat="46.23356" lon="-0.55766">
        <ele>16.4</ele>
        <time>2021-03-22T13:37:18Z</time>
      </trkpt>
      <trkpt lat="46.23355" lon="-0.55707">
        <ele>16.4</ele>
        <time>2021-03-22T13:37:23Z</time>
      </trkpt>
      <trkpt lat="46.23355" lon="-0.55698">
        <ele>16.4</ele>
        <time>2021-03-22T13:37:24Z</time>
      </trkpt>
      <trkpt lat="46.23354" lon="-0.55676">
        <ele>16.4</ele>
        <time>2021-03-22T13:37:26Z</time>
      </trkpt>
      <trkpt lat="46.23355" lon="-0.5564">
        <ele>16.4</ele>
        <time>2021-03-22T13:37:29Z</time>
      </trkpt>
      <trkpt lat="46.2336" lon="-0.55556">
        <ele>16.4</ele>
        <time>2021-03-22T13:37:36Z</time>
      </trkpt>
      <trkpt lat="46.23361" lon="-0.55544">
        <ele>16.4</ele>
        <time>2021-03-22T13:37:37Z</time>
      </trkpt>
      <trkpt lat="46.23368" lon="-0.55459">
        <ele>16.4</ele>
        <time>2021-03-22T13:37:44Z</time>
      </trkpt>
      <trkpt lat="46.23371" lon="-0.55436">
        <ele>16.4</ele>
        <time>2021-03-22T13:37:46Z</time>
      </trkpt>
      <trkpt lat="46.23378" lon="-0.55378">
        <ele>16.6</ele>
        <time>2021-03-22T13:37:51Z</time>
      </trkpt>
      <trkpt lat="46.23378" lon="-0.55367">
        <ele>16.6</ele>
        <time>2021-03-22T13:37:52Z</time>
      </trkpt>
      <trkpt lat="46.23379" lon="-0.55355">
        <ele>16.6</ele>
        <time>2021-03-22T13:37:53Z</time>
      </trkpt>
      <trkpt lat="46.23379" lon="-0.55331">
        <ele>16.6</ele>
        <time>2021-03-22T13:37:55Z</time>
      </trkpt>
      <trkpt lat="46.2338" lon="-0.55296">
        <ele>16.6</ele>
        <time>2021-03-22T13:37:58Z</time>
      </trkpt>
      <trkpt lat="46.23382" lon="-0.55263">
        <ele>16.6</ele>
        <time>2021-03-22T13:38:01Z</time>
      </trkpt>
      <trkpt lat="46.23382" lon="-0.55253">
        <ele>16.8</ele>
        <time>2021-03-22T13:38:02Z</time>
      </trkpt>
      <trkpt lat="46.23383" lon="-0.55244">
        <ele>16.8</ele>
        <time>2021-03-22T13:38:03Z</time>
      </trkpt>
      <trkpt lat="46.23383" lon="-0.55235">
        <ele>16.8</ele>
        <time>2021-03-22T13:38:04Z</time>
      </trkpt>
      <trkpt lat="46.23382" lon="-0.55226">
        <ele>16.8</ele>
        <time>2021-03-22T13:38:05Z</time>
      </trkpt>
      <trkpt lat="46.2338" lon="-0.55222">
        <ele>16.8</ele>
        <time>2021-03-22T13:38:06Z</time>
      </trkpt>
      <trkpt lat="46.23376" lon="-0.55219">
        <ele>16.8</ele>
        <time>2021-03-22T13:38:07Z</time>
      </trkpt>
      <trkpt lat="46.23371" lon="-0.55219">
        <ele>16.8</ele>
        <time>2021-03-22T13:38:08Z</time>
      </trkpt>
      <trkpt lat="46.23365" lon="-0.5522">
        <ele>17</ele>
        <time>2021-03-22T13:38:09Z</time>
      </trkpt>
      <trkpt lat="46.23358" lon="-0.55221">
        <ele>17.2</ele>
        <time>2021-03-22T13:38:10Z</time>
      </trkpt>
      <trkpt lat="46.23351" lon="-0.55222">
        <ele>17.6</ele>
        <time>2021-03-22T13:38:11Z</time>
      </trkpt>
      <trkpt lat="46.23344" lon="-0.55223">
        <ele>17.6</ele>
        <time>2021-03-22T13:38:12Z</time>
      </trkpt>
      <trkpt lat="46.23319" lon="-0.55226">
        <ele>17.8</ele>
        <time>2021-03-22T13:38:15Z</time>
      </trkpt>
      <trkpt lat="46.23286" lon="-0.55232">
        <ele>17.8</ele>
        <time>2021-03-22T13:38:19Z</time>
      </trkpt>
      <trkpt lat="46.23238" lon="-0.5524">
        <ele>17.4</ele>
        <time>2021-03-22T13:38:25Z</time>
      </trkpt>
      <trkpt lat="46.2323" lon="-0.55242">
        <ele>17.4</ele>
        <time>2021-03-22T13:38:26Z</time>
      </trkpt>
      <trkpt lat="46.23223" lon="-0.55244">
        <ele>17.4</ele>
        <time>2021-03-22T13:38:27Z</time>
      </trkpt>
      <trkpt lat="46.23216" lon="-0.55245">
        <ele>17.2</ele>
        <time>2021-03-22T13:38:28Z</time>
      </trkpt>
      <trkpt lat="46.2321" lon="-0.55247">
        <ele>17.2</ele>
        <time>2021-03-22T13:38:29Z</time>
      </trkpt>
      <trkpt lat="46.23204" lon="-0.55249">
        <ele>17.2</ele>
        <time>2021-03-22T13:38:30Z</time>
      </trkpt>
      <trkpt lat="46.23199" lon="-0.55249">
        <ele>17.2</ele>
        <time>2021-03-22T13:38:31Z</time>
      </trkpt>
      <trkpt lat="46.23195" lon="-0.55246">
        <ele>17.2</ele>
        <time>2021-03-22T13:38:32Z</time>
      </trkpt>
      <trkpt lat="46.23193" lon="-0.5524">
        <ele>17.2</ele>
        <time>2021-03-22T13:38:33Z</time>
      </trkpt>
      <trkpt lat="46.23192" lon="-0.55234">
        <ele>17.2</ele>
        <time>2021-03-22T13:38:34Z</time>
      </trkpt>
      <trkpt lat="46.23193" lon="-0.55215">
        <ele>17.6</ele>
        <time>2021-03-22T13:38:36Z</time>
      </trkpt>
      <trkpt lat="46.23192" lon="-0.55205">
        <ele>18.2</ele>
        <time>2021-03-22T13:38:37Z</time>
      </trkpt>
      <trkpt lat="46.23191" lon="-0.55194">
        <ele>18.4</ele>
        <time>2021-03-22T13:38:38Z</time>
      </trkpt>
      <trkpt lat="46.23189" lon="-0.55164">
        <ele>18.8</ele>
        <time>2021-03-22T13:38:41Z</time>
      </trkpt>
      <trkpt lat="46.23187" lon="-0.55155">
        <ele>18.8</ele>
        <time>2021-03-22T13:38:42Z</time>
      </trkpt>
      <trkpt lat="46.23185" lon="-0.55146">
        <ele>18.8</ele>
        <time>2021-03-22T13:38:43Z</time>
      </trkpt>
      <trkpt lat="46.23182" lon="-0.55138">
        <ele>19</ele>
        <time>2021-03-22T13:38:44Z</time>
      </trkpt>
      <trkpt lat="46.23176" lon="-0.55133">
        <ele>19</ele>
        <time>2021-03-22T13:38:45Z</time>
      </trkpt>
      <trkpt lat="46.2317" lon="-0.5513">
        <ele>19</ele>
        <time>2021-03-22T13:38:46Z</time>
      </trkpt>
      <trkpt lat="46.23158" lon="-0.55135">
        <ele>19</ele>
        <time>2021-03-22T13:38:48Z</time>
      </trkpt>
      <trkpt lat="46.23151" lon="-0.55138">
        <ele>19</ele>
        <time>2021-03-22T13:38:49Z</time>
      </trkpt>
      <trkpt lat="46.23146" lon="-0.55139">
        <ele>19</ele>
        <time>2021-03-22T13:38:50Z</time>
      </trkpt>
      <trkpt lat="46.2314" lon="-0.55137">
        <ele>19</ele>
        <time>2021-03-22T13:38:51Z</time>
      </trkpt>
      <trkpt lat="46.23133" lon="-0.55133">
        <ele>19</ele>
        <time>2021-03-22T13:38:52Z</time>
      </trkpt>
      <trkpt lat="46.23127" lon="-0.55127">
        <ele>19</ele>
        <time>2021-03-22T13:38:53Z</time>
      </trkpt>
      <trkpt lat="46.23121" lon="-0.5512">
        <ele>19</ele>
        <time>2021-03-22T13:38:54Z</time>
      </trkpt>
      <trkpt lat="46.23114" lon="-0.55113">
        <ele>19</ele>
        <time>2021-03-22T13:38:55Z</time>
      </trkpt>
      <trkpt lat="46.23107" lon="-0.55107">
        <ele>18.8</ele>
        <time>2021-03-22T13:38:56Z</time>
      </trkpt>
      <trkpt lat="46.23086" lon="-0.5509">
        <ele>18.8</ele>
        <time>2021-03-22T13:38:59Z</time>
      </trkpt>
      <trkpt lat="46.23079" lon="-0.55084">
        <ele>18.8</ele>
        <time>2021-03-22T13:39:00Z</time>
      </trkpt>
      <trkpt lat="46.23072" lon="-0.55079">
        <ele>18.8</ele>
        <time>2021-03-22T13:39:01Z</time>
      </trkpt>
      <trkpt lat="46.23056" lon="-0.55073">
        <ele>18.6</ele>
        <time>2021-03-22T13:39:03Z</time>
      </trkpt>
      <trkpt lat="46.2304" lon="-0.55072">
        <ele>18.6</ele>
        <time>2021-03-22T13:39:05Z</time>
      </trkpt>
      <trkpt lat="46.23032" lon="-0.55075">
        <ele>18.6</ele>
        <time>2021-03-22T13:39:06Z</time>
      </trkpt>
      <trkpt lat="46.23024" lon="-0.5508">
        <ele>18.6</ele>
        <time>2021-03-22T13:39:07Z</time>
      </trkpt>
      <trkpt lat="46.23018" lon="-0.55085">
        <ele>18.6</ele>
        <time>2021-03-22T13:39:08Z</time>
      </trkpt>
      <trkpt lat="46.2301" lon="-0.55089">
        <ele>18.6</ele>
        <time>2021-03-22T13:39:09Z</time>
      </trkpt>
      <trkpt lat="46.22994" lon="-0.55098">
        <ele>18.6</ele>
        <time>2021-03-22T13:39:11Z</time>
      </trkpt>
      <trkpt lat="46.22941" lon="-0.55129">
        <ele>18.6</ele>
        <time>2021-03-22T13:39:18Z</time>
      </trkpt>
      <trkpt lat="46.22934" lon="-0.55134">
        <ele>18.6</ele>
        <time>2021-03-22T13:39:19Z</time>
      </trkpt>
      <trkpt lat="46.22919" lon="-0.55144">
        <ele>18.8</ele>
        <time>2021-03-22T13:39:21Z</time>
      </trkpt>
      <trkpt lat="46.22903" lon="-0.55151">
        <ele>18.8</ele>
        <time>2021-03-22T13:39:23Z</time>
      </trkpt>
      <trkpt lat="46.22888" lon="-0.55159">
        <ele>18.8</ele>
        <time>2021-03-22T13:39:25Z</time>
      </trkpt>
      <trkpt lat="46.22866" lon="-0.55169">
        <ele>19.2</ele>
        <time>2021-03-22T13:39:28Z</time>
      </trkpt>
      <trkpt lat="46.2286" lon="-0.55172">
        <ele>19.2</ele>
        <time>2021-03-22T13:39:29Z</time>
      </trkpt>
      <trkpt lat="46.22855" lon="-0.55173">
        <ele>19.2</ele>
        <time>2021-03-22T13:39:30Z</time>
      </trkpt>
      <trkpt lat="46.22852" lon="-0.55172">
        <ele>19.4</ele>
        <time>2021-03-22T13:39:31Z</time>
      </trkpt>
      <trkpt lat="46.22849" lon="-0.55169">
        <ele>19.6</ele>
        <time>2021-03-22T13:39:32Z</time>
      </trkpt>
      <trkpt lat="46.22849" lon="-0.55165">
        <ele>19.6</ele>
        <time>2021-03-22T13:39:33Z</time>
      </trkpt>
      <trkpt lat="46.22851" lon="-0.55159">
        <ele>19.8</ele>
        <time>2021-03-22T13:39:34Z</time>
      </trkpt>
      <trkpt lat="46.22854" lon="-0.55152">
        <ele>19.8</ele>
        <time>2021-03-22T13:39:35Z</time>
      </trkpt>
      <trkpt lat="46.22862" lon="-0.55128">
        <ele>19.8</ele>
        <time>2021-03-22T13:39:38Z</time>
      </trkpt>
      <trkpt lat="46.22865" lon="-0.55119">
        <ele>19.8</ele>
        <time>2021-03-22T13:39:39Z</time>
      </trkpt>
      <trkpt lat="46.22867" lon="-0.55098">
        <ele>19.6</ele>
        <time>2021-03-22T13:39:41Z</time>
      </trkpt>
      <trkpt lat="46.22874" lon="-0.55031">
        <ele>19</ele>
        <time>2021-03-22T13:39:47Z</time>
      </trkpt>
      <trkpt lat="46.22875" lon="-0.55021">
        <ele>19</ele>
        <time>2021-03-22T13:39:48Z</time>
      </trkpt>
      <trkpt lat="46.22876" lon="-0.55011">
        <ele>19</ele>
        <time>2021-03-22T13:39:49Z</time>
      </trkpt>
      <trkpt lat="46.22879" lon="-0.55003">
        <ele>18.8</ele>
        <time>2021-03-22T13:39:50Z</time>
      </trkpt>
      <trkpt lat="46.22883" lon="-0.54997">
        <ele>18.6</ele>
        <time>2021-03-22T13:39:51Z</time>
      </trkpt>
      <trkpt lat="46.22889" lon="-0.54992">
        <ele>18.6</ele>
        <time>2021-03-22T13:39:52Z</time>
      </trkpt>
      <trkpt lat="46.22896" lon="-0.54989">
        <ele>18.6</ele>
        <time>2021-03-22T13:39:53Z</time>
      </trkpt>
      <trkpt lat="46.22903" lon="-0.54986">
        <ele>18.4</ele>
        <time>2021-03-22T13:39:54Z</time>
      </trkpt>
      <trkpt lat="46.2291" lon="-0.54983">
        <ele>18.4</ele>
        <time>2021-03-22T13:39:55Z</time>
      </trkpt>
      <trkpt lat="46.22916" lon="-0.54979">
        <ele>18.2</ele>
        <time>2021-03-22T13:39:56Z</time>
      </trkpt>
      <trkpt lat="46.22928" lon="-0.54971">
        <ele>18.2</ele>
        <time>2021-03-22T13:39:58Z</time>
      </trkpt>
      <trkpt lat="46.22933" lon="-0.54966">
        <ele>18.2</ele>
        <time>2021-03-22T13:39:59Z</time>
      </trkpt>
      <trkpt lat="46.22937" lon="-0.54959">
        <ele>18.2</ele>
        <time>2021-03-22T13:40:00Z</time>
      </trkpt>
      <trkpt lat="46.22939" lon="-0.5495">
        <ele>18.4</ele>
        <time>2021-03-22T13:40:01Z</time>
      </trkpt>
      <trkpt lat="46.22941" lon="-0.5494">
        <ele>18.4</ele>
        <time>2021-03-22T13:40:02Z</time>
      </trkpt>
      <trkpt lat="46.22942" lon="-0.54931">
        <ele>18.4</ele>
        <time>2021-03-22T13:40:03Z</time>
      </trkpt>
      <trkpt lat="46.22943" lon="-0.54923">
        <ele>18.4</ele>
        <time>2021-03-22T13:40:04Z</time>
      </trkpt>
      <trkpt lat="46.22945" lon="-0.54915">
        <ele>18.4</ele>
        <time>2021-03-22T13:40:05Z</time>
      </trkpt>
      <trkpt lat="46.2295" lon="-0.54908">
        <ele>18.6</ele>
        <time>2021-03-22T13:40:06Z</time>
      </trkpt>
      <trkpt lat="46.22955" lon="-0.54903">
        <ele>18.6</ele>
        <time>2021-03-22T13:40:07Z</time>
      </trkpt>
      <trkpt lat="46.22962" lon="-0.54899">
        <ele>18.6</ele>
        <time>2021-03-22T13:40:08Z</time>
      </trkpt>
      <trkpt lat="46.22969" lon="-0.54895">
        <ele>18.8</ele>
        <time>2021-03-22T13:40:09Z</time>
      </trkpt>
      <trkpt lat="46.22976" lon="-0.5489">
        <ele>18.8</ele>
        <time>2021-03-22T13:40:10Z</time>
      </trkpt>
      <trkpt lat="46.22983" lon="-0.54886">
        <ele>18.8</ele>
        <time>2021-03-22T13:40:11Z</time>
      </trkpt>
      <trkpt lat="46.23003" lon="-0.54874">
        <ele>18.8</ele>
        <time>2021-03-22T13:40:14Z</time>
      </trkpt>
      <trkpt lat="46.23007" lon="-0.54867">
        <ele>19</ele>
        <time>2021-03-22T13:40:15Z</time>
      </trkpt>
      <trkpt lat="46.23008" lon="-0.54859">
        <ele>19</ele>
        <time>2021-03-22T13:40:16Z</time>
      </trkpt>
      <trkpt lat="46.23008" lon="-0.54849">
        <ele>19.2</ele>
        <time>2021-03-22T13:40:17Z</time>
      </trkpt>
      <trkpt lat="46.23005" lon="-0.5484">
        <ele>19.2</ele>
        <time>2021-03-22T13:40:18Z</time>
      </trkpt>
      <trkpt lat="46.22997" lon="-0.54809">
        <ele>19.4</ele>
        <time>2021-03-22T13:40:21Z</time>
      </trkpt>
      <trkpt lat="46.22981" lon="-0.5474">
        <ele>19.4</ele>
        <time>2021-03-22T13:40:27Z</time>
      </trkpt>
      <trkpt lat="46.22978" lon="-0.54729">
        <ele>19.4</ele>
        <time>2021-03-22T13:40:28Z</time>
      </trkpt>
      <trkpt lat="46.22962" lon="-0.54673">
        <ele>19.6</ele>
        <time>2021-03-22T13:40:33Z</time>
      </trkpt>
      <trkpt lat="46.22945" lon="-0.54603">
        <ele>19.8</ele>
        <time>2021-03-22T13:40:39Z</time>
      </trkpt>
      <trkpt lat="46.22936" lon="-0.54559">
        <ele>20</ele>
        <time>2021-03-22T13:40:43Z</time>
      </trkpt>
      <trkpt lat="46.22935" lon="-0.5455">
        <ele>20</ele>
        <time>2021-03-22T13:40:44Z</time>
      </trkpt>
      <trkpt lat="46.22932" lon="-0.54541">
        <ele>20</ele>
        <time>2021-03-22T13:40:45Z</time>
      </trkpt>
      <trkpt lat="46.2293" lon="-0.54534">
        <ele>20</ele>
        <time>2021-03-22T13:40:46Z</time>
      </trkpt>
      <trkpt lat="46.22927" lon="-0.54529">
        <ele>20.2</ele>
        <time>2021-03-22T13:40:47Z</time>
      </trkpt>
      <trkpt lat="46.22923" lon="-0.54527">
        <ele>20.2</ele>
        <time>2021-03-22T13:40:48Z</time>
      </trkpt>
      <trkpt lat="46.22918" lon="-0.54528">
        <ele>20.2</ele>
        <time>2021-03-22T13:40:49Z</time>
      </trkpt>
      <trkpt lat="46.22912" lon="-0.54528">
        <ele>20.2</ele>
        <time>2021-03-22T13:40:50Z</time>
      </trkpt>
      <trkpt lat="46.22899" lon="-0.54527">
        <ele>20.4</ele>
        <time>2021-03-22T13:40:52Z</time>
      </trkpt>
      <trkpt lat="46.22892" lon="-0.54525">
        <ele>20.4</ele>
        <time>2021-03-22T13:40:53Z</time>
      </trkpt>
      <trkpt lat="46.22886" lon="-0.54522">
        <ele>20.4</ele>
        <time>2021-03-22T13:40:54Z</time>
      </trkpt>
      <trkpt lat="46.22882" lon="-0.54516">
        <ele>20.4</ele>
        <time>2021-03-22T13:40:55Z</time>
      </trkpt>
      <trkpt lat="46.22879" lon="-0.54509">
        <ele>20.6</ele>
        <time>2021-03-22T13:40:56Z</time>
      </trkpt>
      <trkpt lat="46.22877" lon="-0.545">
        <ele>20.6</ele>
        <time>2021-03-22T13:40:57Z</time>
      </trkpt>
      <trkpt lat="46.22875" lon="-0.54491">
        <ele>20.8</ele>
        <time>2021-03-22T13:40:58Z</time>
      </trkpt>
      <trkpt lat="46.22873" lon="-0.5448">
        <ele>20.8</ele>
        <time>2021-03-22T13:40:59Z</time>
      </trkpt>
      <trkpt lat="46.22871" lon="-0.5447">
        <ele>21</ele>
        <time>2021-03-22T13:41:00Z</time>
      </trkpt>
      <trkpt lat="46.22866" lon="-0.54437">
        <ele>21.2</ele>
        <time>2021-03-22T13:41:03Z</time>
      </trkpt>
      <trkpt lat="46.22861" lon="-0.54403">
        <ele>21.2</ele>
        <time>2021-03-22T13:41:06Z</time>
      </trkpt>
      <trkpt lat="46.2286" lon="-0.54378">
        <ele>21</ele>
        <time>2021-03-22T13:41:08Z</time>
      </trkpt>
      <trkpt lat="46.22859" lon="-0.5437">
        <ele>20.8</ele>
        <time>2021-03-22T13:41:09Z</time>
      </trkpt>
      <trkpt lat="46.22859" lon="-0.54359">
        <ele>20.6</ele>
        <time>2021-03-22T13:41:10Z</time>
      </trkpt>
      <trkpt lat="46.22859" lon="-0.54348">
        <ele>20.2</ele>
        <time>2021-03-22T13:41:11Z</time>
      </trkpt>
      <trkpt lat="46.22857" lon="-0.54328">
        <ele>19.8</ele>
        <time>2021-03-22T13:41:13Z</time>
      </trkpt>
      <trkpt lat="46.22858" lon="-0.5432">
        <ele>19.8</ele>
        <time>2021-03-22T13:41:14Z</time>
      </trkpt>
      <trkpt lat="46.22855" lon="-0.54311">
        <ele>19.8</ele>
        <time>2021-03-22T13:41:15Z</time>
      </trkpt>
      <trkpt lat="46.22852" lon="-0.54304">
        <ele>19.8</ele>
        <time>2021-03-22T13:41:16Z</time>
      </trkpt>
      <trkpt lat="46.22848" lon="-0.54299">
        <ele>19.8</ele>
        <time>2021-03-22T13:41:17Z</time>
      </trkpt>
      <trkpt lat="46.22841" lon="-0.54296">
        <ele>19.8</ele>
        <time>2021-03-22T13:41:18Z</time>
      </trkpt>
      <trkpt lat="46.22834" lon="-0.54295">
        <ele>19.8</ele>
        <time>2021-03-22T13:41:19Z</time>
      </trkpt>
      <trkpt lat="46.22827" lon="-0.54296">
        <ele>19.8</ele>
        <time>2021-03-22T13:41:20Z</time>
      </trkpt>
      <trkpt lat="46.2282" lon="-0.54296">
        <ele>19.8</ele>
        <time>2021-03-22T13:41:21Z</time>
      </trkpt>
      <trkpt lat="46.22808" lon="-0.5429">
        <ele>20.2</ele>
        <time>2021-03-22T13:41:23Z</time>
      </trkpt>
      <trkpt lat="46.22806" lon="-0.54284">
        <ele>20.4</ele>
        <time>2021-03-22T13:41:24Z</time>
      </trkpt>
      <trkpt lat="46.22805" lon="-0.54275">
        <ele>20.8</ele>
        <time>2021-03-22T13:41:25Z</time>
      </trkpt>
      <trkpt lat="46.22806" lon="-0.54266">
        <ele>21</ele>
        <time>2021-03-22T13:41:26Z</time>
      </trkpt>
      <trkpt lat="46.22807" lon="-0.54257">
        <ele>21</ele>
        <time>2021-03-22T13:41:27Z</time>
      </trkpt>
      <trkpt lat="46.22808" lon="-0.54249">
        <ele>21.2</ele>
        <time>2021-03-22T13:41:28Z</time>
      </trkpt>
      <trkpt lat="46.22808" lon="-0.54242">
        <ele>21.4</ele>
        <time>2021-03-22T13:41:29Z</time>
      </trkpt>
      <trkpt lat="46.22806" lon="-0.54236">
        <ele>21.4</ele>
        <time>2021-03-22T13:41:30Z</time>
      </trkpt>
      <trkpt lat="46.22803" lon="-0.54232">
        <ele>21.4</ele>
        <time>2021-03-22T13:41:31Z</time>
      </trkpt>
      <trkpt lat="46.22798" lon="-0.5423">
        <ele>21.6</ele>
        <time>2021-03-22T13:41:32Z</time>
      </trkpt>
      <trkpt lat="46.22793" lon="-0.5423">
        <ele>21.6</ele>
        <time>2021-03-22T13:41:33Z</time>
      </trkpt>
      <trkpt lat="46.22772" lon="-0.54232">
        <ele>21.8</ele>
        <time>2021-03-22T13:41:36Z</time>
      </trkpt>
      <trkpt lat="46.22764" lon="-0.54233">
        <ele>21.8</ele>
        <time>2021-03-22T13:41:37Z</time>
      </trkpt>
      <trkpt lat="46.22732" lon="-0.54243">
        <ele>21.8</ele>
        <time>2021-03-22T13:41:41Z</time>
      </trkpt>
      <trkpt lat="46.22716" lon="-0.54249">
        <ele>21.8</ele>
        <time>2021-03-22T13:41:43Z</time>
      </trkpt>
      <trkpt lat="46.22708" lon="-0.54254">
        <ele>21.8</ele>
        <time>2021-03-22T13:41:44Z</time>
      </trkpt>
      <trkpt lat="46.22692" lon="-0.54265">
        <ele>21.8</ele>
        <time>2021-03-22T13:41:46Z</time>
      </trkpt>
      <trkpt lat="46.22678" lon="-0.54277">
        <ele>21.8</ele>
        <time>2021-03-22T13:41:48Z</time>
      </trkpt>
      <trkpt lat="46.22667" lon="-0.54293">
        <ele>21.8</ele>
        <time>2021-03-22T13:41:50Z</time>
      </trkpt>
      <trkpt lat="46.22636" lon="-0.54352">
        <ele>21.6</ele>
        <time>2021-03-22T13:41:56Z</time>
      </trkpt>
      <trkpt lat="46.22608" lon="-0.54397">
        <ele>21.8</ele>
        <time>2021-03-22T13:42:01Z</time>
      </trkpt>
      <trkpt lat="46.22602" lon="-0.54406">
        <ele>22</ele>
        <time>2021-03-22T13:42:02Z</time>
      </trkpt>
      <trkpt lat="46.22562" lon="-0.54452">
        <ele>22</ele>
        <time>2021-03-22T13:42:08Z</time>
      </trkpt>
      <trkpt lat="46.22525" lon="-0.54483">
        <ele>22.4</ele>
        <time>2021-03-22T13:42:13Z</time>
      </trkpt>
      <trkpt lat="46.22481" lon="-0.54514">
        <ele>22.8</ele>
        <time>2021-03-22T13:42:19Z</time>
      </trkpt>
      <trkpt lat="46.22473" lon="-0.54518">
        <ele>22.8</ele>
        <time>2021-03-22T13:42:20Z</time>
      </trkpt>
      <trkpt lat="46.22444" lon="-0.5454">
        <ele>23</ele>
        <time>2021-03-22T13:42:24Z</time>
      </trkpt>
      <trkpt lat="46.22438" lon="-0.54545">
        <ele>23.2</ele>
        <time>2021-03-22T13:42:25Z</time>
      </trkpt>
      <trkpt lat="46.22432" lon="-0.5455">
        <ele>23.2</ele>
        <time>2021-03-22T13:42:26Z</time>
      </trkpt>
      <trkpt lat="46.22426" lon="-0.54554">
        <ele>23.4</ele>
        <time>2021-03-22T13:42:27Z</time>
      </trkpt>
      <trkpt lat="46.22421" lon="-0.54555">
        <ele>23.6</ele>
        <time>2021-03-22T13:42:28Z</time>
      </trkpt>
      <trkpt lat="46.22416" lon="-0.54554">
        <ele>23.8</ele>
        <time>2021-03-22T13:42:29Z</time>
      </trkpt>
      <trkpt lat="46.22411" lon="-0.5455">
        <ele>23.8</ele>
        <time>2021-03-22T13:42:30Z</time>
      </trkpt>
      <trkpt lat="46.22408" lon="-0.54543">
        <ele>23.8</ele>
        <time>2021-03-22T13:42:31Z</time>
      </trkpt>
      <trkpt lat="46.22391" lon="-0.54498">
        <ele>23.8</ele>
        <time>2021-03-22T13:42:36Z</time>
      </trkpt>
      <trkpt lat="46.22368" lon="-0.54429">
        <ele>23.4</ele>
        <time>2021-03-22T13:42:44Z</time>
      </trkpt>
      <trkpt lat="46.22365" lon="-0.54419">
        <ele>23.4</ele>
        <time>2021-03-22T13:42:45Z</time>
      </trkpt>
      <trkpt lat="46.22362" lon="-0.54411">
        <ele>23.4</ele>
        <time>2021-03-22T13:42:46Z</time>
      </trkpt>
      <trkpt lat="46.2236" lon="-0.54402">
        <ele>23.4</ele>
        <time>2021-03-22T13:42:47Z</time>
      </trkpt>
      <trkpt lat="46.22358" lon="-0.54392">
        <ele>23.4</ele>
        <time>2021-03-22T13:42:48Z</time>
      </trkpt>
      <trkpt lat="46.22356" lon="-0.54384">
        <ele>23.4</ele>
        <time>2021-03-22T13:42:49Z</time>
      </trkpt>
      <trkpt lat="46.22353" lon="-0.54375">
        <ele>23.4</ele>
        <time>2021-03-22T13:42:50Z</time>
      </trkpt>
      <trkpt lat="46.22342" lon="-0.54326">
        <ele>23.6</ele>
        <time>2021-03-22T13:42:55Z</time>
      </trkpt>
      <trkpt lat="46.22338" lon="-0.54309">
        <ele>23.8</ele>
        <time>2021-03-22T13:42:57Z</time>
      </trkpt>
      <trkpt lat="46.22335" lon="-0.54291">
        <ele>24</ele>
        <time>2021-03-22T13:42:59Z</time>
      </trkpt>
      <trkpt lat="46.22321" lon="-0.54219">
        <ele>24.2</ele>
        <time>2021-03-22T13:43:07Z</time>
      </trkpt>
      <trkpt lat="46.2231" lon="-0.54155">
        <ele>24.6</ele>
        <time>2021-03-22T13:43:14Z</time>
      </trkpt>
      <trkpt lat="46.22303" lon="-0.541">
        <ele>24.6</ele>
        <time>2021-03-22T13:43:20Z</time>
      </trkpt>
      <trkpt lat="46.22298" lon="-0.54072">
        <ele>24.6</ele>
        <time>2021-03-22T13:43:23Z</time>
      </trkpt>
      <trkpt lat="46.22297" lon="-0.54063">
        <ele>24.8</ele>
        <time>2021-03-22T13:43:24Z</time>
      </trkpt>
      <trkpt lat="46.22282" lon="-0.53995">
        <ele>24.8</ele>
        <time>2021-03-22T13:43:32Z</time>
      </trkpt>
      <trkpt lat="46.2228" lon="-0.53988">
        <ele>24.8</ele>
        <time>2021-03-22T13:43:33Z</time>
      </trkpt>
      <trkpt lat="46.22278" lon="-0.53981">
        <ele>24.8</ele>
        <time>2021-03-22T13:43:34Z</time>
      </trkpt>
      <trkpt lat="46.22276" lon="-0.53976">
        <ele>24.8</ele>
        <time>2021-03-22T13:43:35Z</time>
      </trkpt>
      <trkpt lat="46.22274" lon="-0.5397">
        <ele>25</ele>
        <time>2021-03-22T13:43:36Z</time>
      </trkpt>
      <trkpt lat="46.22272" lon="-0.53966">
        <ele>25</ele>
        <time>2021-03-22T13:43:37Z</time>
      </trkpt>
      <trkpt lat="46.2227" lon="-0.53962">
        <ele>25.2</ele>
        <time>2021-03-22T13:43:38Z</time>
      </trkpt>
      <trkpt lat="46.22268" lon="-0.53957">
        <ele>25.2</ele>
        <time>2021-03-22T13:43:39Z</time>
      </trkpt>
      <trkpt lat="46.22265" lon="-0.53953">
        <ele>25.4</ele>
        <time>2021-03-22T13:43:40Z</time>
      </trkpt>
      <trkpt lat="46.22258" lon="-0.5394">
        <ele>25.4</ele>
        <time>2021-03-22T13:43:42Z</time>
      </trkpt>
      <trkpt lat="46.22253" lon="-0.53923">
        <ele>25.6</ele>
        <time>2021-03-22T13:43:44Z</time>
      </trkpt>
      <trkpt lat="46.22252" lon="-0.53914">
        <ele>25.8</ele>
        <time>2021-03-22T13:43:45Z</time>
      </trkpt>
      <trkpt lat="46.22251" lon="-0.53904">
        <ele>25.8</ele>
        <time>2021-03-22T13:43:46Z</time>
      </trkpt>
      <trkpt lat="46.22249" lon="-0.53894">
        <ele>25.8</ele>
        <time>2021-03-22T13:43:47Z</time>
      </trkpt>
      <trkpt lat="46.22247" lon="-0.53876">
        <ele>26</ele>
        <time>2021-03-22T13:43:49Z</time>
      </trkpt>
      <trkpt lat="46.22245" lon="-0.53857">
        <ele>26</ele>
        <time>2021-03-22T13:43:51Z</time>
      </trkpt>
      <trkpt lat="46.22242" lon="-0.5384">
        <ele>26.2</ele>
        <time>2021-03-22T13:43:53Z</time>
      </trkpt>
      <trkpt lat="46.2224" lon="-0.53831">
        <ele>26.2</ele>
        <time>2021-03-22T13:43:54Z</time>
      </trkpt>
      <trkpt lat="46.22239" lon="-0.53823">
        <ele>26.2</ele>
        <time>2021-03-22T13:43:55Z</time>
      </trkpt>
      <trkpt lat="46.22235" lon="-0.53795">
        <ele>26</ele>
        <time>2021-03-22T13:43:58Z</time>
      </trkpt>
      <trkpt lat="46.22225" lon="-0.53729">
        <ele>26</ele>
        <time>2021-03-22T13:44:05Z</time>
      </trkpt>
      <trkpt lat="46.22223" lon="-0.53719">
        <ele>26</ele>
        <time>2021-03-22T13:44:06Z</time>
      </trkpt>
      <trkpt lat="46.22212" lon="-0.53675">
        <ele>26</ele>
        <time>2021-03-22T13:44:11Z</time>
      </trkpt>
      <trkpt lat="46.22205" lon="-0.53659">
        <ele>26.2</ele>
        <time>2021-03-22T13:44:13Z</time>
      </trkpt>
      <trkpt lat="46.22193" lon="-0.53636">
        <ele>26.2</ele>
        <time>2021-03-22T13:44:16Z</time>
      </trkpt>
      <trkpt lat="46.22165" lon="-0.53588">
        <ele>26</ele>
        <time>2021-03-22T13:44:22Z</time>
      </trkpt>
      <trkpt lat="46.22142" lon="-0.5354">
        <ele>26.2</ele>
        <time>2021-03-22T13:44:27Z</time>
      </trkpt>
      <trkpt lat="46.22137" lon="-0.53531">
        <ele>26.2</ele>
        <time>2021-03-22T13:44:28Z</time>
      </trkpt>
      <trkpt lat="46.22126" lon="-0.53515">
        <ele>26.2</ele>
        <time>2021-03-22T13:44:30Z</time>
      </trkpt>
      <trkpt lat="46.22113" lon="-0.53503">
        <ele>26.2</ele>
        <time>2021-03-22T13:44:32Z</time>
      </trkpt>
      <trkpt lat="46.22098" lon="-0.53497">
        <ele>26.4</ele>
        <time>2021-03-22T13:44:34Z</time>
      </trkpt>
      <trkpt lat="46.2209" lon="-0.53496">
        <ele>26.4</ele>
        <time>2021-03-22T13:44:35Z</time>
      </trkpt>
      <trkpt lat="46.22082" lon="-0.53495">
        <ele>26.4</ele>
        <time>2021-03-22T13:44:36Z</time>
      </trkpt>
      <trkpt lat="46.22076" lon="-0.53495">
        <ele>26.4</ele>
        <time>2021-03-22T13:44:37Z</time>
      </trkpt>
      <trkpt lat="46.22071" lon="-0.53496">
        <ele>26.6</ele>
        <time>2021-03-22T13:44:38Z</time>
      </trkpt>
      <trkpt lat="46.22068" lon="-0.53495">
        <ele>26.8</ele>
        <time>2021-03-22T13:44:39Z</time>
      </trkpt>
      <trkpt lat="46.22066" lon="-0.53495">
        <ele>26.8</ele>
        <time>2021-03-22T13:44:40Z</time>
      </trkpt>
      <trkpt lat="46.22064" lon="-0.53495">
        <ele>27</ele>
        <time>2021-03-22T13:44:41Z</time>
      </trkpt>
      <trkpt lat="46.22064" lon="-0.53494">
        <ele>27</ele>
        <time>2021-03-22T13:44:42Z</time>
      </trkpt>
      <trkpt lat="46.22064" lon="-0.53494">
        <ele>27.2</ele>
        <time>2021-03-22T13:44:43Z</time>
      </trkpt>
      <trkpt lat="46.22058" lon="-0.53487">
        <ele>29.4</ele>
        <time>2021-03-22T13:44:57Z</time>
      </trkpt>
      <trkpt lat="46.22056" lon="-0.53484">
        <ele>29.4</ele>
        <time>2021-03-22T13:44:58Z</time>
      </trkpt>
      <trkpt lat="46.22055" lon="-0.5348">
        <ele>29.4</ele>
        <time>2021-03-22T13:44:59Z</time>
      </trkpt>
      <trkpt lat="46.22053" lon="-0.53476">
        <ele>29.4</ele>
        <time>2021-03-22T13:45:00Z</time>
      </trkpt>
      <trkpt lat="46.22051" lon="-0.53473">
        <ele>29.4</ele>
        <time>2021-03-22T13:45:01Z</time>
      </trkpt>
      <trkpt lat="46.22051" lon="-0.53472">
        <ele>29.4</ele>
        <time>2021-03-22T13:45:02Z</time>
      </trkpt>
      <trkpt lat="46.22051" lon="-0.53472">
        <ele>29.4</ele>
        <time>2021-03-22T13:45:03Z</time>
      </trkpt>
      <trkpt lat="46.22045" lon="-0.53465">
        <ele>29.6</ele>
        <time>2021-03-22T13:45:24Z</time>
      </trkpt>
      <trkpt lat="46.22041" lon="-0.5346">
        <ele>29.6</ele>
        <time>2021-03-22T13:45:25Z</time>
      </trkpt>
      <trkpt lat="46.22036" lon="-0.53455">
        <ele>29.6</ele>
        <time>2021-03-22T13:45:26Z</time>
      </trkpt>
      <trkpt lat="46.22027" lon="-0.53442">
        <ele>29.6</ele>
        <time>2021-03-22T13:45:28Z</time>
      </trkpt>
      <trkpt lat="46.21998" lon="-0.53402">
        <ele>29.4</ele>
        <time>2021-03-22T13:45:33Z</time>
      </trkpt>
      <trkpt lat="46.21986" lon="-0.53387">
        <ele>29</ele>
        <time>2021-03-22T13:45:35Z</time>
      </trkpt>
      <trkpt lat="46.21979" lon="-0.53381">
        <ele>28.6</ele>
        <time>2021-03-22T13:45:36Z</time>
      </trkpt>
      <trkpt lat="46.21971" lon="-0.53376">
        <ele>28.4</ele>
        <time>2021-03-22T13:45:37Z</time>
      </trkpt>
      <trkpt lat="46.21933" lon="-0.53355">
        <ele>28</ele>
        <time>2021-03-22T13:45:42Z</time>
      </trkpt>
      <trkpt lat="46.21925" lon="-0.53348">
        <ele>28</ele>
        <time>2021-03-22T13:45:43Z</time>
      </trkpt>
      <trkpt lat="46.21905" lon="-0.53325">
        <ele>28</ele>
        <time>2021-03-22T13:45:46Z</time>
      </trkpt>
      <trkpt lat="46.21898" lon="-0.53318">
        <ele>28</ele>
        <time>2021-03-22T13:45:47Z</time>
      </trkpt>
      <trkpt lat="46.21884" lon="-0.53305">
        <ele>28.2</ele>
        <time>2021-03-22T13:45:49Z</time>
      </trkpt>
      <trkpt lat="46.21877" lon="-0.53301">
        <ele>28.4</ele>
        <time>2021-03-22T13:45:50Z</time>
      </trkpt>
      <trkpt lat="46.21869" lon="-0.533">
        <ele>28.4</ele>
        <time>2021-03-22T13:45:51Z</time>
      </trkpt>
      <trkpt lat="46.21861" lon="-0.53301">
        <ele>28.4</ele>
        <time>2021-03-22T13:45:52Z</time>
      </trkpt>
      <trkpt lat="46.21853" lon="-0.53304">
        <ele>28.6</ele>
        <time>2021-03-22T13:45:53Z</time>
      </trkpt>
      <trkpt lat="46.21845" lon="-0.53308">
        <ele>28.6</ele>
        <time>2021-03-22T13:45:54Z</time>
      </trkpt>
      <trkpt lat="46.21838" lon="-0.53312">
        <ele>28.6</ele>
        <time>2021-03-22T13:45:55Z</time>
      </trkpt>
      <trkpt lat="46.21831" lon="-0.53316">
        <ele>28.8</ele>
        <time>2021-03-22T13:45:56Z</time>
      </trkpt>
      <trkpt lat="46.21822" lon="-0.53319">
        <ele>28.8</ele>
        <time>2021-03-22T13:45:57Z</time>
      </trkpt>
      <trkpt lat="46.21798" lon="-0.53327">
        <ele>29.2</ele>
        <time>2021-03-22T13:46:00Z</time>
      </trkpt>
      <trkpt lat="46.21782" lon="-0.53331">
        <ele>29.4</ele>
        <time>2021-03-22T13:46:02Z</time>
      </trkpt>
      <trkpt lat="46.21757" lon="-0.53331">
        <ele>29.6</ele>
        <time>2021-03-22T13:46:05Z</time>
      </trkpt>
      <trkpt lat="46.21725" lon="-0.53316">
        <ele>29.8</ele>
        <time>2021-03-22T13:46:09Z</time>
      </trkpt>
      <trkpt lat="46.21711" lon="-0.53305">
        <ele>30</ele>
        <time>2021-03-22T13:46:11Z</time>
      </trkpt>
      <trkpt lat="46.21704" lon="-0.53297">
        <ele>30.6</ele>
        <time>2021-03-22T13:46:12Z</time>
      </trkpt>
      <trkpt lat="46.21691" lon="-0.53284">
        <ele>31.6</ele>
        <time>2021-03-22T13:46:14Z</time>
      </trkpt>
      <trkpt lat="46.21684" lon="-0.53277">
        <ele>31.8</ele>
        <time>2021-03-22T13:46:15Z</time>
      </trkpt>
      <trkpt lat="46.21664" lon="-0.53257">
        <ele>32.2</ele>
        <time>2021-03-22T13:46:18Z</time>
      </trkpt>
      <trkpt lat="46.21657" lon="-0.5325">
        <ele>32.6</ele>
        <time>2021-03-22T13:46:19Z</time>
      </trkpt>
      <trkpt lat="46.2165" lon="-0.53242">
        <ele>33</ele>
        <time>2021-03-22T13:46:20Z</time>
      </trkpt>
      <trkpt lat="46.21643" lon="-0.53235">
        <ele>33.6</ele>
        <time>2021-03-22T13:46:21Z</time>
      </trkpt>
      <trkpt lat="46.21636" lon="-0.53227">
        <ele>34.2</ele>
        <time>2021-03-22T13:46:22Z</time>
      </trkpt>
      <trkpt lat="46.2163" lon="-0.5322">
        <ele>34.6</ele>
        <time>2021-03-22T13:46:23Z</time>
      </trkpt>
      <trkpt lat="46.21622" lon="-0.53212">
        <ele>34.8</ele>
        <time>2021-03-22T13:46:24Z</time>
      </trkpt>
      <trkpt lat="46.21615" lon="-0.53205">
        <ele>35</ele>
        <time>2021-03-22T13:46:25Z</time>
      </trkpt>
      <trkpt lat="46.21608" lon="-0.53198">
        <ele>35.2</ele>
        <time>2021-03-22T13:46:26Z</time>
      </trkpt>
      <trkpt lat="46.21602" lon="-0.53189">
        <ele>35.2</ele>
        <time>2021-03-22T13:46:27Z</time>
      </trkpt>
      <trkpt lat="46.21596" lon="-0.5318">
        <ele>35.4</ele>
        <time>2021-03-22T13:46:28Z</time>
      </trkpt>
      <trkpt lat="46.21587" lon="-0.5317">
        <ele>35.4</ele>
        <time>2021-03-22T13:46:29Z</time>
      </trkpt>
      <trkpt lat="46.21583" lon="-0.53163">
        <ele>35.4</ele>
        <time>2021-03-22T13:46:30Z</time>
      </trkpt>
      <trkpt lat="46.21577" lon="-0.53153">
        <ele>35.4</ele>
        <time>2021-03-22T13:46:31Z</time>
      </trkpt>
      <trkpt lat="46.2157" lon="-0.53144">
        <ele>35.4</ele>
        <time>2021-03-22T13:46:32Z</time>
      </trkpt>
      <trkpt lat="46.21565" lon="-0.53134">
        <ele>35.4</ele>
        <time>2021-03-22T13:46:33Z</time>
      </trkpt>
      <trkpt lat="46.2156" lon="-0.53124">
        <ele>35.4</ele>
        <time>2021-03-22T13:46:34Z</time>
      </trkpt>
      <trkpt lat="46.21554" lon="-0.53115">
        <ele>35.4</ele>
        <time>2021-03-22T13:46:35Z</time>
      </trkpt>
      <trkpt lat="46.21549" lon="-0.53106">
        <ele>35.2</ele>
        <time>2021-03-22T13:46:36Z</time>
      </trkpt>
      <trkpt lat="46.21545" lon="-0.53096">
        <ele>35.2</ele>
        <time>2021-03-22T13:46:37Z</time>
      </trkpt>
      <trkpt lat="46.21539" lon="-0.53086">
        <ele>35</ele>
        <time>2021-03-22T13:46:38Z</time>
      </trkpt>
      <trkpt lat="46.21534" lon="-0.53076">
        <ele>34.8</ele>
        <time>2021-03-22T13:46:39Z</time>
      </trkpt>
      <trkpt lat="46.21529" lon="-0.53065">
        <ele>34.8</ele>
        <time>2021-03-22T13:46:40Z</time>
      </trkpt>
      <trkpt lat="46.21523" lon="-0.53054">
        <ele>34.6</ele>
        <time>2021-03-22T13:46:41Z</time>
      </trkpt>
      <trkpt lat="46.21518" lon="-0.53044">
        <ele>34.4</ele>
        <time>2021-03-22T13:46:42Z</time>
      </trkpt>
      <trkpt lat="46.21512" lon="-0.53034">
        <ele>34.4</ele>
        <time>2021-03-22T13:46:43Z</time>
      </trkpt>
      <trkpt lat="46.21506" lon="-0.53025">
        <ele>34.4</ele>
        <time>2021-03-22T13:46:44Z</time>
      </trkpt>
      <trkpt lat="46.21499" lon="-0.53016">
        <ele>34.4</ele>
        <time>2021-03-22T13:46:45Z</time>
      </trkpt>
      <trkpt lat="46.21493" lon="-0.53007">
        <ele>34.2</ele>
        <time>2021-03-22T13:46:46Z</time>
      </trkpt>
      <trkpt lat="46.21457" lon="-0.5297">
        <ele>33.4</ele>
        <time>2021-03-22T13:46:51Z</time>
      </trkpt>
      <trkpt lat="46.21449" lon="-0.52965">
        <ele>33.2</ele>
        <time>2021-03-22T13:46:52Z</time>
      </trkpt>
      <trkpt lat="46.2144" lon="-0.52961">
        <ele>33</ele>
        <time>2021-03-22T13:46:53Z</time>
      </trkpt>
      <trkpt lat="46.21432" lon="-0.52959">
        <ele>33</ele>
        <time>2021-03-22T13:46:54Z</time>
      </trkpt>
      <trkpt lat="46.21415" lon="-0.52958">
        <ele>32.8</ele>
        <time>2021-03-22T13:46:56Z</time>
      </trkpt>
      <trkpt lat="46.21407" lon="-0.52958">
        <ele>32.8</ele>
        <time>2021-03-22T13:46:57Z</time>
      </trkpt>
      <trkpt lat="46.21401" lon="-0.52957">
        <ele>32.8</ele>
        <time>2021-03-22T13:46:58Z</time>
      </trkpt>
      <trkpt lat="46.21394" lon="-0.52957">
        <ele>32.8</ele>
        <time>2021-03-22T13:46:59Z</time>
      </trkpt>
      <trkpt lat="46.21388" lon="-0.52957">
        <ele>32.8</ele>
        <time>2021-03-22T13:47:00Z</time>
      </trkpt>
      <trkpt lat="46.21381" lon="-0.52956">
        <ele>32.8</ele>
        <time>2021-03-22T13:47:01Z</time>
      </trkpt>
      <trkpt lat="46.21375" lon="-0.52954">
        <ele>32.8</ele>
        <time>2021-03-22T13:47:02Z</time>
      </trkpt>
      <trkpt lat="46.21369" lon="-0.52952">
        <ele>33</ele>
        <time>2021-03-22T13:47:03Z</time>
      </trkpt>
      <trkpt lat="46.21363" lon="-0.52948">
        <ele>33.2</ele>
        <time>2021-03-22T13:47:04Z</time>
      </trkpt>
      <trkpt lat="46.21358" lon="-0.52942">
        <ele>33.4</ele>
        <time>2021-03-22T13:47:05Z</time>
      </trkpt>
      <trkpt lat="46.21347" lon="-0.52931">
        <ele>33.6</ele>
        <time>2021-03-22T13:47:07Z</time>
      </trkpt>
      <trkpt lat="46.21326" lon="-0.52907">
        <ele>34</ele>
        <time>2021-03-22T13:47:11Z</time>
      </trkpt>
      <trkpt lat="46.21304" lon="-0.52886">
        <ele>34.2</ele>
        <time>2021-03-22T13:47:15Z</time>
      </trkpt>
      <trkpt lat="46.21274" lon="-0.52871">
        <ele>36</ele>
        <time>2021-03-22T13:47:20Z</time>
      </trkpt>
      <trkpt lat="46.21268" lon="-0.5287">
        <ele>35.4</ele>
        <time>2021-03-22T13:47:21Z</time>
      </trkpt>
      <trkpt lat="46.21255" lon="-0.5287">
        <ele>35.8</ele>
        <time>2021-03-22T13:47:23Z</time>
      </trkpt>
      <trkpt lat="46.21248" lon="-0.52873">
        <ele>36</ele>
        <time>2021-03-22T13:47:24Z</time>
      </trkpt>
      <trkpt lat="46.21242" lon="-0.52877">
        <ele>36</ele>
        <time>2021-03-22T13:47:25Z</time>
      </trkpt>
      <trkpt lat="46.21237" lon="-0.52882">
        <ele>36</ele>
        <time>2021-03-22T13:47:26Z</time>
      </trkpt>
      <trkpt lat="46.21231" lon="-0.52889">
        <ele>36</ele>
        <time>2021-03-22T13:47:27Z</time>
      </trkpt>
      <trkpt lat="46.21225" lon="-0.52895">
        <ele>36</ele>
        <time>2021-03-22T13:47:28Z</time>
      </trkpt>
      <trkpt lat="46.21208" lon="-0.52915">
        <ele>36</ele>
        <time>2021-03-22T13:47:31Z</time>
      </trkpt>
      <trkpt lat="46.21204" lon="-0.52922">
        <ele>36</ele>
        <time>2021-03-22T13:47:32Z</time>
      </trkpt>
      <trkpt lat="46.212" lon="-0.52928">
        <ele>36</ele>
        <time>2021-03-22T13:47:33Z</time>
      </trkpt>
      <trkpt lat="46.21196" lon="-0.52934">
        <ele>36</ele>
        <time>2021-03-22T13:47:34Z</time>
      </trkpt>
      <trkpt lat="46.21193" lon="-0.52938">
        <ele>36</ele>
        <time>2021-03-22T13:47:35Z</time>
      </trkpt>
      <trkpt lat="46.21189" lon="-0.52943">
        <ele>36</ele>
        <time>2021-03-22T13:47:36Z</time>
      </trkpt>
      <trkpt lat="46.21184" lon="-0.52948">
        <ele>36</ele>
        <time>2021-03-22T13:47:37Z</time>
      </trkpt>
      <trkpt lat="46.21158" lon="-0.52986">
        <ele>36</ele>
        <time>2021-03-22T13:47:43Z</time>
      </trkpt>
      <trkpt lat="46.21154" lon="-0.52992">
        <ele>36.2</ele>
        <time>2021-03-22T13:47:44Z</time>
      </trkpt>
      <trkpt lat="46.21135" lon="-0.53012">
        <ele>36.8</ele>
        <time>2021-03-22T13:47:48Z</time>
      </trkpt>
      <trkpt lat="46.2113" lon="-0.53017">
        <ele>37.4</ele>
        <time>2021-03-22T13:47:49Z</time>
      </trkpt>
      <trkpt lat="46.21124" lon="-0.53021">
        <ele>37.6</ele>
        <time>2021-03-22T13:47:50Z</time>
      </trkpt>
      <trkpt lat="46.21111" lon="-0.53025">
        <ele>38.8</ele>
        <time>2021-03-22T13:47:52Z</time>
      </trkpt>
      <trkpt lat="46.21098" lon="-0.5303">
        <ele>40</ele>
        <time>2021-03-22T13:47:54Z</time>
      </trkpt>
      <trkpt lat="46.21091" lon="-0.53031">
        <ele>40.4</ele>
        <time>2021-03-22T13:47:55Z</time>
      </trkpt>
      <trkpt lat="46.21083" lon="-0.53033">
        <ele>41</ele>
        <time>2021-03-22T13:47:56Z</time>
      </trkpt>
      <trkpt lat="46.21076" lon="-0.53034">
        <ele>41.4</ele>
        <time>2021-03-22T13:47:57Z</time>
      </trkpt>
      <trkpt lat="46.21068" lon="-0.53036">
        <ele>41.8</ele>
        <time>2021-03-22T13:47:58Z</time>
      </trkpt>
      <trkpt lat="46.2106" lon="-0.53037">
        <ele>42.2</ele>
        <time>2021-03-22T13:47:59Z</time>
      </trkpt>
      <trkpt lat="46.21052" lon="-0.53039">
        <ele>42.4</ele>
        <time>2021-03-22T13:48:00Z</time>
      </trkpt>
      <trkpt lat="46.21045" lon="-0.5304">
        <ele>42.6</ele>
        <time>2021-03-22T13:48:01Z</time>
      </trkpt>
      <trkpt lat="46.21037" lon="-0.53041">
        <ele>43</ele>
        <time>2021-03-22T13:48:02Z</time>
      </trkpt>
      <trkpt lat="46.21028" lon="-0.53043">
        <ele>43</ele>
        <time>2021-03-22T13:48:03Z</time>
      </trkpt>
      <trkpt lat="46.2102" lon="-0.53044">
        <ele>43.2</ele>
        <time>2021-03-22T13:48:04Z</time>
      </trkpt>
      <trkpt lat="46.21012" lon="-0.53047">
        <ele>43.4</ele>
        <time>2021-03-22T13:48:05Z</time>
      </trkpt>
      <trkpt lat="46.21004" lon="-0.5305">
        <ele>43.6</ele>
        <time>2021-03-22T13:48:06Z</time>
      </trkpt>
      <trkpt lat="46.20996" lon="-0.53054">
        <ele>43.6</ele>
        <time>2021-03-22T13:48:07Z</time>
      </trkpt>
      <trkpt lat="46.20989" lon="-0.53057">
        <ele>43.8</ele>
        <time>2021-03-22T13:48:08Z</time>
      </trkpt>
      <trkpt lat="46.20981" lon="-0.5306">
        <ele>43.8</ele>
        <time>2021-03-22T13:48:09Z</time>
      </trkpt>
      <trkpt lat="46.20974" lon="-0.53065">
        <ele>43.8</ele>
        <time>2021-03-22T13:48:10Z</time>
      </trkpt>
      <trkpt lat="46.20967" lon="-0.53069">
        <ele>44</ele>
        <time>2021-03-22T13:48:11Z</time>
      </trkpt>
      <trkpt lat="46.20959" lon="-0.53074">
        <ele>44</ele>
        <time>2021-03-22T13:48:12Z</time>
      </trkpt>
      <trkpt lat="46.20952" lon="-0.53078">
        <ele>44.2</ele>
        <time>2021-03-22T13:48:13Z</time>
      </trkpt>
      <trkpt lat="46.20944" lon="-0.53082">
        <ele>44.2</ele>
        <time>2021-03-22T13:48:14Z</time>
      </trkpt>
      <trkpt lat="46.20937" lon="-0.53087">
        <ele>44.8</ele>
        <time>2021-03-22T13:48:15Z</time>
      </trkpt>
      <trkpt lat="46.2093" lon="-0.53092">
        <ele>45</ele>
        <time>2021-03-22T13:48:16Z</time>
      </trkpt>
      <trkpt lat="46.20923" lon="-0.53096">
        <ele>45.2</ele>
        <time>2021-03-22T13:48:17Z</time>
      </trkpt>
      <trkpt lat="46.20916" lon="-0.53101">
        <ele>45.4</ele>
        <time>2021-03-22T13:48:18Z</time>
      </trkpt>
      <trkpt lat="46.20909" lon="-0.53106">
        <ele>45.4</ele>
        <time>2021-03-22T13:48:19Z</time>
      </trkpt>
      <trkpt lat="46.20902" lon="-0.5311">
        <ele>45.6</ele>
        <time>2021-03-22T13:48:20Z</time>
      </trkpt>
      <trkpt lat="46.20894" lon="-0.53115">
        <ele>45.8</ele>
        <time>2021-03-22T13:48:21Z</time>
      </trkpt>
      <trkpt lat="46.20887" lon="-0.53119">
        <ele>46</ele>
        <time>2021-03-22T13:48:22Z</time>
      </trkpt>
      <trkpt lat="46.20879" lon="-0.53124">
        <ele>46.2</ele>
        <time>2021-03-22T13:48:23Z</time>
      </trkpt>
      <trkpt lat="46.20871" lon="-0.53128">
        <ele>46.8</ele>
        <time>2021-03-22T13:48:24Z</time>
      </trkpt>
      <trkpt lat="46.20863" lon="-0.53131">
        <ele>46.8</ele>
        <time>2021-03-22T13:48:25Z</time>
      </trkpt>
      <trkpt lat="46.20855" lon="-0.53133">
        <ele>47</ele>
        <time>2021-03-22T13:48:26Z</time>
      </trkpt>
      <trkpt lat="46.20847" lon="-0.53135">
        <ele>47.4</ele>
        <time>2021-03-22T13:48:27Z</time>
      </trkpt>
      <trkpt lat="46.20839" lon="-0.53137">
        <ele>47.4</ele>
        <time>2021-03-22T13:48:28Z</time>
      </trkpt>
      <trkpt lat="46.20831" lon="-0.5314">
        <ele>47.6</ele>
        <time>2021-03-22T13:48:29Z</time>
      </trkpt>
      <trkpt lat="46.20823" lon="-0.53142">
        <ele>47.8</ele>
        <time>2021-03-22T13:48:30Z</time>
      </trkpt>
      <trkpt lat="46.20815" lon="-0.53143">
        <ele>48</ele>
        <time>2021-03-22T13:48:31Z</time>
      </trkpt>
      <trkpt lat="46.20807" lon="-0.53145">
        <ele>48.2</ele>
        <time>2021-03-22T13:48:32Z</time>
      </trkpt>
      <trkpt lat="46.20798" lon="-0.53147">
        <ele>48.4</ele>
        <time>2021-03-22T13:48:33Z</time>
      </trkpt>
      <trkpt lat="46.2079" lon="-0.53148">
        <ele>48.6</ele>
        <time>2021-03-22T13:48:34Z</time>
      </trkpt>
      <trkpt lat="46.20782" lon="-0.53149">
        <ele>48.8</ele>
        <time>2021-03-22T13:48:35Z</time>
      </trkpt>
      <trkpt lat="46.20773" lon="-0.5315">
        <ele>49.2</ele>
        <time>2021-03-22T13:48:36Z</time>
      </trkpt>
      <trkpt lat="46.20765" lon="-0.53152">
        <ele>49.2</ele>
        <time>2021-03-22T13:48:37Z</time>
      </trkpt>
      <trkpt lat="46.20757" lon="-0.53155">
        <ele>49.4</ele>
        <time>2021-03-22T13:48:38Z</time>
      </trkpt>
      <trkpt lat="46.20749" lon="-0.53157">
        <ele>49.6</ele>
        <time>2021-03-22T13:48:39Z</time>
      </trkpt>
      <trkpt lat="46.20741" lon="-0.53158">
        <ele>49.8</ele>
        <time>2021-03-22T13:48:40Z</time>
      </trkpt>
      <trkpt lat="46.20733" lon="-0.5316">
        <ele>49.8</ele>
        <time>2021-03-22T13:48:41Z</time>
      </trkpt>
      <trkpt lat="46.20725" lon="-0.53162">
        <ele>50</ele>
        <time>2021-03-22T13:48:42Z</time>
      </trkpt>
      <trkpt lat="46.20717" lon="-0.53163">
        <ele>50</ele>
        <time>2021-03-22T13:48:43Z</time>
      </trkpt>
      <trkpt lat="46.20709" lon="-0.53165">
        <ele>50</ele>
        <time>2021-03-22T13:48:44Z</time>
      </trkpt>
      <trkpt lat="46.20702" lon="-0.53166">
        <ele>50.2</ele>
        <time>2021-03-22T13:48:45Z</time>
      </trkpt>
      <trkpt lat="46.20694" lon="-0.53167">
        <ele>50.2</ele>
        <time>2021-03-22T13:48:46Z</time>
      </trkpt>
      <trkpt lat="46.20686" lon="-0.53169">
        <ele>50.2</ele>
        <time>2021-03-22T13:48:47Z</time>
      </trkpt>
      <trkpt lat="46.20677" lon="-0.5317">
        <ele>50.4</ele>
        <time>2021-03-22T13:48:48Z</time>
      </trkpt>
      <trkpt lat="46.20669" lon="-0.53171">
        <ele>50.4</ele>
        <time>2021-03-22T13:48:49Z</time>
      </trkpt>
      <trkpt lat="46.20661" lon="-0.53172">
        <ele>50.6</ele>
        <time>2021-03-22T13:48:50Z</time>
      </trkpt>
      <trkpt lat="46.20653" lon="-0.53173">
        <ele>50.6</ele>
        <time>2021-03-22T13:48:51Z</time>
      </trkpt>
      <trkpt lat="46.20645" lon="-0.53174">
        <ele>50.6</ele>
        <time>2021-03-22T13:48:52Z</time>
      </trkpt>
      <trkpt lat="46.20636" lon="-0.53175">
        <ele>50.8</ele>
        <time>2021-03-22T13:48:53Z</time>
      </trkpt>
      <trkpt lat="46.20628" lon="-0.53176">
        <ele>50.8</ele>
        <time>2021-03-22T13:48:54Z</time>
      </trkpt>
      <trkpt lat="46.20619" lon="-0.53177">
        <ele>50.8</ele>
        <time>2021-03-22T13:48:55Z</time>
      </trkpt>
      <trkpt lat="46.20611" lon="-0.53178">
        <ele>51</ele>
        <time>2021-03-22T13:48:56Z</time>
      </trkpt>
      <trkpt lat="46.20603" lon="-0.53179">
        <ele>51</ele>
        <time>2021-03-22T13:48:57Z</time>
      </trkpt>
      <trkpt lat="46.20595" lon="-0.5318">
        <ele>51.2</ele>
        <time>2021-03-22T13:48:58Z</time>
      </trkpt>
      <trkpt lat="46.20586" lon="-0.53181">
        <ele>51.2</ele>
        <time>2021-03-22T13:48:59Z</time>
      </trkpt>
      <trkpt lat="46.20578" lon="-0.53181">
        <ele>51.4</ele>
        <time>2021-03-22T13:49:00Z</time>
      </trkpt>
      <trkpt lat="46.2057" lon="-0.53182">
        <ele>51.4</ele>
        <time>2021-03-22T13:49:01Z</time>
      </trkpt>
      <trkpt lat="46.20561" lon="-0.53184">
        <ele>51.4</ele>
        <time>2021-03-22T13:49:02Z</time>
      </trkpt>
      <trkpt lat="46.20552" lon="-0.53185">
        <ele>51.4</ele>
        <time>2021-03-22T13:49:03Z</time>
      </trkpt>
      <trkpt lat="46.20544" lon="-0.53186">
        <ele>51.4</ele>
        <time>2021-03-22T13:49:04Z</time>
      </trkpt>
      <trkpt lat="46.20536" lon="-0.53186">
        <ele>51.4</ele>
        <time>2021-03-22T13:49:05Z</time>
      </trkpt>
      <trkpt lat="46.20528" lon="-0.53187">
        <ele>51.4</ele>
        <time>2021-03-22T13:49:06Z</time>
      </trkpt>
      <trkpt lat="46.20511" lon="-0.53187">
        <ele>51.6</ele>
        <time>2021-03-22T13:49:08Z</time>
      </trkpt>
      <trkpt lat="46.20454" lon="-0.53183">
        <ele>52</ele>
        <time>2021-03-22T13:49:15Z</time>
      </trkpt>
      <trkpt lat="46.20437" lon="-0.53181">
        <ele>52</ele>
        <time>2021-03-22T13:49:17Z</time>
      </trkpt>
      <trkpt lat="46.20412" lon="-0.53177">
        <ele>52.4</ele>
        <time>2021-03-22T13:49:20Z</time>
      </trkpt>
      <trkpt lat="46.2037" lon="-0.53177">
        <ele>52.8</ele>
        <time>2021-03-22T13:49:25Z</time>
      </trkpt>
      <trkpt lat="46.20312" lon="-0.53176">
        <ele>53.4</ele>
        <time>2021-03-22T13:49:32Z</time>
      </trkpt>
      <trkpt lat="46.20304" lon="-0.53174">
        <ele>53.4</ele>
        <time>2021-03-22T13:49:33Z</time>
      </trkpt>
      <trkpt lat="46.20296" lon="-0.53172">
        <ele>53.4</ele>
        <time>2021-03-22T13:49:34Z</time>
      </trkpt>
      <trkpt lat="46.20249" lon="-0.53154">
        <ele>53.6</ele>
        <time>2021-03-22T13:49:40Z</time>
      </trkpt>
      <trkpt lat="46.20225" lon="-0.53147">
        <ele>53.8</ele>
        <time>2021-03-22T13:49:43Z</time>
      </trkpt>
      <trkpt lat="46.20192" lon="-0.53141">
        <ele>54</ele>
        <time>2021-03-22T13:49:47Z</time>
      </trkpt>
      <trkpt lat="46.20142" lon="-0.53146">
        <ele>53.8</ele>
        <time>2021-03-22T13:49:53Z</time>
      </trkpt>
      <trkpt lat="46.20103" lon="-0.53158">
        <ele>54</ele>
        <time>2021-03-22T13:49:58Z</time>
      </trkpt>
      <trkpt lat="46.20087" lon="-0.53162">
        <ele>54</ele>
        <time>2021-03-22T13:50:00Z</time>
      </trkpt>
      <trkpt lat="46.2008" lon="-0.53164">
        <ele>54</ele>
        <time>2021-03-22T13:50:01Z</time>
      </trkpt>
      <trkpt lat="46.20073" lon="-0.53166">
        <ele>54</ele>
        <time>2021-03-22T13:50:02Z</time>
      </trkpt>
      <trkpt lat="46.20067" lon="-0.53169">
        <ele>54</ele>
        <time>2021-03-22T13:50:03Z</time>
      </trkpt>
      <trkpt lat="46.20061" lon="-0.53173">
        <ele>54</ele>
        <time>2021-03-22T13:50:04Z</time>
      </trkpt>
      <trkpt lat="46.20056" lon="-0.53178">
        <ele>54</ele>
        <time>2021-03-22T13:50:05Z</time>
      </trkpt>
      <trkpt lat="46.20051" lon="-0.53184">
        <ele>54</ele>
        <time>2021-03-22T13:50:06Z</time>
      </trkpt>
      <trkpt lat="46.20048" lon="-0.53192">
        <ele>54</ele>
        <time>2021-03-22T13:50:07Z</time>
      </trkpt>
      <trkpt lat="46.20045" lon="-0.53202">
        <ele>54</ele>
        <time>2021-03-22T13:50:08Z</time>
      </trkpt>
      <trkpt lat="46.20041" lon="-0.53213">
        <ele>54</ele>
        <time>2021-03-22T13:50:09Z</time>
      </trkpt>
      <trkpt lat="46.20036" lon="-0.53223">
        <ele>53.8</ele>
        <time>2021-03-22T13:50:10Z</time>
      </trkpt>
      <trkpt lat="46.20025" lon="-0.53243">
        <ele>53.8</ele>
        <time>2021-03-22T13:50:12Z</time>
      </trkpt>
      <trkpt lat="46.20004" lon="-0.53283">
        <ele>53.6</ele>
        <time>2021-03-22T13:50:16Z</time>
      </trkpt>
      <trkpt lat="46.19999" lon="-0.53293">
        <ele>53.6</ele>
        <time>2021-03-22T13:50:17Z</time>
      </trkpt>
      <trkpt lat="46.1999" lon="-0.53312">
        <ele>53.4</ele>
        <time>2021-03-22T13:50:19Z</time>
      </trkpt>
      <trkpt lat="46.1998" lon="-0.53329">
        <ele>53</ele>
        <time>2021-03-22T13:50:21Z</time>
      </trkpt>
      <trkpt lat="46.19977" lon="-0.53337">
        <ele>52.8</ele>
        <time>2021-03-22T13:50:22Z</time>
      </trkpt>
      <trkpt lat="46.19973" lon="-0.53346">
        <ele>52.6</ele>
        <time>2021-03-22T13:50:23Z</time>
      </trkpt>
      <trkpt lat="46.1997" lon="-0.53352">
        <ele>52.4</ele>
        <time>2021-03-22T13:50:24Z</time>
      </trkpt>
      <trkpt lat="46.19967" lon="-0.53357">
        <ele>52.2</ele>
        <time>2021-03-22T13:50:25Z</time>
      </trkpt>
      <trkpt lat="46.19963" lon="-0.53358">
        <ele>52</ele>
        <time>2021-03-22T13:50:26Z</time>
      </trkpt>
      <trkpt lat="46.19959" lon="-0.53356">
        <ele>52</ele>
        <time>2021-03-22T13:50:27Z</time>
      </trkpt>
      <trkpt lat="46.19956" lon="-0.53351">
        <ele>51.6</ele>
        <time>2021-03-22T13:50:28Z</time>
      </trkpt>
      <trkpt lat="46.19953" lon="-0.53345">
        <ele>51.6</ele>
        <time>2021-03-22T13:50:29Z</time>
      </trkpt>
      <trkpt lat="46.19942" lon="-0.53322">
        <ele>51.4</ele>
        <time>2021-03-22T13:50:32Z</time>
      </trkpt>
      <trkpt lat="46.19938" lon="-0.53313">
        <ele>51.4</ele>
        <time>2021-03-22T13:50:33Z</time>
      </trkpt>
      <trkpt lat="46.1992" lon="-0.53278">
        <ele>51.2</ele>
        <time>2021-03-22T13:50:37Z</time>
      </trkpt>
      <trkpt lat="46.19908" lon="-0.53252">
        <ele>51.4</ele>
        <time>2021-03-22T13:50:40Z</time>
      </trkpt>
      <trkpt lat="46.19904" lon="-0.53244">
        <ele>51.4</ele>
        <time>2021-03-22T13:50:41Z</time>
      </trkpt>
      <trkpt lat="46.199" lon="-0.53236">
        <ele>51.4</ele>
        <time>2021-03-22T13:50:42Z</time>
      </trkpt>
      <trkpt lat="46.19896" lon="-0.5323">
        <ele>51.4</ele>
        <time>2021-03-22T13:50:43Z</time>
      </trkpt>
      <trkpt lat="46.1989" lon="-0.53226">
        <ele>51.4</ele>
        <time>2021-03-22T13:50:44Z</time>
      </trkpt>
      <trkpt lat="46.19884" lon="-0.53226">
        <ele>51.4</ele>
        <time>2021-03-22T13:50:45Z</time>
      </trkpt>
      <trkpt lat="46.19879" lon="-0.53229">
        <ele>51.4</ele>
        <time>2021-03-22T13:50:46Z</time>
      </trkpt>
      <trkpt lat="46.19873" lon="-0.53234">
        <ele>51.6</ele>
        <time>2021-03-22T13:50:47Z</time>
      </trkpt>
      <trkpt lat="46.19866" lon="-0.5324">
        <ele>51.6</ele>
        <time>2021-03-22T13:50:48Z</time>
      </trkpt>
      <trkpt lat="46.19859" lon="-0.53245">
        <ele>51.6</ele>
        <time>2021-03-22T13:50:49Z</time>
      </trkpt>
      <trkpt lat="46.19852" lon="-0.53251">
        <ele>51.6</ele>
        <time>2021-03-22T13:50:50Z</time>
      </trkpt>
      <trkpt lat="46.19832" lon="-0.53265">
        <ele>51.4</ele>
        <time>2021-03-22T13:50:53Z</time>
      </trkpt>
      <trkpt lat="46.19825" lon="-0.5327">
        <ele>51.4</ele>
        <time>2021-03-22T13:50:54Z</time>
      </trkpt>
      <trkpt lat="46.19774" lon="-0.53307">
        <ele>51.4</ele>
        <time>2021-03-22T13:51:01Z</time>
      </trkpt>
      <trkpt lat="46.1976" lon="-0.53317">
        <ele>51.4</ele>
        <time>2021-03-22T13:51:03Z</time>
      </trkpt>
      <trkpt lat="46.19708" lon="-0.53352">
        <ele>51</ele>
        <time>2021-03-22T13:51:10Z</time>
      </trkpt>
      <trkpt lat="46.19701" lon="-0.53357">
        <ele>51.2</ele>
        <time>2021-03-22T13:51:11Z</time>
      </trkpt>
      <trkpt lat="46.19648" lon="-0.53387">
        <ele>51.2</ele>
        <time>2021-03-22T13:51:18Z</time>
      </trkpt>
      <trkpt lat="46.19626" lon="-0.534">
        <ele>51.4</ele>
        <time>2021-03-22T13:51:21Z</time>
      </trkpt>
      <trkpt lat="46.1962" lon="-0.53403">
        <ele>51.4</ele>
        <time>2021-03-22T13:51:22Z</time>
      </trkpt>
      <trkpt lat="46.19614" lon="-0.53407">
        <ele>51.4</ele>
        <time>2021-03-22T13:51:23Z</time>
      </trkpt>
      <trkpt lat="46.19609" lon="-0.5341">
        <ele>51.6</ele>
        <time>2021-03-22T13:51:24Z</time>
      </trkpt>
      <trkpt lat="46.19603" lon="-0.53411">
        <ele>51.6</ele>
        <time>2021-03-22T13:51:25Z</time>
      </trkpt>
      <trkpt lat="46.19597" lon="-0.53411">
        <ele>52</ele>
        <time>2021-03-22T13:51:26Z</time>
      </trkpt>
      <trkpt lat="46.1959" lon="-0.53411">
        <ele>52.4</ele>
        <time>2021-03-22T13:51:27Z</time>
      </trkpt>
      <trkpt lat="46.19584" lon="-0.53411">
        <ele>52.6</ele>
        <time>2021-03-22T13:51:28Z</time>
      </trkpt>
      <trkpt lat="46.19561" lon="-0.53411">
        <ele>53</ele>
        <time>2021-03-22T13:51:31Z</time>
      </trkpt>
      <trkpt lat="46.19523" lon="-0.53413">
        <ele>53.4</ele>
        <time>2021-03-22T13:51:36Z</time>
      </trkpt>
      <trkpt lat="46.19515" lon="-0.53414">
        <ele>53.6</ele>
        <time>2021-03-22T13:51:37Z</time>
      </trkpt>
      <trkpt lat="46.19469" lon="-0.53412">
        <ele>54</ele>
        <time>2021-03-22T13:51:43Z</time>
      </trkpt>
      <trkpt lat="46.19461" lon="-0.53413">
        <ele>54</ele>
        <time>2021-03-22T13:51:44Z</time>
      </trkpt>
      <trkpt lat="46.19415" lon="-0.53411">
        <ele>54.6</ele>
        <time>2021-03-22T13:51:50Z</time>
      </trkpt>
      <trkpt lat="46.19408" lon="-0.53412">
        <ele>54.8</ele>
        <time>2021-03-22T13:51:51Z</time>
      </trkpt>
      <trkpt lat="46.19384" lon="-0.53413">
        <ele>55.8</ele>
        <time>2021-03-22T13:51:54Z</time>
      </trkpt>
      <trkpt lat="46.19376" lon="-0.53412">
        <ele>56</ele>
        <time>2021-03-22T13:51:55Z</time>
      </trkpt>
      <trkpt lat="46.19369" lon="-0.53412">
        <ele>56.4</ele>
        <time>2021-03-22T13:51:56Z</time>
      </trkpt>
      <trkpt lat="46.19361" lon="-0.53411">
        <ele>56.6</ele>
        <time>2021-03-22T13:51:57Z</time>
      </trkpt>
      <trkpt lat="46.19354" lon="-0.5341">
        <ele>56.8</ele>
        <time>2021-03-22T13:51:58Z</time>
      </trkpt>
      <trkpt lat="46.19347" lon="-0.53409">
        <ele>57</ele>
        <time>2021-03-22T13:51:59Z</time>
      </trkpt>
      <trkpt lat="46.19339" lon="-0.53409">
        <ele>57.2</ele>
        <time>2021-03-22T13:52:00Z</time>
      </trkpt>
      <trkpt lat="46.19331" lon="-0.53409">
        <ele>57.4</ele>
        <time>2021-03-22T13:52:01Z</time>
      </trkpt>
      <trkpt lat="46.19323" lon="-0.53409">
        <ele>57.6</ele>
        <time>2021-03-22T13:52:02Z</time>
      </trkpt>
      <trkpt lat="46.19315" lon="-0.53409">
        <ele>57.8</ele>
        <time>2021-03-22T13:52:03Z</time>
      </trkpt>
      <trkpt lat="46.19307" lon="-0.53409">
        <ele>57.8</ele>
        <time>2021-03-22T13:52:04Z</time>
      </trkpt>
      <trkpt lat="46.193" lon="-0.53409">
        <ele>58</ele>
        <time>2021-03-22T13:52:05Z</time>
      </trkpt>
      <trkpt lat="46.19292" lon="-0.53409">
        <ele>58.2</ele>
        <time>2021-03-22T13:52:06Z</time>
      </trkpt>
      <trkpt lat="46.19285" lon="-0.53409">
        <ele>58.4</ele>
        <time>2021-03-22T13:52:07Z</time>
      </trkpt>
      <trkpt lat="46.19278" lon="-0.53409">
        <ele>58.6</ele>
        <time>2021-03-22T13:52:08Z</time>
      </trkpt>
      <trkpt lat="46.1927" lon="-0.53409">
        <ele>58.8</ele>
        <time>2021-03-22T13:52:09Z</time>
      </trkpt>
      <trkpt lat="46.19263" lon="-0.5341">
        <ele>59</ele>
        <time>2021-03-22T13:52:10Z</time>
      </trkpt>
      <trkpt lat="46.19256" lon="-0.5341">
        <ele>59.4</ele>
        <time>2021-03-22T13:52:11Z</time>
      </trkpt>
      <trkpt lat="46.19248" lon="-0.53411">
        <ele>59.8</ele>
        <time>2021-03-22T13:52:12Z</time>
      </trkpt>
      <trkpt lat="46.19241" lon="-0.53411">
        <ele>60.2</ele>
        <time>2021-03-22T13:52:13Z</time>
      </trkpt>
      <trkpt lat="46.19234" lon="-0.53412">
        <ele>60.6</ele>
        <time>2021-03-22T13:52:14Z</time>
      </trkpt>
      <trkpt lat="46.19227" lon="-0.53412">
        <ele>60.8</ele>
        <time>2021-03-22T13:52:15Z</time>
      </trkpt>
      <trkpt lat="46.19219" lon="-0.53412">
        <ele>61</ele>
        <time>2021-03-22T13:52:16Z</time>
      </trkpt>
      <trkpt lat="46.19212" lon="-0.53413">
        <ele>61</ele>
        <time>2021-03-22T13:52:17Z</time>
      </trkpt>
      <trkpt lat="46.19205" lon="-0.53413">
        <ele>61.8</ele>
        <time>2021-03-22T13:52:18Z</time>
      </trkpt>
      <trkpt lat="46.19198" lon="-0.53413">
        <ele>62.2</ele>
        <time>2021-03-22T13:52:19Z</time>
      </trkpt>
      <trkpt lat="46.19191" lon="-0.53413">
        <ele>62.4</ele>
        <time>2021-03-22T13:52:20Z</time>
      </trkpt>
      <trkpt lat="46.19184" lon="-0.53412">
        <ele>62.6</ele>
        <time>2021-03-22T13:52:21Z</time>
      </trkpt>
      <trkpt lat="46.19177" lon="-0.53412">
        <ele>63</ele>
        <time>2021-03-22T13:52:22Z</time>
      </trkpt>
      <trkpt lat="46.19169" lon="-0.53411">
        <ele>63.2</ele>
        <time>2021-03-22T13:52:23Z</time>
      </trkpt>
      <trkpt lat="46.19162" lon="-0.53411">
        <ele>63.6</ele>
        <time>2021-03-22T13:52:24Z</time>
      </trkpt>
      <trkpt lat="46.19154" lon="-0.53411">
        <ele>63.8</ele>
        <time>2021-03-22T13:52:25Z</time>
      </trkpt>
      <trkpt lat="46.19146" lon="-0.53411">
        <ele>64</ele>
        <time>2021-03-22T13:52:26Z</time>
      </trkpt>
      <trkpt lat="46.19139" lon="-0.53411">
        <ele>64.2</ele>
        <time>2021-03-22T13:52:27Z</time>
      </trkpt>
      <trkpt lat="46.19131" lon="-0.53412">
        <ele>64.4</ele>
        <time>2021-03-22T13:52:28Z</time>
      </trkpt>
      <trkpt lat="46.19124" lon="-0.53412">
        <ele>64.8</ele>
        <time>2021-03-22T13:52:29Z</time>
      </trkpt>
      <trkpt lat="46.19116" lon="-0.53413">
        <ele>65</ele>
        <time>2021-03-22T13:52:30Z</time>
      </trkpt>
      <trkpt lat="46.19108" lon="-0.53413">
        <ele>65</ele>
        <time>2021-03-22T13:52:31Z</time>
      </trkpt>
      <trkpt lat="46.19101" lon="-0.53413">
        <ele>65.2</ele>
        <time>2021-03-22T13:52:32Z</time>
      </trkpt>
      <trkpt lat="46.19094" lon="-0.53413">
        <ele>65.2</ele>
        <time>2021-03-22T13:52:33Z</time>
      </trkpt>
      <trkpt lat="46.19086" lon="-0.53414">
        <ele>65.4</ele>
        <time>2021-03-22T13:52:34Z</time>
      </trkpt>
      <trkpt lat="46.19079" lon="-0.53414">
        <ele>65.4</ele>
        <time>2021-03-22T13:52:35Z</time>
      </trkpt>
      <trkpt lat="46.19072" lon="-0.53414">
        <ele>65.6</ele>
        <time>2021-03-22T13:52:36Z</time>
      </trkpt>
      <trkpt lat="46.19066" lon="-0.53413">
        <ele>65.6</ele>
        <time>2021-03-22T13:52:37Z</time>
      </trkpt>
      <trkpt lat="46.1906" lon="-0.53413">
        <ele>65.8</ele>
        <time>2021-03-22T13:52:38Z</time>
      </trkpt>
      <trkpt lat="46.19053" lon="-0.53414">
        <ele>66.2</ele>
        <time>2021-03-22T13:52:39Z</time>
      </trkpt>
      <trkpt lat="46.19046" lon="-0.53414">
        <ele>66.6</ele>
        <time>2021-03-22T13:52:40Z</time>
      </trkpt>
      <trkpt lat="46.19039" lon="-0.53414">
        <ele>67</ele>
        <time>2021-03-22T13:52:41Z</time>
      </trkpt>
      <trkpt lat="46.19031" lon="-0.53414">
        <ele>67.2</ele>
        <time>2021-03-22T13:52:42Z</time>
      </trkpt>
      <trkpt lat="46.19024" lon="-0.53414">
        <ele>67.4</ele>
        <time>2021-03-22T13:52:43Z</time>
      </trkpt>
      <trkpt lat="46.19017" lon="-0.53413">
        <ele>67.4</ele>
        <time>2021-03-22T13:52:44Z</time>
      </trkpt>
      <trkpt lat="46.1901" lon="-0.53412">
        <ele>67.6</ele>
        <time>2021-03-22T13:52:45Z</time>
      </trkpt>
      <trkpt lat="46.19003" lon="-0.53411">
        <ele>67.6</ele>
        <time>2021-03-22T13:52:46Z</time>
      </trkpt>
      <trkpt lat="46.18997" lon="-0.5341">
        <ele>67.6</ele>
        <time>2021-03-22T13:52:47Z</time>
      </trkpt>
      <trkpt lat="46.18989" lon="-0.5341">
        <ele>67.8</ele>
        <time>2021-03-22T13:52:48Z</time>
      </trkpt>
      <trkpt lat="46.18982" lon="-0.5341">
        <ele>67.8</ele>
        <time>2021-03-22T13:52:49Z</time>
      </trkpt>
      <trkpt lat="46.18974" lon="-0.5341">
        <ele>67.8</ele>
        <time>2021-03-22T13:52:50Z</time>
      </trkpt>
      <trkpt lat="46.18966" lon="-0.53409">
        <ele>67.8</ele>
        <time>2021-03-22T13:52:51Z</time>
      </trkpt>
      <trkpt lat="46.18958" lon="-0.53409">
        <ele>67.8</ele>
        <time>2021-03-22T13:52:52Z</time>
      </trkpt>
      <trkpt lat="46.1895" lon="-0.53408">
        <ele>67.8</ele>
        <time>2021-03-22T13:52:53Z</time>
      </trkpt>
      <trkpt lat="46.18942" lon="-0.53407">
        <ele>67.8</ele>
        <time>2021-03-22T13:52:54Z</time>
      </trkpt>
      <trkpt lat="46.18934" lon="-0.53406">
        <ele>67.8</ele>
        <time>2021-03-22T13:52:55Z</time>
      </trkpt>
      <trkpt lat="46.18926" lon="-0.53405">
        <ele>67.6</ele>
        <time>2021-03-22T13:52:56Z</time>
      </trkpt>
      <trkpt lat="46.18918" lon="-0.53405">
        <ele>67.6</ele>
        <time>2021-03-22T13:52:57Z</time>
      </trkpt>
      <trkpt lat="46.18909" lon="-0.53405">
        <ele>67.6</ele>
        <time>2021-03-22T13:52:58Z</time>
      </trkpt>
      <trkpt lat="46.18901" lon="-0.53405">
        <ele>67.6</ele>
        <time>2021-03-22T13:52:59Z</time>
      </trkpt>
      <trkpt lat="46.18892" lon="-0.53404">
        <ele>67.6</ele>
        <time>2021-03-22T13:53:00Z</time>
      </trkpt>
      <trkpt lat="46.18884" lon="-0.53403">
        <ele>67.6</ele>
        <time>2021-03-22T13:53:01Z</time>
      </trkpt>
      <trkpt lat="46.18876" lon="-0.53403">
        <ele>67.6</ele>
        <time>2021-03-22T13:53:02Z</time>
      </trkpt>
      <trkpt lat="46.18869" lon="-0.53402">
        <ele>67.6</ele>
        <time>2021-03-22T13:53:03Z</time>
      </trkpt>
      <trkpt lat="46.18855" lon="-0.534">
        <ele>67.6</ele>
        <time>2021-03-22T13:53:05Z</time>
      </trkpt>
      <trkpt lat="46.18848" lon="-0.534">
        <ele>67.6</ele>
        <time>2021-03-22T13:53:06Z</time>
      </trkpt>
      <trkpt lat="46.18842" lon="-0.53399">
        <ele>67.6</ele>
        <time>2021-03-22T13:53:07Z</time>
      </trkpt>
      <trkpt lat="46.18837" lon="-0.53399">
        <ele>67.8</ele>
        <time>2021-03-22T13:53:08Z</time>
      </trkpt>
      <trkpt lat="46.18832" lon="-0.53399">
        <ele>67.8</ele>
        <time>2021-03-22T13:53:09Z</time>
      </trkpt>
      <trkpt lat="46.18828" lon="-0.53398">
        <ele>67.8</ele>
        <time>2021-03-22T13:53:10Z</time>
      </trkpt>
      <trkpt lat="46.18825" lon="-0.53397">
        <ele>67.8</ele>
        <time>2021-03-22T13:53:11Z</time>
      </trkpt>
      <trkpt lat="46.18822" lon="-0.53394">
        <ele>67.8</ele>
        <time>2021-03-22T13:53:12Z</time>
      </trkpt>
      <trkpt lat="46.18821" lon="-0.53388">
        <ele>68</ele>
        <time>2021-03-22T13:53:13Z</time>
      </trkpt>
      <trkpt lat="46.18821" lon="-0.53382">
        <ele>68</ele>
        <time>2021-03-22T13:53:14Z</time>
      </trkpt>
      <trkpt lat="46.18824" lon="-0.53356">
        <ele>68</ele>
        <time>2021-03-22T13:53:17Z</time>
      </trkpt>
      <trkpt lat="46.18826" lon="-0.53346">
        <ele>68</ele>
        <time>2021-03-22T13:53:18Z</time>
      </trkpt>
      <trkpt lat="46.18832" lon="-0.53283">
        <ele>67.4</ele>
        <time>2021-03-22T13:53:24Z</time>
      </trkpt>
      <trkpt lat="46.18837" lon="-0.5325">
        <ele>67.4</ele>
        <time>2021-03-22T13:53:27Z</time>
      </trkpt>
      <trkpt lat="46.18839" lon="-0.5324">
        <ele>67.4</ele>
        <time>2021-03-22T13:53:28Z</time>
      </trkpt>
      <trkpt lat="46.1884" lon="-0.53231">
        <ele>67.4</ele>
        <time>2021-03-22T13:53:29Z</time>
      </trkpt>
      <trkpt lat="46.1884" lon="-0.53222">
        <ele>67.4</ele>
        <time>2021-03-22T13:53:30Z</time>
      </trkpt>
      <trkpt lat="46.18839" lon="-0.53214">
        <ele>67.4</ele>
        <time>2021-03-22T13:53:31Z</time>
      </trkpt>
      <trkpt lat="46.18837" lon="-0.53207">
        <ele>67.4</ele>
        <time>2021-03-22T13:53:32Z</time>
      </trkpt>
      <trkpt lat="46.1883" lon="-0.53204">
        <ele>67.4</ele>
        <time>2021-03-22T13:53:33Z</time>
      </trkpt>
      <trkpt lat="46.18823" lon="-0.53206">
        <ele>67.4</ele>
        <time>2021-03-22T13:53:34Z</time>
      </trkpt>
      <trkpt lat="46.1881" lon="-0.53211">
        <ele>67.6</ele>
        <time>2021-03-22T13:53:36Z</time>
      </trkpt>
      <trkpt lat="46.18781" lon="-0.53218">
        <ele>68.2</ele>
        <time>2021-03-22T13:53:40Z</time>
      </trkpt>
      <trkpt lat="46.18774" lon="-0.53218">
        <ele>68.4</ele>
        <time>2021-03-22T13:53:41Z</time>
      </trkpt>
      <trkpt lat="46.18767" lon="-0.53219">
        <ele>68.4</ele>
        <time>2021-03-22T13:53:42Z</time>
      </trkpt>
      <trkpt lat="46.18754" lon="-0.53221">
        <ele>68.4</ele>
        <time>2021-03-22T13:53:44Z</time>
      </trkpt>
      <trkpt lat="46.18748" lon="-0.53221">
        <ele>68.4</ele>
        <time>2021-03-22T13:53:45Z</time>
      </trkpt>
      <trkpt lat="46.18742" lon="-0.53218">
        <ele>68.4</ele>
        <time>2021-03-22T13:53:46Z</time>
      </trkpt>
      <trkpt lat="46.1873" lon="-0.53209">
        <ele>68.4</ele>
        <time>2021-03-22T13:53:48Z</time>
      </trkpt>
      <trkpt lat="46.18723" lon="-0.53205">
        <ele>68.4</ele>
        <time>2021-03-22T13:53:49Z</time>
      </trkpt>
      <trkpt lat="46.18709" lon="-0.53195">
        <ele>68.4</ele>
        <time>2021-03-22T13:53:51Z</time>
      </trkpt>
      <trkpt lat="46.1868" lon="-0.53174">
        <ele>67.8</ele>
        <time>2021-03-22T13:53:55Z</time>
      </trkpt>
      <trkpt lat="46.18659" lon="-0.5316">
        <ele>66.6</ele>
        <time>2021-03-22T13:53:58Z</time>
      </trkpt>
      <trkpt lat="46.18622" lon="-0.53142">
        <ele>65.4</ele>
        <time>2021-03-22T13:54:03Z</time>
      </trkpt>
      <trkpt lat="46.18608" lon="-0.53134">
        <ele>65.4</ele>
        <time>2021-03-22T13:54:05Z</time>
      </trkpt>
      <trkpt lat="46.18603" lon="-0.5313">
        <ele>65.4</ele>
        <time>2021-03-22T13:54:06Z</time>
      </trkpt>
      <trkpt lat="46.18598" lon="-0.53126">
        <ele>65.4</ele>
        <time>2021-03-22T13:54:07Z</time>
      </trkpt>
      <trkpt lat="46.18594" lon="-0.53123">
        <ele>65.4</ele>
        <time>2021-03-22T13:54:08Z</time>
      </trkpt>
      <trkpt lat="46.1859" lon="-0.53118">
        <ele>65.4</ele>
        <time>2021-03-22T13:54:09Z</time>
      </trkpt>
      <trkpt lat="46.18588" lon="-0.53113">
        <ele>65.4</ele>
        <time>2021-03-22T13:54:10Z</time>
      </trkpt>
      <trkpt lat="46.18587" lon="-0.53106">
        <ele>65.4</ele>
        <time>2021-03-22T13:54:11Z</time>
      </trkpt>
      <trkpt lat="46.18587" lon="-0.531">
        <ele>65.4</ele>
        <time>2021-03-22T13:54:12Z</time>
      </trkpt>
      <trkpt lat="46.18589" lon="-0.53093">
        <ele>65.4</ele>
        <time>2021-03-22T13:54:13Z</time>
      </trkpt>
      <trkpt lat="46.18595" lon="-0.53078">
        <ele>65.4</ele>
        <time>2021-03-22T13:54:15Z</time>
      </trkpt>
      <trkpt lat="46.18598" lon="-0.5307">
        <ele>65.4</ele>
        <time>2021-03-22T13:54:16Z</time>
      </trkpt>
      <trkpt lat="46.18601" lon="-0.53062">
        <ele>65.4</ele>
        <time>2021-03-22T13:54:17Z</time>
      </trkpt>
      <trkpt lat="46.18604" lon="-0.53045">
        <ele>65.6</ele>
        <time>2021-03-22T13:54:19Z</time>
      </trkpt>
      <trkpt lat="46.18603" lon="-0.53037">
        <ele>65.8</ele>
        <time>2021-03-22T13:54:20Z</time>
      </trkpt>
      <trkpt lat="46.186" lon="-0.53031">
        <ele>65.8</ele>
        <time>2021-03-22T13:54:21Z</time>
      </trkpt>
      <trkpt lat="46.18595" lon="-0.53025">
        <ele>65.8</ele>
        <time>2021-03-22T13:54:22Z</time>
      </trkpt>
      <trkpt lat="46.1859" lon="-0.5302">
        <ele>65.8</ele>
        <time>2021-03-22T13:54:23Z</time>
      </trkpt>
      <trkpt lat="46.18584" lon="-0.53015">
        <ele>65.8</ele>
        <time>2021-03-22T13:54:24Z</time>
      </trkpt>
      <trkpt lat="46.18579" lon="-0.5301">
        <ele>65.8</ele>
        <time>2021-03-22T13:54:25Z</time>
      </trkpt>
      <trkpt lat="46.18574" lon="-0.53005">
        <ele>65.8</ele>
        <time>2021-03-22T13:54:26Z</time>
      </trkpt>
      <trkpt lat="46.1857" lon="-0.53001">
        <ele>65.8</ele>
        <time>2021-03-22T13:54:27Z</time>
      </trkpt>
      <trkpt lat="46.18567" lon="-0.52999">
        <ele>65.8</ele>
        <time>2021-03-22T13:54:28Z</time>
      </trkpt>
      <trkpt lat="46.18566" lon="-0.52999">
        <ele>65.8</ele>
        <time>2021-03-22T13:54:29Z</time>
      </trkpt>
      <trkpt lat="46.18566" lon="-0.52999">
        <ele>65.8</ele>
        <time>2021-03-22T13:54:30Z</time>
      </trkpt>
      <trkpt lat="46.18566" lon="-0.52998">
        <ele>66.2</ele>
        <time>2021-03-22T13:54:31Z</time>
      </trkpt>
      <trkpt lat="46.18559" lon="-0.52995">
        <ele>67</ele>
        <time>2021-03-22T13:54:34Z</time>
      </trkpt>
      <trkpt lat="46.18553" lon="-0.52986">
        <ele>68</ele>
        <time>2021-03-22T13:54:36Z</time>
      </trkpt>
      <trkpt lat="46.18548" lon="-0.52981">
        <ele>68.2</ele>
        <time>2021-03-22T13:54:37Z</time>
      </trkpt>
      <trkpt lat="46.18543" lon="-0.52976">
        <ele>68.8</ele>
        <time>2021-03-22T13:54:38Z</time>
      </trkpt>
      <trkpt lat="46.18518" lon="-0.52953">
        <ele>69.2</ele>
        <time>2021-03-22T13:54:42Z</time>
      </trkpt>
      <trkpt lat="46.18511" lon="-0.52947">
        <ele>69.2</ele>
        <time>2021-03-22T13:54:43Z</time>
      </trkpt>
      <trkpt lat="46.18504" lon="-0.52942">
        <ele>69.2</ele>
        <time>2021-03-22T13:54:44Z</time>
      </trkpt>
      <trkpt lat="46.18498" lon="-0.52938">
        <ele>69.4</ele>
        <time>2021-03-22T13:54:45Z</time>
      </trkpt>
      <trkpt lat="46.1849" lon="-0.52933">
        <ele>69.4</ele>
        <time>2021-03-22T13:54:46Z</time>
      </trkpt>
      <trkpt lat="46.18483" lon="-0.52929">
        <ele>69.6</ele>
        <time>2021-03-22T13:54:47Z</time>
      </trkpt>
      <trkpt lat="46.18475" lon="-0.52925">
        <ele>69.6</ele>
        <time>2021-03-22T13:54:48Z</time>
      </trkpt>
      <trkpt lat="46.18467" lon="-0.52921">
        <ele>69.4</ele>
        <time>2021-03-22T13:54:49Z</time>
      </trkpt>
      <trkpt lat="46.18459" lon="-0.52918">
        <ele>69.4</ele>
        <time>2021-03-22T13:54:50Z</time>
      </trkpt>
      <trkpt lat="46.18451" lon="-0.52916">
        <ele>69.2</ele>
        <time>2021-03-22T13:54:51Z</time>
      </trkpt>
      <trkpt lat="46.18442" lon="-0.52913">
        <ele>69.2</ele>
        <time>2021-03-22T13:54:52Z</time>
      </trkpt>
      <trkpt lat="46.18434" lon="-0.52911">
        <ele>69.2</ele>
        <time>2021-03-22T13:54:53Z</time>
      </trkpt>
      <trkpt lat="46.18426" lon="-0.5291">
        <ele>69.2</ele>
        <time>2021-03-22T13:54:54Z</time>
      </trkpt>
      <trkpt lat="46.18418" lon="-0.52907">
        <ele>69</ele>
        <time>2021-03-22T13:54:55Z</time>
      </trkpt>
      <trkpt lat="46.1841" lon="-0.52903">
        <ele>69</ele>
        <time>2021-03-22T13:54:56Z</time>
      </trkpt>
      <trkpt lat="46.18403" lon="-0.52898">
        <ele>69</ele>
        <time>2021-03-22T13:54:57Z</time>
      </trkpt>
      <trkpt lat="46.18389" lon="-0.52883">
        <ele>69.2</ele>
        <time>2021-03-22T13:54:59Z</time>
      </trkpt>
      <trkpt lat="46.18377" lon="-0.52866">
        <ele>69.2</ele>
        <time>2021-03-22T13:55:01Z</time>
      </trkpt>
      <trkpt lat="46.18359" lon="-0.52829">
        <ele>69.2</ele>
        <time>2021-03-22T13:55:05Z</time>
      </trkpt>
      <trkpt lat="46.18346" lon="-0.52799">
        <ele>69</ele>
        <time>2021-03-22T13:55:08Z</time>
      </trkpt>
      <trkpt lat="46.18327" lon="-0.52734">
        <ele>68.6</ele>
        <time>2021-03-22T13:55:14Z</time>
      </trkpt>
      <trkpt lat="46.18325" lon="-0.52724">
        <ele>68.6</ele>
        <time>2021-03-22T13:55:15Z</time>
      </trkpt>
      <trkpt lat="46.18323" lon="-0.52715">
        <ele>68.6</ele>
        <time>2021-03-22T13:55:16Z</time>
      </trkpt>
      <trkpt lat="46.18321" lon="-0.52705">
        <ele>68.6</ele>
        <time>2021-03-22T13:55:17Z</time>
      </trkpt>
      <trkpt lat="46.18318" lon="-0.52695">
        <ele>68.6</ele>
        <time>2021-03-22T13:55:18Z</time>
      </trkpt>
      <trkpt lat="46.18315" lon="-0.52685">
        <ele>68.6</ele>
        <time>2021-03-22T13:55:19Z</time>
      </trkpt>
      <trkpt lat="46.18312" lon="-0.52674">
        <ele>68.6</ele>
        <time>2021-03-22T13:55:20Z</time>
      </trkpt>
      <trkpt lat="46.18308" lon="-0.52663">
        <ele>68.6</ele>
        <time>2021-03-22T13:55:21Z</time>
      </trkpt>
      <trkpt lat="46.18297" lon="-0.5263">
        <ele>68.2</ele>
        <time>2021-03-22T13:55:24Z</time>
      </trkpt>
      <trkpt lat="46.1829" lon="-0.52607">
        <ele>68.2</ele>
        <time>2021-03-22T13:55:26Z</time>
      </trkpt>
      <trkpt lat="46.18274" lon="-0.52551">
        <ele>67.2</ele>
        <time>2021-03-22T13:55:31Z</time>
      </trkpt>
      <trkpt lat="46.18268" lon="-0.52531">
        <ele>66.4</ele>
        <time>2021-03-22T13:55:33Z</time>
      </trkpt>
      <trkpt lat="46.18265" lon="-0.52521">
        <ele>66.2</ele>
        <time>2021-03-22T13:55:34Z</time>
      </trkpt>
      <trkpt lat="46.18262" lon="-0.52511">
        <ele>65.8</ele>
        <time>2021-03-22T13:55:35Z</time>
      </trkpt>
      <trkpt lat="46.18256" lon="-0.52489">
        <ele>65.2</ele>
        <time>2021-03-22T13:55:37Z</time>
      </trkpt>
      <trkpt lat="46.18246" lon="-0.52457">
        <ele>64.8</ele>
        <time>2021-03-22T13:55:40Z</time>
      </trkpt>
      <trkpt lat="46.18227" lon="-0.52389">
        <ele>63.2</ele>
        <time>2021-03-22T13:55:46Z</time>
      </trkpt>
      <trkpt lat="46.18217" lon="-0.52355">
        <ele>61.8</ele>
        <time>2021-03-22T13:55:49Z</time>
      </trkpt>
      <trkpt lat="46.18214" lon="-0.52344">
        <ele>61.6</ele>
        <time>2021-03-22T13:55:50Z</time>
      </trkpt>
      <trkpt lat="46.18203" lon="-0.52311">
        <ele>60.8</ele>
        <time>2021-03-22T13:55:53Z</time>
      </trkpt>
      <trkpt lat="46.18197" lon="-0.5229">
        <ele>60.6</ele>
        <time>2021-03-22T13:55:55Z</time>
      </trkpt>
      <trkpt lat="46.18189" lon="-0.5227">
        <ele>60.4</ele>
        <time>2021-03-22T13:55:57Z</time>
      </trkpt>
      <trkpt lat="46.18186" lon="-0.5226">
        <ele>60</ele>
        <time>2021-03-22T13:55:58Z</time>
      </trkpt>
      <trkpt lat="46.18183" lon="-0.52251">
        <ele>59.8</ele>
        <time>2021-03-22T13:55:59Z</time>
      </trkpt>
      <trkpt lat="46.18179" lon="-0.52242">
        <ele>59.6</ele>
        <time>2021-03-22T13:56:00Z</time>
      </trkpt>
      <trkpt lat="46.18175" lon="-0.52234">
        <ele>59</ele>
        <time>2021-03-22T13:56:01Z</time>
      </trkpt>
      <trkpt lat="46.18171" lon="-0.52226">
        <ele>58.8</ele>
        <time>2021-03-22T13:56:02Z</time>
      </trkpt>
      <trkpt lat="46.18153" lon="-0.5219">
        <ele>58</ele>
        <time>2021-03-22T13:56:06Z</time>
      </trkpt>
      <trkpt lat="46.1813" lon="-0.5216">
        <ele>57.6</ele>
        <time>2021-03-22T13:56:10Z</time>
      </trkpt>
      <trkpt lat="46.18117" lon="-0.52147">
        <ele>57</ele>
        <time>2021-03-22T13:56:12Z</time>
      </trkpt>
      <trkpt lat="46.181" lon="-0.52126">
        <ele>56.6</ele>
        <time>2021-03-22T13:56:15Z</time>
      </trkpt>
      <trkpt lat="46.18082" lon="-0.52105">
        <ele>55.6</ele>
        <time>2021-03-22T13:56:18Z</time>
      </trkpt>
      <trkpt lat="46.18069" lon="-0.5209">
        <ele>55.4</ele>
        <time>2021-03-22T13:56:20Z</time>
      </trkpt>
      <trkpt lat="46.18046" lon="-0.52064">
        <ele>55.2</ele>
        <time>2021-03-22T13:56:24Z</time>
      </trkpt>
      <trkpt lat="46.18042" lon="-0.52059">
        <ele>55.2</ele>
        <time>2021-03-22T13:56:25Z</time>
      </trkpt>
      <trkpt lat="46.18037" lon="-0.52054">
        <ele>55</ele>
        <time>2021-03-22T13:56:26Z</time>
      </trkpt>
      <trkpt lat="46.18032" lon="-0.52048">
        <ele>55</ele>
        <time>2021-03-22T13:56:27Z</time>
      </trkpt>
      <trkpt lat="46.18027" lon="-0.52041">
        <ele>55</ele>
        <time>2021-03-22T13:56:28Z</time>
      </trkpt>
      <trkpt lat="46.18017" lon="-0.52025">
        <ele>55</ele>
        <time>2021-03-22T13:56:30Z</time>
      </trkpt>
      <trkpt lat="46.17993" lon="-0.51976">
        <ele>54.4</ele>
        <time>2021-03-22T13:56:35Z</time>
      </trkpt>
      <trkpt lat="46.17984" lon="-0.51955">
        <ele>54</ele>
        <time>2021-03-22T13:56:37Z</time>
      </trkpt>
      <trkpt lat="46.17965" lon="-0.51917">
        <ele>53.4</ele>
        <time>2021-03-22T13:56:41Z</time>
      </trkpt>
      <trkpt lat="46.17956" lon="-0.51896">
        <ele>53.4</ele>
        <time>2021-03-22T13:56:43Z</time>
      </trkpt>
      <trkpt lat="46.17936" lon="-0.51863">
        <ele>52.8</ele>
        <time>2021-03-22T13:56:47Z</time>
      </trkpt>
      <trkpt lat="46.17932" lon="-0.51855">
        <ele>52.6</ele>
        <time>2021-03-22T13:56:48Z</time>
      </trkpt>
      <trkpt lat="46.17928" lon="-0.51848">
        <ele>52.6</ele>
        <time>2021-03-22T13:56:49Z</time>
      </trkpt>
      <trkpt lat="46.17925" lon="-0.51841">
        <ele>52.4</ele>
        <time>2021-03-22T13:56:50Z</time>
      </trkpt>
      <trkpt lat="46.17922" lon="-0.51835">
        <ele>52.4</ele>
        <time>2021-03-22T13:56:51Z</time>
      </trkpt>
      <trkpt lat="46.17919" lon="-0.51829">
        <ele>52.4</ele>
        <time>2021-03-22T13:56:52Z</time>
      </trkpt>
      <trkpt lat="46.17915" lon="-0.51824">
        <ele>52.4</ele>
        <time>2021-03-22T13:56:53Z</time>
      </trkpt>
      <trkpt lat="46.17911" lon="-0.51822">
        <ele>52.2</ele>
        <time>2021-03-22T13:56:54Z</time>
      </trkpt>
      <trkpt lat="46.17906" lon="-0.51823">
        <ele>52.2</ele>
        <time>2021-03-22T13:56:55Z</time>
      </trkpt>
      <trkpt lat="46.17901" lon="-0.51827">
        <ele>52</ele>
        <time>2021-03-22T13:56:56Z</time>
      </trkpt>
      <trkpt lat="46.17883" lon="-0.51845">
        <ele>51.8</ele>
        <time>2021-03-22T13:56:59Z</time>
      </trkpt>
      <trkpt lat="46.17877" lon="-0.51851">
        <ele>51.8</ele>
        <time>2021-03-22T13:57:00Z</time>
      </trkpt>
      <trkpt lat="46.17835" lon="-0.51897">
        <ele>51</ele>
        <time>2021-03-22T13:57:06Z</time>
      </trkpt>
      <trkpt lat="46.17828" lon="-0.51906">
        <ele>50.6</ele>
        <time>2021-03-22T13:57:07Z</time>
      </trkpt>
      <trkpt lat="46.17808" lon="-0.51931">
        <ele>49.8</ele>
        <time>2021-03-22T13:57:10Z</time>
      </trkpt>
      <trkpt lat="46.1779" lon="-0.51956">
        <ele>49</ele>
        <time>2021-03-22T13:57:13Z</time>
      </trkpt>
      <trkpt lat="46.17771" lon="-0.5198">
        <ele>48.8</ele>
        <time>2021-03-22T13:57:16Z</time>
      </trkpt>
      <trkpt lat="46.17751" lon="-0.52001">
        <ele>48.8</ele>
        <time>2021-03-22T13:57:19Z</time>
      </trkpt>
      <trkpt lat="46.17744" lon="-0.52007">
        <ele>48.8</ele>
        <time>2021-03-22T13:57:20Z</time>
      </trkpt>
      <trkpt lat="46.17738" lon="-0.52012">
        <ele>48.8</ele>
        <time>2021-03-22T13:57:21Z</time>
      </trkpt>
      <trkpt lat="46.17731" lon="-0.52018">
        <ele>48.8</ele>
        <time>2021-03-22T13:57:22Z</time>
      </trkpt>
      <trkpt lat="46.17725" lon="-0.52023">
        <ele>48.6</ele>
        <time>2021-03-22T13:57:23Z</time>
      </trkpt>
      <trkpt lat="46.17721" lon="-0.5203">
        <ele>48.6</ele>
        <time>2021-03-22T13:57:24Z</time>
      </trkpt>
      <trkpt lat="46.17718" lon="-0.52038">
        <ele>48.6</ele>
        <time>2021-03-22T13:57:25Z</time>
      </trkpt>
      <trkpt lat="46.17719" lon="-0.52047">
        <ele>48.6</ele>
        <time>2021-03-22T13:57:26Z</time>
      </trkpt>
      <trkpt lat="46.17721" lon="-0.52056">
        <ele>48.6</ele>
        <time>2021-03-22T13:57:27Z</time>
      </trkpt>
      <trkpt lat="46.17724" lon="-0.52064">
        <ele>48.6</ele>
        <time>2021-03-22T13:57:28Z</time>
      </trkpt>
      <trkpt lat="46.17728" lon="-0.52073">
        <ele>48.6</ele>
        <time>2021-03-22T13:57:29Z</time>
      </trkpt>
      <trkpt lat="46.17731" lon="-0.52082">
        <ele>48.2</ele>
        <time>2021-03-22T13:57:30Z</time>
      </trkpt>
      <trkpt lat="46.17735" lon="-0.52092">
        <ele>48.2</ele>
        <time>2021-03-22T13:57:31Z</time>
      </trkpt>
      <trkpt lat="46.17742" lon="-0.5211">
        <ele>47.8</ele>
        <time>2021-03-22T13:57:33Z</time>
      </trkpt>
      <trkpt lat="46.17751" lon="-0.52129">
        <ele>46.8</ele>
        <time>2021-03-22T13:57:35Z</time>
      </trkpt>
      <trkpt lat="46.17755" lon="-0.52138">
        <ele>46.6</ele>
        <time>2021-03-22T13:57:36Z</time>
      </trkpt>
      <trkpt lat="46.17785" lon="-0.52193">
        <ele>45.8</ele>
        <time>2021-03-22T13:57:42Z</time>
      </trkpt>
      <trkpt lat="46.17817" lon="-0.52256">
        <ele>45.8</ele>
        <time>2021-03-22T13:57:49Z</time>
      </trkpt>
      <trkpt lat="46.17824" lon="-0.52276">
        <ele>45.8</ele>
        <time>2021-03-22T13:57:51Z</time>
      </trkpt>
      <trkpt lat="46.17828" lon="-0.52286">
        <ele>45.8</ele>
        <time>2021-03-22T13:57:52Z</time>
      </trkpt>
      <trkpt lat="46.17835" lon="-0.52306">
        <ele>46</ele>
        <time>2021-03-22T13:57:54Z</time>
      </trkpt>
      <trkpt lat="46.17845" lon="-0.52336">
        <ele>46.8</ele>
        <time>2021-03-22T13:57:57Z</time>
      </trkpt>
      <trkpt lat="46.17855" lon="-0.52366">
        <ele>47.6</ele>
        <time>2021-03-22T13:58:00Z</time>
      </trkpt>
      <trkpt lat="46.1787" lon="-0.52418">
        <ele>48.6</ele>
        <time>2021-03-22T13:58:05Z</time>
      </trkpt>
      <trkpt lat="46.17884" lon="-0.5246">
        <ele>49.8</ele>
        <time>2021-03-22T13:58:09Z</time>
      </trkpt>
      <trkpt lat="46.17887" lon="-0.52471">
        <ele>49.8</ele>
        <time>2021-03-22T13:58:10Z</time>
      </trkpt>
      <trkpt lat="46.17891" lon="-0.52481">
        <ele>49.8</ele>
        <time>2021-03-22T13:58:11Z</time>
      </trkpt>
      <trkpt lat="46.17895" lon="-0.52491">
        <ele>49.8</ele>
        <time>2021-03-22T13:58:12Z</time>
      </trkpt>
      <trkpt lat="46.17898" lon="-0.52502">
        <ele>50</ele>
        <time>2021-03-22T13:58:13Z</time>
      </trkpt>
      <trkpt lat="46.17902" lon="-0.52512">
        <ele>50.2</ele>
        <time>2021-03-22T13:58:14Z</time>
      </trkpt>
      <trkpt lat="46.17906" lon="-0.52522">
        <ele>50.2</ele>
        <time>2021-03-22T13:58:15Z</time>
      </trkpt>
      <trkpt lat="46.17909" lon="-0.52532">
        <ele>50.2</ele>
        <time>2021-03-22T13:58:16Z</time>
      </trkpt>
      <trkpt lat="46.17912" lon="-0.52543">
        <ele>50.4</ele>
        <time>2021-03-22T13:58:17Z</time>
      </trkpt>
      <trkpt lat="46.17915" lon="-0.52554">
        <ele>50.6</ele>
        <time>2021-03-22T13:58:18Z</time>
      </trkpt>
      <trkpt lat="46.17918" lon="-0.52565">
        <ele>50.6</ele>
        <time>2021-03-22T13:58:19Z</time>
      </trkpt>
      <trkpt lat="46.17921" lon="-0.52576">
        <ele>51</ele>
        <time>2021-03-22T13:58:20Z</time>
      </trkpt>
      <trkpt lat="46.17924" lon="-0.52587">
        <ele>51</ele>
        <time>2021-03-22T13:58:21Z</time>
      </trkpt>
      <trkpt lat="46.17927" lon="-0.52598">
        <ele>51.2</ele>
        <time>2021-03-22T13:58:22Z</time>
      </trkpt>
      <trkpt lat="46.17929" lon="-0.52609">
        <ele>51.2</ele>
        <time>2021-03-22T13:58:23Z</time>
      </trkpt>
      <trkpt lat="46.17932" lon="-0.5262">
        <ele>51.2</ele>
        <time>2021-03-22T13:58:24Z</time>
      </trkpt>
      <trkpt lat="46.17935" lon="-0.52631">
        <ele>51.2</ele>
        <time>2021-03-22T13:58:25Z</time>
      </trkpt>
      <trkpt lat="46.17937" lon="-0.52643">
        <ele>51.2</ele>
        <time>2021-03-22T13:58:26Z</time>
      </trkpt>
      <trkpt lat="46.17939" lon="-0.52654">
        <ele>51.6</ele>
        <time>2021-03-22T13:58:27Z</time>
      </trkpt>
      <trkpt lat="46.17942" lon="-0.52665">
        <ele>51.6</ele>
        <time>2021-03-22T13:58:28Z</time>
      </trkpt>
      <trkpt lat="46.17944" lon="-0.52676">
        <ele>51.8</ele>
        <time>2021-03-22T13:58:29Z</time>
      </trkpt>
      <trkpt lat="46.17947" lon="-0.52686">
        <ele>52.4</ele>
        <time>2021-03-22T13:58:30Z</time>
      </trkpt>
      <trkpt lat="46.17949" lon="-0.52696">
        <ele>52.4</ele>
        <time>2021-03-22T13:58:31Z</time>
      </trkpt>
      <trkpt lat="46.17952" lon="-0.52707">
        <ele>52.8</ele>
        <time>2021-03-22T13:58:32Z</time>
      </trkpt>
      <trkpt lat="46.17954" lon="-0.52717">
        <ele>53</ele>
        <time>2021-03-22T13:58:33Z</time>
      </trkpt>
      <trkpt lat="46.17956" lon="-0.52727">
        <ele>53.2</ele>
        <time>2021-03-22T13:58:34Z</time>
      </trkpt>
      <trkpt lat="46.17958" lon="-0.52737">
        <ele>53.2</ele>
        <time>2021-03-22T13:58:35Z</time>
      </trkpt>
      <trkpt lat="46.1796" lon="-0.52747">
        <ele>53.4</ele>
        <time>2021-03-22T13:58:36Z</time>
      </trkpt>
      <trkpt lat="46.17962" lon="-0.52757">
        <ele>53.6</ele>
        <time>2021-03-22T13:58:37Z</time>
      </trkpt>
      <trkpt lat="46.17964" lon="-0.52768">
        <ele>53.8</ele>
        <time>2021-03-22T13:58:38Z</time>
      </trkpt>
      <trkpt lat="46.17966" lon="-0.52778">
        <ele>53.8</ele>
        <time>2021-03-22T13:58:39Z</time>
      </trkpt>
      <trkpt lat="46.17967" lon="-0.52788">
        <ele>54</ele>
        <time>2021-03-22T13:58:40Z</time>
      </trkpt>
      <trkpt lat="46.17969" lon="-0.52799">
        <ele>54.4</ele>
        <time>2021-03-22T13:58:41Z</time>
      </trkpt>
      <trkpt lat="46.1797" lon="-0.5281">
        <ele>54.6</ele>
        <time>2021-03-22T13:58:42Z</time>
      </trkpt>
      <trkpt lat="46.17972" lon="-0.52821">
        <ele>54.8</ele>
        <time>2021-03-22T13:58:43Z</time>
      </trkpt>
      <trkpt lat="46.17973" lon="-0.52832">
        <ele>54.8</ele>
        <time>2021-03-22T13:58:44Z</time>
      </trkpt>
      <trkpt lat="46.17975" lon="-0.52843">
        <ele>55</ele>
        <time>2021-03-22T13:58:45Z</time>
      </trkpt>
      <trkpt lat="46.17976" lon="-0.52854">
        <ele>55.2</ele>
        <time>2021-03-22T13:58:46Z</time>
      </trkpt>
      <trkpt lat="46.17978" lon="-0.52865">
        <ele>55.4</ele>
        <time>2021-03-22T13:58:47Z</time>
      </trkpt>
      <trkpt lat="46.17979" lon="-0.52877">
        <ele>55.6</ele>
        <time>2021-03-22T13:58:48Z</time>
      </trkpt>
      <trkpt lat="46.17981" lon="-0.52888">
        <ele>55.8</ele>
        <time>2021-03-22T13:58:49Z</time>
      </trkpt>
      <trkpt lat="46.17983" lon="-0.52898">
        <ele>56</ele>
        <time>2021-03-22T13:58:50Z</time>
      </trkpt>
      <trkpt lat="46.17985" lon="-0.52909">
        <ele>56.2</ele>
        <time>2021-03-22T13:58:51Z</time>
      </trkpt>
      <trkpt lat="46.17986" lon="-0.5292">
        <ele>56.2</ele>
        <time>2021-03-22T13:58:52Z</time>
      </trkpt>
      <trkpt lat="46.17988" lon="-0.52931">
        <ele>56.2</ele>
        <time>2021-03-22T13:58:53Z</time>
      </trkpt>
      <trkpt lat="46.1799" lon="-0.52941">
        <ele>56.4</ele>
        <time>2021-03-22T13:58:54Z</time>
      </trkpt>
      <trkpt lat="46.17992" lon="-0.52952">
        <ele>56.4</ele>
        <time>2021-03-22T13:58:55Z</time>
      </trkpt>
      <trkpt lat="46.17994" lon="-0.52963">
        <ele>56.6</ele>
        <time>2021-03-22T13:58:56Z</time>
      </trkpt>
      <trkpt lat="46.17995" lon="-0.52974">
        <ele>56.6</ele>
        <time>2021-03-22T13:58:57Z</time>
      </trkpt>
      <trkpt lat="46.17997" lon="-0.52984">
        <ele>56.6</ele>
        <time>2021-03-22T13:58:58Z</time>
      </trkpt>
      <trkpt lat="46.17999" lon="-0.52995">
        <ele>56.8</ele>
        <time>2021-03-22T13:58:59Z</time>
      </trkpt>
      <trkpt lat="46.18001" lon="-0.53006">
        <ele>56.8</ele>
        <time>2021-03-22T13:59:00Z</time>
      </trkpt>
      <trkpt lat="46.18003" lon="-0.53017">
        <ele>56.8</ele>
        <time>2021-03-22T13:59:01Z</time>
      </trkpt>
      <trkpt lat="46.18006" lon="-0.53027">
        <ele>56.8</ele>
        <time>2021-03-22T13:59:02Z</time>
      </trkpt>
      <trkpt lat="46.18008" lon="-0.53038">
        <ele>57</ele>
        <time>2021-03-22T13:59:03Z</time>
      </trkpt>
      <trkpt lat="46.18011" lon="-0.53048">
        <ele>57.6</ele>
        <time>2021-03-22T13:59:04Z</time>
      </trkpt>
      <trkpt lat="46.18014" lon="-0.53058">
        <ele>58</ele>
        <time>2021-03-22T13:59:05Z</time>
      </trkpt>
      <trkpt lat="46.18018" lon="-0.53068">
        <ele>58.2</ele>
        <time>2021-03-22T13:59:06Z</time>
      </trkpt>
      <trkpt lat="46.18022" lon="-0.53077">
        <ele>58.4</ele>
        <time>2021-03-22T13:59:07Z</time>
      </trkpt>
      <trkpt lat="46.18027" lon="-0.53086">
        <ele>58.6</ele>
        <time>2021-03-22T13:59:08Z</time>
      </trkpt>
      <trkpt lat="46.1803" lon="-0.53095">
        <ele>58.8</ele>
        <time>2021-03-22T13:59:09Z</time>
      </trkpt>
      <trkpt lat="46.18032" lon="-0.53105">
        <ele>58.8</ele>
        <time>2021-03-22T13:59:10Z</time>
      </trkpt>
      <trkpt lat="46.18033" lon="-0.53115">
        <ele>58.8</ele>
        <time>2021-03-22T13:59:11Z</time>
      </trkpt>
      <trkpt lat="46.18032" lon="-0.53126">
        <ele>59</ele>
        <time>2021-03-22T13:59:12Z</time>
      </trkpt>
      <trkpt lat="46.18031" lon="-0.53137">
        <ele>59</ele>
        <time>2021-03-22T13:59:13Z</time>
      </trkpt>
      <trkpt lat="46.18029" lon="-0.53148">
        <ele>59</ele>
        <time>2021-03-22T13:59:14Z</time>
      </trkpt>
      <trkpt lat="46.18028" lon="-0.53159">
        <ele>59.4</ele>
        <time>2021-03-22T13:59:15Z</time>
      </trkpt>
      <trkpt lat="46.18026" lon="-0.5317">
        <ele>59.4</ele>
        <time>2021-03-22T13:59:16Z</time>
      </trkpt>
      <trkpt lat="46.18025" lon="-0.53182">
        <ele>59.6</ele>
        <time>2021-03-22T13:59:17Z</time>
      </trkpt>
      <trkpt lat="46.18023" lon="-0.53193">
        <ele>59.6</ele>
        <time>2021-03-22T13:59:18Z</time>
      </trkpt>
      <trkpt lat="46.18022" lon="-0.53205">
        <ele>59.6</ele>
        <time>2021-03-22T13:59:19Z</time>
      </trkpt>
      <trkpt lat="46.18022" lon="-0.53217">
        <ele>60.2</ele>
        <time>2021-03-22T13:59:20Z</time>
      </trkpt>
      <trkpt lat="46.18021" lon="-0.53228">
        <ele>60.6</ele>
        <time>2021-03-22T13:59:21Z</time>
      </trkpt>
      <trkpt lat="46.1802" lon="-0.5324">
        <ele>61</ele>
        <time>2021-03-22T13:59:22Z</time>
      </trkpt>
      <trkpt lat="46.1802" lon="-0.53251">
        <ele>61.2</ele>
        <time>2021-03-22T13:59:23Z</time>
      </trkpt>
      <trkpt lat="46.18019" lon="-0.53263">
        <ele>61.4</ele>
        <time>2021-03-22T13:59:24Z</time>
      </trkpt>
      <trkpt lat="46.1802" lon="-0.53274">
        <ele>61.6</ele>
        <time>2021-03-22T13:59:25Z</time>
      </trkpt>
      <trkpt lat="46.18019" lon="-0.53286">
        <ele>61.8</ele>
        <time>2021-03-22T13:59:26Z</time>
      </trkpt>
      <trkpt lat="46.18019" lon="-0.53298">
        <ele>61.8</ele>
        <time>2021-03-22T13:59:27Z</time>
      </trkpt>
      <trkpt lat="46.18019" lon="-0.53309">
        <ele>62</ele>
        <time>2021-03-22T13:59:28Z</time>
      </trkpt>
      <trkpt lat="46.1802" lon="-0.53321">
        <ele>62.2</ele>
        <time>2021-03-22T13:59:29Z</time>
      </trkpt>
      <trkpt lat="46.1802" lon="-0.53332">
        <ele>62.2</ele>
        <time>2021-03-22T13:59:30Z</time>
      </trkpt>
      <trkpt lat="46.18021" lon="-0.53343">
        <ele>62.2</ele>
        <time>2021-03-22T13:59:31Z</time>
      </trkpt>
      <trkpt lat="46.18021" lon="-0.53355">
        <ele>62.4</ele>
        <time>2021-03-22T13:59:32Z</time>
      </trkpt>
      <trkpt lat="46.18021" lon="-0.53366">
        <ele>62.4</ele>
        <time>2021-03-22T13:59:33Z</time>
      </trkpt>
      <trkpt lat="46.18021" lon="-0.53378">
        <ele>62.4</ele>
        <time>2021-03-22T13:59:34Z</time>
      </trkpt>
      <trkpt lat="46.18021" lon="-0.53388">
        <ele>62.4</ele>
        <time>2021-03-22T13:59:35Z</time>
      </trkpt>
      <trkpt lat="46.18021" lon="-0.53398">
        <ele>62.4</ele>
        <time>2021-03-22T13:59:36Z</time>
      </trkpt>
      <trkpt lat="46.18021" lon="-0.53407">
        <ele>62.6</ele>
        <time>2021-03-22T13:59:37Z</time>
      </trkpt>
      <trkpt lat="46.18021" lon="-0.53416">
        <ele>62.6</ele>
        <time>2021-03-22T13:59:38Z</time>
      </trkpt>
      <trkpt lat="46.18021" lon="-0.53426">
        <ele>62.6</ele>
        <time>2021-03-22T13:59:39Z</time>
      </trkpt>
      <trkpt lat="46.18021" lon="-0.53435">
        <ele>62.8</ele>
        <time>2021-03-22T13:59:40Z</time>
      </trkpt>
      <trkpt lat="46.18022" lon="-0.53446">
        <ele>62.8</ele>
        <time>2021-03-22T13:59:41Z</time>
      </trkpt>
      <trkpt lat="46.18023" lon="-0.53456">
        <ele>62.8</ele>
        <time>2021-03-22T13:59:42Z</time>
      </trkpt>
      <trkpt lat="46.18025" lon="-0.53466">
        <ele>62.8</ele>
        <time>2021-03-22T13:59:43Z</time>
      </trkpt>
      <trkpt lat="46.18027" lon="-0.53477">
        <ele>62.8</ele>
        <time>2021-03-22T13:59:44Z</time>
      </trkpt>
      <trkpt lat="46.18028" lon="-0.53488">
        <ele>63</ele>
        <time>2021-03-22T13:59:45Z</time>
      </trkpt>
      <trkpt lat="46.18031" lon="-0.53499">
        <ele>63</ele>
        <time>2021-03-22T13:59:46Z</time>
      </trkpt>
      <trkpt lat="46.18034" lon="-0.5351">
        <ele>63</ele>
        <time>2021-03-22T13:59:47Z</time>
      </trkpt>
      <trkpt lat="46.18038" lon="-0.5352">
        <ele>62.8</ele>
        <time>2021-03-22T13:59:48Z</time>
      </trkpt>
      <trkpt lat="46.18042" lon="-0.5353">
        <ele>62.8</ele>
        <time>2021-03-22T13:59:49Z</time>
      </trkpt>
      <trkpt lat="46.18047" lon="-0.53539">
        <ele>62.8</ele>
        <time>2021-03-22T13:59:50Z</time>
      </trkpt>
      <trkpt lat="46.18058" lon="-0.53556">
        <ele>62.8</ele>
        <time>2021-03-22T13:59:52Z</time>
      </trkpt>
      <trkpt lat="46.18071" lon="-0.5357">
        <ele>62.6</ele>
        <time>2021-03-22T13:59:54Z</time>
      </trkpt>
      <trkpt lat="46.18085" lon="-0.5358">
        <ele>62.2</ele>
        <time>2021-03-22T13:59:56Z</time>
      </trkpt>
      <trkpt lat="46.18099" lon="-0.53589">
        <ele>61.8</ele>
        <time>2021-03-22T13:59:58Z</time>
      </trkpt>
      <trkpt lat="46.18113" lon="-0.53596">
        <ele>61.6</ele>
        <time>2021-03-22T14:00:00Z</time>
      </trkpt>
      <trkpt lat="46.1812" lon="-0.536">
        <ele>61.4</ele>
        <time>2021-03-22T14:00:01Z</time>
      </trkpt>
      <trkpt lat="46.18127" lon="-0.53604">
        <ele>61</ele>
        <time>2021-03-22T14:00:02Z</time>
      </trkpt>
      <trkpt lat="46.18134" lon="-0.5361">
        <ele>60.8</ele>
        <time>2021-03-22T14:00:03Z</time>
      </trkpt>
      <trkpt lat="46.1814" lon="-0.53618">
        <ele>60.6</ele>
        <time>2021-03-22T14:00:04Z</time>
      </trkpt>
      <trkpt lat="46.18144" lon="-0.53628">
        <ele>60.6</ele>
        <time>2021-03-22T14:00:05Z</time>
      </trkpt>
      <trkpt lat="46.18147" lon="-0.53638">
        <ele>60.6</ele>
        <time>2021-03-22T14:00:06Z</time>
      </trkpt>
      <trkpt lat="46.1815" lon="-0.53648">
        <ele>60.6</ele>
        <time>2021-03-22T14:00:07Z</time>
      </trkpt>
      <trkpt lat="46.18151" lon="-0.53659">
        <ele>60.6</ele>
        <time>2021-03-22T14:00:08Z</time>
      </trkpt>
      <trkpt lat="46.18152" lon="-0.53671">
        <ele>60.6</ele>
        <time>2021-03-22T14:00:09Z</time>
      </trkpt>
      <trkpt lat="46.18157" lon="-0.53741">
        <ele>60.8</ele>
        <time>2021-03-22T14:00:15Z</time>
      </trkpt>
      <trkpt lat="46.1816" lon="-0.53765">
        <ele>61</ele>
        <time>2021-03-22T14:00:17Z</time>
      </trkpt>
      <trkpt lat="46.18159" lon="-0.53789">
        <ele>61.2</ele>
        <time>2021-03-22T14:00:19Z</time>
      </trkpt>
      <trkpt lat="46.18157" lon="-0.53846">
        <ele>61.2</ele>
        <time>2021-03-22T14:00:24Z</time>
      </trkpt>
      <trkpt lat="46.18157" lon="-0.53856">
        <ele>61.2</ele>
        <time>2021-03-22T14:00:25Z</time>
      </trkpt>
      <trkpt lat="46.18158" lon="-0.53867">
        <ele>61.2</ele>
        <time>2021-03-22T14:00:26Z</time>
      </trkpt>
      <trkpt lat="46.18159" lon="-0.53877">
        <ele>61.2</ele>
        <time>2021-03-22T14:00:27Z</time>
      </trkpt>
      <trkpt lat="46.18167" lon="-0.53935">
        <ele>61</ele>
        <time>2021-03-22T14:00:32Z</time>
      </trkpt>
      <trkpt lat="46.18173" lon="-0.53971">
        <ele>60.8</ele>
        <time>2021-03-22T14:00:35Z</time>
      </trkpt>
      <trkpt lat="46.18179" lon="-0.53994">
        <ele>60.6</ele>
        <time>2021-03-22T14:00:37Z</time>
      </trkpt>
      <trkpt lat="46.18195" lon="-0.54038">
        <ele>60</ele>
        <time>2021-03-22T14:00:41Z</time>
      </trkpt>
      <trkpt lat="46.18206" lon="-0.5407">
        <ele>59.6</ele>
        <time>2021-03-22T14:00:44Z</time>
      </trkpt>
      <trkpt lat="46.18215" lon="-0.54117">
        <ele>58.6</ele>
        <time>2021-03-22T14:00:48Z</time>
      </trkpt>
      <trkpt lat="46.18218" lon="-0.54127">
        <ele>58.2</ele>
        <time>2021-03-22T14:00:49Z</time>
      </trkpt>
      <trkpt lat="46.18223" lon="-0.54134">
        <ele>58</ele>
        <time>2021-03-22T14:00:50Z</time>
      </trkpt>
      <trkpt lat="46.18228" lon="-0.54138">
        <ele>57.8</ele>
        <time>2021-03-22T14:00:51Z</time>
      </trkpt>
      <trkpt lat="46.18235" lon="-0.54138">
        <ele>57.6</ele>
        <time>2021-03-22T14:00:52Z</time>
      </trkpt>
      <trkpt lat="46.18242" lon="-0.54136">
        <ele>57.6</ele>
        <time>2021-03-22T14:00:53Z</time>
      </trkpt>
      <trkpt lat="46.18249" lon="-0.54134">
        <ele>57.4</ele>
        <time>2021-03-22T14:00:54Z</time>
      </trkpt>
      <trkpt lat="46.18257" lon="-0.54132">
        <ele>57.2</ele>
        <time>2021-03-22T14:00:55Z</time>
      </trkpt>
      <trkpt lat="46.18264" lon="-0.54131">
        <ele>57.2</ele>
        <time>2021-03-22T14:00:56Z</time>
      </trkpt>
      <trkpt lat="46.18287" lon="-0.5413">
        <ele>57</ele>
        <time>2021-03-22T14:00:59Z</time>
      </trkpt>
      <trkpt lat="46.18294" lon="-0.54131">
        <ele>57</ele>
        <time>2021-03-22T14:01:00Z</time>
      </trkpt>
      <trkpt lat="46.18301" lon="-0.54134">
        <ele>57</ele>
        <time>2021-03-22T14:01:01Z</time>
      </trkpt>
      <trkpt lat="46.18308" lon="-0.54135">
        <ele>57</ele>
        <time>2021-03-22T14:01:02Z</time>
      </trkpt>
      <trkpt lat="46.18314" lon="-0.54137">
        <ele>57</ele>
        <time>2021-03-22T14:01:03Z</time>
      </trkpt>
      <trkpt lat="46.18319" lon="-0.54139">
        <ele>57.2</ele>
        <time>2021-03-22T14:01:04Z</time>
      </trkpt>
      <trkpt lat="46.18322" lon="-0.54143">
        <ele>57.2</ele>
        <time>2021-03-22T14:01:05Z</time>
      </trkpt>
      <trkpt lat="46.18325" lon="-0.5415">
        <ele>57.2</ele>
        <time>2021-03-22T14:01:06Z</time>
      </trkpt>
      <trkpt lat="46.18327" lon="-0.54158">
        <ele>57.2</ele>
        <time>2021-03-22T14:01:07Z</time>
      </trkpt>
      <trkpt lat="46.18329" lon="-0.5418">
        <ele>57.2</ele>
        <time>2021-03-22T14:01:09Z</time>
      </trkpt>
      <trkpt lat="46.18335" lon="-0.54239">
        <ele>57.2</ele>
        <time>2021-03-22T14:01:14Z</time>
      </trkpt>
      <trkpt lat="46.18341" lon="-0.54275">
        <ele>57.2</ele>
        <time>2021-03-22T14:01:17Z</time>
      </trkpt>
      <trkpt lat="46.18344" lon="-0.54312">
        <ele>57.2</ele>
        <time>2021-03-22T14:01:20Z</time>
      </trkpt>
      <trkpt lat="46.18343" lon="-0.54336">
        <ele>56.8</ele>
        <time>2021-03-22T14:01:22Z</time>
      </trkpt>
      <trkpt lat="46.18342" lon="-0.54349">
        <ele>56.4</ele>
        <time>2021-03-22T14:01:23Z</time>
      </trkpt>
      <trkpt lat="46.18339" lon="-0.54361">
        <ele>56.2</ele>
        <time>2021-03-22T14:01:24Z</time>
      </trkpt>
      <trkpt lat="46.18329" lon="-0.54437">
        <ele>55.6</ele>
        <time>2021-03-22T14:01:30Z</time>
      </trkpt>
      <trkpt lat="46.18327" lon="-0.54488">
        <ele>55.2</ele>
        <time>2021-03-22T14:01:34Z</time>
      </trkpt>
      <trkpt lat="46.18327" lon="-0.54512">
        <ele>55.2</ele>
        <time>2021-03-22T14:01:36Z</time>
      </trkpt>
      <trkpt lat="46.18327" lon="-0.54535">
        <ele>55</ele>
        <time>2021-03-22T14:01:38Z</time>
      </trkpt>
      <trkpt lat="46.18327" lon="-0.54544">
        <ele>54.8</ele>
        <time>2021-03-22T14:01:39Z</time>
      </trkpt>
      <trkpt lat="46.18327" lon="-0.54553">
        <ele>54.6</ele>
        <time>2021-03-22T14:01:40Z</time>
      </trkpt>
      <trkpt lat="46.18327" lon="-0.5456">
        <ele>54.4</ele>
        <time>2021-03-22T14:01:41Z</time>
      </trkpt>
      <trkpt lat="46.18326" lon="-0.54569">
        <ele>54.2</ele>
        <time>2021-03-22T14:01:42Z</time>
      </trkpt>
      <trkpt lat="46.18324" lon="-0.54578">
        <ele>54</ele>
        <time>2021-03-22T14:01:43Z</time>
      </trkpt>
      <trkpt lat="46.18321" lon="-0.54599">
        <ele>53.8</ele>
        <time>2021-03-22T14:01:45Z</time>
      </trkpt>
      <trkpt lat="46.18311" lon="-0.54646">
        <ele>53.6</ele>
        <time>2021-03-22T14:01:49Z</time>
      </trkpt>
      <trkpt lat="46.1831" lon="-0.54659">
        <ele>53.4</ele>
        <time>2021-03-22T14:01:50Z</time>
      </trkpt>
      <trkpt lat="46.1831" lon="-0.54672">
        <ele>53.4</ele>
        <time>2021-03-22T14:01:51Z</time>
      </trkpt>
      <trkpt lat="46.18312" lon="-0.54697">
        <ele>53</ele>
        <time>2021-03-22T14:01:53Z</time>
      </trkpt>
      <trkpt lat="46.18315" lon="-0.54709">
        <ele>52.8</ele>
        <time>2021-03-22T14:01:54Z</time>
      </trkpt>
      <trkpt lat="46.18319" lon="-0.54744">
        <ele>52.2</ele>
        <time>2021-03-22T14:01:57Z</time>
      </trkpt>
      <trkpt lat="46.18319" lon="-0.54755">
        <ele>51.8</ele>
        <time>2021-03-22T14:01:58Z</time>
      </trkpt>
      <trkpt lat="46.18318" lon="-0.54766">
        <ele>51.2</ele>
        <time>2021-03-22T14:01:59Z</time>
      </trkpt>
      <trkpt lat="46.18317" lon="-0.54776">
        <ele>50.6</ele>
        <time>2021-03-22T14:02:00Z</time>
      </trkpt>
      <trkpt lat="46.18317" lon="-0.54785">
        <ele>50.2</ele>
        <time>2021-03-22T14:02:01Z</time>
      </trkpt>
      <trkpt lat="46.18318" lon="-0.54794">
        <ele>49.8</ele>
        <time>2021-03-22T14:02:02Z</time>
      </trkpt>
      <trkpt lat="46.18322" lon="-0.54802">
        <ele>49.6</ele>
        <time>2021-03-22T14:02:03Z</time>
      </trkpt>
      <trkpt lat="46.18326" lon="-0.54808">
        <ele>49.4</ele>
        <time>2021-03-22T14:02:04Z</time>
      </trkpt>
      <trkpt lat="46.18331" lon="-0.5481">
        <ele>49.2</ele>
        <time>2021-03-22T14:02:05Z</time>
      </trkpt>
      <trkpt lat="46.18336" lon="-0.54811">
        <ele>49</ele>
        <time>2021-03-22T14:02:06Z</time>
      </trkpt>
      <trkpt lat="46.18343" lon="-0.54811">
        <ele>49</ele>
        <time>2021-03-22T14:02:07Z</time>
      </trkpt>
      <trkpt lat="46.18356" lon="-0.54812">
        <ele>48.8</ele>
        <time>2021-03-22T14:02:09Z</time>
      </trkpt>
      <trkpt lat="46.18364" lon="-0.54812">
        <ele>48.6</ele>
        <time>2021-03-22T14:02:10Z</time>
      </trkpt>
      <trkpt lat="46.18371" lon="-0.54813">
        <ele>48.4</ele>
        <time>2021-03-22T14:02:11Z</time>
      </trkpt>
      <trkpt lat="46.18394" lon="-0.54817">
        <ele>47.2</ele>
        <time>2021-03-22T14:02:14Z</time>
      </trkpt>
      <trkpt lat="46.1841" lon="-0.54819">
        <ele>46.4</ele>
        <time>2021-03-22T14:02:16Z</time>
      </trkpt>
      <trkpt lat="46.18426" lon="-0.54822">
        <ele>46</ele>
        <time>2021-03-22T14:02:18Z</time>
      </trkpt>
      <trkpt lat="46.18471" lon="-0.5483">
        <ele>45.8</ele>
        <time>2021-03-22T14:02:24Z</time>
      </trkpt>
      <trkpt lat="46.18478" lon="-0.54831">
        <ele>45.8</ele>
        <time>2021-03-22T14:02:25Z</time>
      </trkpt>
      <trkpt lat="46.18484" lon="-0.54832">
        <ele>45.8</ele>
        <time>2021-03-22T14:02:26Z</time>
      </trkpt>
      <trkpt lat="46.18491" lon="-0.54832">
        <ele>45.8</ele>
        <time>2021-03-22T14:02:27Z</time>
      </trkpt>
      <trkpt lat="46.18496" lon="-0.54833">
        <ele>45.8</ele>
        <time>2021-03-22T14:02:28Z</time>
      </trkpt>
      <trkpt lat="46.18501" lon="-0.54835">
        <ele>45.8</ele>
        <time>2021-03-22T14:02:29Z</time>
      </trkpt>
      <trkpt lat="46.18506" lon="-0.54836">
        <ele>45.8</ele>
        <time>2021-03-22T14:02:30Z</time>
      </trkpt>
      <trkpt lat="46.1851" lon="-0.54835">
        <ele>46.2</ele>
        <time>2021-03-22T14:02:31Z</time>
      </trkpt>
      <trkpt lat="46.18513" lon="-0.54833">
        <ele>46.6</ele>
        <time>2021-03-22T14:02:32Z</time>
      </trkpt>
      <trkpt lat="46.18515" lon="-0.54828">
        <ele>47.2</ele>
        <time>2021-03-22T14:02:33Z</time>
      </trkpt>
      <trkpt lat="46.18517" lon="-0.54821">
        <ele>47.4</ele>
        <time>2021-03-22T14:02:34Z</time>
      </trkpt>
      <trkpt lat="46.18518" lon="-0.54813">
        <ele>47.6</ele>
        <time>2021-03-22T14:02:35Z</time>
      </trkpt>
      <trkpt lat="46.18519" lon="-0.54801">
        <ele>48.2</ele>
        <time>2021-03-22T14:02:37Z</time>
      </trkpt>
      <trkpt lat="46.18519" lon="-0.54799">
        <ele>49</ele>
        <time>2021-03-22T14:02:38Z</time>
      </trkpt>
      <trkpt lat="46.18519" lon="-0.54799">
        <ele>49.4</ele>
        <time>2021-03-22T14:02:39Z</time>
      </trkpt>
      <trkpt lat="46.18522" lon="-0.54787">
        <ele>51</ele>
        <time>2021-03-22T14:02:49Z</time>
      </trkpt>
      <trkpt lat="46.18523" lon="-0.5478">
        <ele>51</ele>
        <time>2021-03-22T14:02:50Z</time>
      </trkpt>
      <trkpt lat="46.18524" lon="-0.54772">
        <ele>51</ele>
        <time>2021-03-22T14:02:51Z</time>
      </trkpt>
      <trkpt lat="46.18526" lon="-0.54763">
        <ele>51</ele>
        <time>2021-03-22T14:02:52Z</time>
      </trkpt>
      <trkpt lat="46.18527" lon="-0.54754">
        <ele>51</ele>
        <time>2021-03-22T14:02:53Z</time>
      </trkpt>
      <trkpt lat="46.18529" lon="-0.54744">
        <ele>51</ele>
        <time>2021-03-22T14:02:54Z</time>
      </trkpt>
      <trkpt lat="46.1853" lon="-0.54734">
        <ele>51</ele>
        <time>2021-03-22T14:02:55Z</time>
      </trkpt>
      <trkpt lat="46.18531" lon="-0.54723">
        <ele>51</ele>
        <time>2021-03-22T14:02:56Z</time>
      </trkpt>
      <trkpt lat="46.18532" lon="-0.54712">
        <ele>51</ele>
        <time>2021-03-22T14:02:57Z</time>
      </trkpt>
      <trkpt lat="46.18533" lon="-0.54701">
        <ele>50.8</ele>
        <time>2021-03-22T14:02:58Z</time>
      </trkpt>
      <trkpt lat="46.18535" lon="-0.5469">
        <ele>50.4</ele>
        <time>2021-03-22T14:02:59Z</time>
      </trkpt>
      <trkpt lat="46.18537" lon="-0.54679">
        <ele>50.2</ele>
        <time>2021-03-22T14:03:00Z</time>
      </trkpt>
      <trkpt lat="46.18539" lon="-0.54669">
        <ele>50.2</ele>
        <time>2021-03-22T14:03:01Z</time>
      </trkpt>
      <trkpt lat="46.18541" lon="-0.54658">
        <ele>50</ele>
        <time>2021-03-22T14:03:02Z</time>
      </trkpt>
      <trkpt lat="46.18543" lon="-0.54648">
        <ele>49.8</ele>
        <time>2021-03-22T14:03:03Z</time>
      </trkpt>
      <trkpt lat="46.18547" lon="-0.54628">
        <ele>49.6</ele>
        <time>2021-03-22T14:03:05Z</time>
      </trkpt>
      <trkpt lat="46.18551" lon="-0.54608">
        <ele>49.4</ele>
        <time>2021-03-22T14:03:07Z</time>
      </trkpt>
      <trkpt lat="46.18552" lon="-0.54586">
        <ele>49.2</ele>
        <time>2021-03-22T14:03:09Z</time>
      </trkpt>
      <trkpt lat="46.18552" lon="-0.54575">
        <ele>49.2</ele>
        <time>2021-03-22T14:03:10Z</time>
      </trkpt>
      <trkpt lat="46.1855" lon="-0.54553">
        <ele>49.2</ele>
        <time>2021-03-22T14:03:12Z</time>
      </trkpt>
      <trkpt lat="46.18545" lon="-0.54533">
        <ele>49.2</ele>
        <time>2021-03-22T14:03:14Z</time>
      </trkpt>
      <trkpt lat="46.18519" lon="-0.54465">
        <ele>50.2</ele>
        <time>2021-03-22T14:03:21Z</time>
      </trkpt>
      <trkpt lat="46.18511" lon="-0.54447">
        <ele>50.4</ele>
        <time>2021-03-22T14:03:23Z</time>
      </trkpt>
      <trkpt lat="46.18509" lon="-0.5444">
        <ele>50.8</ele>
        <time>2021-03-22T14:03:24Z</time>
      </trkpt>
      <trkpt lat="46.18506" lon="-0.54433">
        <ele>51</ele>
        <time>2021-03-22T14:03:25Z</time>
      </trkpt>
      <trkpt lat="46.18504" lon="-0.54426">
        <ele>51.6</ele>
        <time>2021-03-22T14:03:26Z</time>
      </trkpt>
      <trkpt lat="46.18503" lon="-0.5442">
        <ele>51.8</ele>
        <time>2021-03-22T14:03:27Z</time>
      </trkpt>
      <trkpt lat="46.18503" lon="-0.54416">
        <ele>52</ele>
        <time>2021-03-22T14:03:28Z</time>
      </trkpt>
      <trkpt lat="46.18503" lon="-0.54412">
        <ele>52.2</ele>
        <time>2021-03-22T14:03:29Z</time>
      </trkpt>
      <trkpt lat="46.18502" lon="-0.54409">
        <ele>52.4</ele>
        <time>2021-03-22T14:03:30Z</time>
      </trkpt>
      <trkpt lat="46.18501" lon="-0.54404">
        <ele>52.6</ele>
        <time>2021-03-22T14:03:31Z</time>
      </trkpt>
      <trkpt lat="46.18502" lon="-0.54392">
        <ele>53</ele>
        <time>2021-03-22T14:03:33Z</time>
      </trkpt>
      <trkpt lat="46.18503" lon="-0.54384">
        <ele>53.2</ele>
        <time>2021-03-22T14:03:34Z</time>
      </trkpt>
      <trkpt lat="46.18505" lon="-0.54377">
        <ele>53.2</ele>
        <time>2021-03-22T14:03:35Z</time>
      </trkpt>
      <trkpt lat="46.18507" lon="-0.54369">
        <ele>53.2</ele>
        <time>2021-03-22T14:03:36Z</time>
      </trkpt>
      <trkpt lat="46.18509" lon="-0.54361">
        <ele>53.2</ele>
        <time>2021-03-22T14:03:37Z</time>
      </trkpt>
      <trkpt lat="46.18511" lon="-0.54352">
        <ele>53.2</ele>
        <time>2021-03-22T14:03:38Z</time>
      </trkpt>
      <trkpt lat="46.18514" lon="-0.54343">
        <ele>53.2</ele>
        <time>2021-03-22T14:03:39Z</time>
      </trkpt>
      <trkpt lat="46.18517" lon="-0.54334">
        <ele>53.2</ele>
        <time>2021-03-22T14:03:40Z</time>
      </trkpt>
      <trkpt lat="46.1852" lon="-0.54325">
        <ele>53.2</ele>
        <time>2021-03-22T14:03:41Z</time>
      </trkpt>
      <trkpt lat="46.18523" lon="-0.54316">
        <ele>53.2</ele>
        <time>2021-03-22T14:03:42Z</time>
      </trkpt>
      <trkpt lat="46.18525" lon="-0.54306">
        <ele>53</ele>
        <time>2021-03-22T14:03:43Z</time>
      </trkpt>
      <trkpt lat="46.18528" lon="-0.54297">
        <ele>52.8</ele>
        <time>2021-03-22T14:03:44Z</time>
      </trkpt>
      <trkpt lat="46.18531" lon="-0.54287">
        <ele>52.8</ele>
        <time>2021-03-22T14:03:45Z</time>
      </trkpt>
      <trkpt lat="46.18534" lon="-0.54277">
        <ele>52.6</ele>
        <time>2021-03-22T14:03:46Z</time>
      </trkpt>
      <trkpt lat="46.18537" lon="-0.54267">
        <ele>52.6</ele>
        <time>2021-03-22T14:03:47Z</time>
      </trkpt>
      <trkpt lat="46.1854" lon="-0.54256">
        <ele>52.6</ele>
        <time>2021-03-22T14:03:48Z</time>
      </trkpt>
      <trkpt lat="46.1856" lon="-0.54195">
        <ele>52.6</ele>
        <time>2021-03-22T14:03:54Z</time>
      </trkpt>
      <trkpt lat="46.18566" lon="-0.54176">
        <ele>52.6</ele>
        <time>2021-03-22T14:03:56Z</time>
      </trkpt>
      <trkpt lat="46.18572" lon="-0.54157">
        <ele>52.8</ele>
        <time>2021-03-22T14:03:58Z</time>
      </trkpt>
      <trkpt lat="46.18574" lon="-0.54149">
        <ele>52.8</ele>
        <time>2021-03-22T14:03:59Z</time>
      </trkpt>
      <trkpt lat="46.18577" lon="-0.54142">
        <ele>53</ele>
        <time>2021-03-22T14:04:00Z</time>
      </trkpt>
      <trkpt lat="46.18578" lon="-0.54136">
        <ele>53</ele>
        <time>2021-03-22T14:04:01Z</time>
      </trkpt>
      <trkpt lat="46.1858" lon="-0.54131">
        <ele>53</ele>
        <time>2021-03-22T14:04:02Z</time>
      </trkpt>
      <trkpt lat="46.18581" lon="-0.54129">
        <ele>53.2</ele>
        <time>2021-03-22T14:04:03Z</time>
      </trkpt>
      <trkpt lat="46.18584" lon="-0.5413">
        <ele>53.4</ele>
        <time>2021-03-22T14:04:04Z</time>
      </trkpt>
      <trkpt lat="46.18588" lon="-0.54132">
        <ele>53.6</ele>
        <time>2021-03-22T14:04:05Z</time>
      </trkpt>
      <trkpt lat="46.18598" lon="-0.54136">
        <ele>54.2</ele>
        <time>2021-03-22T14:04:07Z</time>
      </trkpt>
      <trkpt lat="46.18605" lon="-0.54137">
        <ele>54.2</ele>
        <time>2021-03-22T14:04:08Z</time>
      </trkpt>
      <trkpt lat="46.18612" lon="-0.54138">
        <ele>54.2</ele>
        <time>2021-03-22T14:04:09Z</time>
      </trkpt>
      <trkpt lat="46.18643" lon="-0.54143">
        <ele>54.2</ele>
        <time>2021-03-22T14:04:13Z</time>
      </trkpt>
      <trkpt lat="46.1865" lon="-0.54145">
        <ele>54.4</ele>
        <time>2021-03-22T14:04:14Z</time>
      </trkpt>
      <trkpt lat="46.18656" lon="-0.54148">
        <ele>54.4</ele>
        <time>2021-03-22T14:04:15Z</time>
      </trkpt>
      <trkpt lat="46.18662" lon="-0.54151">
        <ele>54.4</ele>
        <time>2021-03-22T14:04:16Z</time>
      </trkpt>
      <trkpt lat="46.18668" lon="-0.54151">
        <ele>54.4</ele>
        <time>2021-03-22T14:04:17Z</time>
      </trkpt>
      <trkpt lat="46.18673" lon="-0.54149">
        <ele>54.4</ele>
        <time>2021-03-22T14:04:18Z</time>
      </trkpt>
      <trkpt lat="46.18678" lon="-0.54146">
        <ele>54.2</ele>
        <time>2021-03-22T14:04:19Z</time>
      </trkpt>
      <trkpt lat="46.18683" lon="-0.54142">
        <ele>54.2</ele>
        <time>2021-03-22T14:04:20Z</time>
      </trkpt>
      <trkpt lat="46.18689" lon="-0.54138">
        <ele>54.2</ele>
        <time>2021-03-22T14:04:21Z</time>
      </trkpt>
      <trkpt lat="46.18695" lon="-0.54133">
        <ele>54</ele>
        <time>2021-03-22T14:04:22Z</time>
      </trkpt>
      <trkpt lat="46.18722" lon="-0.54115">
        <ele>53.6</ele>
        <time>2021-03-22T14:04:26Z</time>
      </trkpt>
      <trkpt lat="46.18755" lon="-0.54093">
        <ele>53.8</ele>
        <time>2021-03-22T14:04:31Z</time>
      </trkpt>
      <trkpt lat="46.1876" lon="-0.54089">
        <ele>54</ele>
        <time>2021-03-22T14:04:32Z</time>
      </trkpt>
      <trkpt lat="46.18765" lon="-0.54086">
        <ele>54</ele>
        <time>2021-03-22T14:04:33Z</time>
      </trkpt>
      <trkpt lat="46.18769" lon="-0.54082">
        <ele>54</ele>
        <time>2021-03-22T14:04:34Z</time>
      </trkpt>
      <trkpt lat="46.18771" lon="-0.54076">
        <ele>54</ele>
        <time>2021-03-22T14:04:35Z</time>
      </trkpt>
      <trkpt lat="46.18772" lon="-0.5407">
        <ele>54</ele>
        <time>2021-03-22T14:04:36Z</time>
      </trkpt>
      <trkpt lat="46.18772" lon="-0.54062">
        <ele>54</ele>
        <time>2021-03-22T14:04:37Z</time>
      </trkpt>
      <trkpt lat="46.18771" lon="-0.54054">
        <ele>54</ele>
        <time>2021-03-22T14:04:38Z</time>
      </trkpt>
      <trkpt lat="46.18771" lon="-0.54045">
        <ele>54</ele>
        <time>2021-03-22T14:04:39Z</time>
      </trkpt>
      <trkpt lat="46.18771" lon="-0.54036">
        <ele>54.4</ele>
        <time>2021-03-22T14:04:40Z</time>
      </trkpt>
      <trkpt lat="46.18771" lon="-0.5402">
        <ele>55.6</ele>
        <time>2021-03-22T14:04:42Z</time>
      </trkpt>
      <trkpt lat="46.18772" lon="-0.54013">
        <ele>55.6</ele>
        <time>2021-03-22T14:04:43Z</time>
      </trkpt>
      <trkpt lat="46.18772" lon="-0.54008">
        <ele>56</ele>
        <time>2021-03-22T14:04:44Z</time>
      </trkpt>
      <trkpt lat="46.18773" lon="-0.54005">
        <ele>56.2</ele>
        <time>2021-03-22T14:04:45Z</time>
      </trkpt>
      <trkpt lat="46.18775" lon="-0.54003">
        <ele>56.6</ele>
        <time>2021-03-22T14:04:46Z</time>
      </trkpt>
      <trkpt lat="46.18777" lon="-0.54003">
        <ele>56.8</ele>
        <time>2021-03-22T14:04:47Z</time>
      </trkpt>
      <trkpt lat="46.18782" lon="-0.54002">
        <ele>57</ele>
        <time>2021-03-22T14:04:48Z</time>
      </trkpt>
      <trkpt lat="46.18792" lon="-0.54005">
        <ele>57.4</ele>
        <time>2021-03-22T14:04:50Z</time>
      </trkpt>
      <trkpt lat="46.18796" lon="-0.54005">
        <ele>57.6</ele>
        <time>2021-03-22T14:04:51Z</time>
      </trkpt>
      <trkpt lat="46.18801" lon="-0.54004">
        <ele>57.6</ele>
        <time>2021-03-22T14:04:52Z</time>
      </trkpt>
      <trkpt lat="46.18805" lon="-0.54">
        <ele>57.8</ele>
        <time>2021-03-22T14:04:53Z</time>
      </trkpt>
      <trkpt lat="46.18809" lon="-0.53995">
        <ele>58</ele>
        <time>2021-03-22T14:04:54Z</time>
      </trkpt>
      <trkpt lat="46.1881" lon="-0.5399">
        <ele>58.2</ele>
        <time>2021-03-22T14:04:55Z</time>
      </trkpt>
      <trkpt lat="46.18807" lon="-0.53986">
        <ele>58.2</ele>
        <time>2021-03-22T14:04:56Z</time>
      </trkpt>
      <trkpt lat="46.18803" lon="-0.53984">
        <ele>58.2</ele>
        <time>2021-03-22T14:04:57Z</time>
      </trkpt>
      <trkpt lat="46.18797" lon="-0.53984">
        <ele>58.2</ele>
        <time>2021-03-22T14:04:58Z</time>
      </trkpt>
      <trkpt lat="46.18791" lon="-0.53983">
        <ele>58.4</ele>
        <time>2021-03-22T14:04:59Z</time>
      </trkpt>
      <trkpt lat="46.18787" lon="-0.53981">
        <ele>58.4</ele>
        <time>2021-03-22T14:05:00Z</time>
      </trkpt>
      <trkpt lat="46.18786" lon="-0.53977">
        <ele>58.6</ele>
        <time>2021-03-22T14:05:01Z</time>
      </trkpt>
      <trkpt lat="46.18786" lon="-0.53974">
        <ele>58.6</ele>
        <time>2021-03-22T14:05:02Z</time>
      </trkpt>
      <trkpt lat="46.18787" lon="-0.53973">
        <ele>58.8</ele>
        <time>2021-03-22T14:05:03Z</time>
      </trkpt>
      <trkpt lat="46.18787" lon="-0.53973">
        <ele>58.8</ele>
        <time>2021-03-22T14:05:04Z</time>
      </trkpt>
      <trkpt lat="46.18787" lon="-0.53973">
        <ele>58.8</ele>
        <time>2021-03-22T14:05:05Z</time>
      </trkpt>
    </trkseg>
  </trk>
</gpx>